Time,TemperatureF,DewpointF,PressureIn,WindDirection,WindDirectionDegrees,WindSpeedMPH,WindSpeedGustMPH,Humidity,HourlyPrecipIn,Conditions,Clouds,dailyrainin,SoftwareType,DateUTC
2013-02-19 00:00:00,4.3,-0.2,29.71,WNW,288,7.0,16.0,81,0.00,,,0.00,VWS V14.01,2013-02-19 06:00:00,
2013-02-19 00:01:00,4.3,-0.2,29.71,WNW,295,5.0,12.0,81,0.00,,,0.00,VWS V14.01,2013-02-19 06:01:00,
2013-02-19 00:02:00,4.3,-0.2,29.71,WNW,300,8.0,12.0,81,0.00,,,0.00,VWS V14.01,2013-02-19 06:02:00,
2013-02-19 00:03:00,4.3,-0.2,29.71,NNW,336,13.0,14.0,81,0.00,,,0.00,VWS V14.01,2013-02-19 06:03:00,
2013-02-19 00:04:00,4.3,-0.2,29.71,WNW,293,6.0,14.0,81,0.00,,,0.00,VWS V14.01,2013-02-19 06:04:00,
2013-02-19 00:05:00,4.5,0.0,29.71,WNW,295,6.0,14.0,81,0.00,,,0.00,VWS V14.01,2013-02-19 06:05:00,
2013-02-19 00:06:00,4.5,0.0,29.71,West,277,6.0,16.0,81,0.00,,,0.00,VWS V14.01,2013-02-19 06:06:00,
2013-02-19 00:07:00,4.5,-0.3,29.71,NW,310,12.0,20.0,80,0.00,,,0.00,VWS V14.01,2013-02-19 06:07:00,
2013-02-19 00:08:00,4.5,-0.3,29.71,West,271,1.0,20.0,80,0.00,,,0.00,VWS V14.01,2013-02-19 06:08:00,
2013-02-19 00:09:00,4.5,-0.3,29.71,WNW,283,5.0,20.0,80,0.00,,,0.00,VWS V14.01,2013-02-19 06:09:00,
2013-02-19 00:10:00,4.5,-0.3,29.71,WNW,284,1.0,20.0,80,0.00,,,0.00,VWS V14.01,2013-02-19 06:10:00,
2013-02-19 00:11:00,4.5,-0.3,29.71,WNW,294,10.0,20.0,80,0.00,,,0.00,VWS V14.01,2013-02-19 06:11:00,
2013-02-19 00:12:00,4.5,-0.3,29.71,WNW,288,2.0,20.0,80,0.00,,,0.00,VWS V14.01,2013-02-19 06:12:00,
2013-02-19 00:13:00,4.5,-0.3,29.71,WNW,284,8.0,20.0,80,0.00,,,0.00,VWS V14.01,2013-02-19 06:13:00,
2013-02-19 00:14:00,4.5,-0.3,29.71,WNW,287,0.0,20.0,80,0.00,,,0.00,VWS V14.01,2013-02-19 06:14:00,
2013-02-19 00:15:00,4.5,-0.3,29.72,WNW,302,2.0,20.0,80,0.00,,,0.00,VWS V14.01,2013-02-19 06:15:00,
2013-02-19 00:16:00,4.5,-0.3,29.72,WNW,298,0.0,20.0,80,0.00,,,0.00,VWS V14.01,2013-02-19 06:16:00,
2013-02-19 00:17:00,4.5,-0.3,29.72,West,281,7.0,20.0,80,0.00,,,0.00,VWS V14.01,2013-02-19 06:17:00,
2013-02-19 00:18:00,4.5,0.0,29.72,WNW,302,0.0,20.0,81,0.00,,,0.00,VWS V14.01,2013-02-19 06:18:00,
2013-02-19 00:19:00,4.5,0.0,29.72,WNW,295,9.0,20.0,81,0.00,,,0.00,VWS V14.01,2013-02-19 06:19:00,
2013-02-19 00:20:00,4.5,0.0,29.72,WNW,295,2.0,20.0,81,0.00,,,0.00,VWS V14.01,2013-02-19 06:20:00,
2013-02-19 00:21:00,4.5,0.0,29.72,West,270,0.0,20.0,81,0.00,,,0.00,VWS V14.01,2013-02-19 06:21:00,
2013-02-19 00:22:00,4.5,0.0,29.72,WNW,284,7.0,20.0,81,0.00,,,0.00,VWS V14.01,2013-02-19 06:22:00,
2013-02-19 00:23:00,4.5,0.0,29.72,West,270,2.0,20.0,81,0.00,,,0.00,VWS V14.01,2013-02-19 06:23:00,
2013-02-19 00:24:00,4.5,0.0,29.72,West,270,6.0,20.0,81,0.00,,,0.00,VWS V14.01,2013-02-19 06:24:00,
2013-02-19 00:25:00,4.5,0.0,29.72,WNW,293,8.0,20.0,81,0.00,,,0.00,VWS V14.01,2013-02-19 06:25:00,
2013-02-19 00:26:00,4.5,0.0,29.72,WNW,302,7.0,20.0,81,0.00,,,0.00,VWS V14.01,2013-02-19 06:26:00,
2013-02-19 00:27:00,4.5,0.0,29.72,NW,304,9.0,20.0,81,0.00,,,0.00,VWS V14.01,2013-02-19 06:27:00,
2013-02-19 00:28:00,4.5,0.0,29.72,WNW,294,3.0,20.0,81,0.00,,,0.00,VWS V14.01,2013-02-19 06:28:00,
2013-02-19 00:29:00,4.5,0.0,29.72,WNW,290,11.0,20.0,81,0.00,,,0.00,VWS V14.01,2013-02-19 06:29:00,
2013-02-19 00:30:00,4.5,-0.3,29.73,WNW,288,8.0,20.0,80,0.00,,,0.00,VWS V14.01,2013-02-19 06:30:00,
2013-02-19 00:31:00,4.5,-0.3,29.73,WNW,301,5.0,13.0,80,0.00,,,0.00,VWS V14.01,2013-02-19 06:31:00,
2013-02-19 00:32:00,4.5,-0.3,29.73,NNW,332,10.0,14.0,80,0.00,,,0.00,VWS V14.01,2013-02-19 06:32:00,
2013-02-19 00:33:00,4.5,-0.3,29.73,West,281,6.0,14.0,80,0.00,,,0.00,VWS V14.01,2013-02-19 06:33:00,
2013-02-19 00:34:00,4.5,-0.3,29.73,WNW,290,5.0,14.0,80,0.00,,,0.00,VWS V14.01,2013-02-19 06:34:00,
2013-02-19 00:35:00,4.5,-0.3,29.73,NW,304,2.0,14.0,80,0.00,,,0.00,VWS V14.01,2013-02-19 06:35:00,
2013-02-19 00:36:00,4.5,-0.3,29.73,NNW,328,6.0,14.0,80,0.00,,,0.00,VWS V14.01,2013-02-19 06:36:00,
2013-02-19 00:37:00,4.5,-0.3,29.73,WNW,301,10.0,14.0,80,0.00,,,0.00,VWS V14.01,2013-02-19 06:37:00,
2013-02-19 00:38:00,4.5,-0.3,29.73,WNW,284,5.0,14.0,80,0.00,,,0.00,VWS V14.01,2013-02-19 06:38:00,
2013-02-19 00:39:00,4.5,-0.3,29.73,WNW,286,2.0,14.0,80,0.00,,,0.00,VWS V14.01,2013-02-19 06:39:00,
2013-02-19 00:40:00,4.5,-0.3,29.73,West,270,3.0,19.0,80,0.00,,,0.00,VWS V14.01,2013-02-19 06:40:00,
2013-02-19 00:41:00,4.5,-0.3,29.73,West,276,3.0,19.0,80,0.00,,,0.00,VWS V14.01,2013-02-19 06:41:00,
2013-02-19 00:42:00,4.5,-0.3,29.73,West,280,3.0,19.0,80,0.00,,,0.00,VWS V14.01,2013-02-19 06:42:00,
2013-02-19 00:43:00,4.5,-0.3,29.73,WNW,286,6.0,19.0,80,0.00,,,0.00,VWS V14.01,2013-02-19 06:43:00,
2013-02-19 00:44:00,4.5,-0.3,29.73,NNW,346,12.0,19.0,80,0.00,,,0.00,VWS V14.01,2013-02-19 06:44:00,
2013-02-19 00:45:00,4.5,-0.3,29.73,WNW,300,3.0,19.0,80,0.00,,,0.00,VWS V14.01,2013-02-19 06:45:00,
2013-02-19 00:46:00,4.5,0.0,29.73,WNW,294,8.0,19.0,81,0.00,,,0.00,VWS V14.01,2013-02-19 06:46:00,
2013-02-19 00:47:00,4.5,-0.3,29.73,West,281,4.0,19.0,80,0.00,,,0.00,VWS V14.01,2013-02-19 06:47:00,
2013-02-19 00:48:00,4.5,-0.3,29.73,West,276,3.0,19.0,80,0.00,,,0.00,VWS V14.01,2013-02-19 06:48:00,
2013-02-19 00:49:00,4.5,0.0,29.73,NNW,331,9.0,19.0,81,0.00,,,0.00,VWS V14.01,2013-02-19 06:49:00,
2013-02-19 00:50:00,4.5,-0.3,29.73,WNW,298,5.0,19.0,80,0.00,,,0.00,VWS V14.01,2013-02-19 06:50:00,
2013-02-19 00:51:00,4.5,-0.3,29.73,WNW,295,5.0,19.0,80,0.00,,,0.00,VWS V14.01,2013-02-19 06:51:00,
2013-02-19 00:52:00,4.5,-0.3,29.73,WNW,294,5.0,19.0,80,0.00,,,0.00,VWS V14.01,2013-02-19 06:52:00,
2013-02-19 00:53:00,4.5,-0.3,29.73,West,266,4.0,19.0,80,0.00,,,0.00,VWS V14.01,2013-02-19 06:53:00,
2013-02-19 00:54:00,4.5,-0.3,29.73,WNW,287,2.0,19.0,80,0.00,,,0.00,VWS V14.01,2013-02-19 06:54:00,
2013-02-19 00:55:00,4.5,-0.3,29.73,West,266,0.0,19.0,80,0.00,,,0.00,VWS V14.01,2013-02-19 06:55:00,
2013-02-19 00:56:00,4.3,-0.5,29.73,WNW,302,6.0,19.0,80,0.00,,,0.00,VWS V14.01,2013-02-19 06:56:00,
2013-02-19 00:57:00,4.3,-0.5,29.73,West,277,8.0,19.0,80,0.00,,,0.00,VWS V14.01,2013-02-19 06:57:00,
2013-02-19 00:58:00,4.3,-0.5,29.73,WNW,301,10.0,19.0,80,0.00,,,0.00,VWS V14.01,2013-02-19 06:58:00,
2013-02-19 00:59:00,4.3,-0.5,29.73,West,270,10.0,19.0,80,0.00,,,0.00,VWS V14.01,2013-02-19 06:59:00,
2013-02-19 01:00:00,4.3,-0.5,29.74,West,270,3.0,19.0,80,0.00,,,0.00,VWS V14.01,2013-02-19 07:00:00,
2013-02-19 01:01:00,4.3,-0.5,29.74,West,278,0.0,9.0,80,0.00,,,0.00,VWS V14.01,2013-02-19 07:01:00,
2013-02-19 01:02:00,4.3,-0.5,29.74,West,270,1.0,9.0,80,0.00,,,0.00,VWS V14.01,2013-02-19 07:02:00,
2013-02-19 01:03:00,4.3,-0.5,29.74,WNW,286,6.0,9.0,80,0.00,,,0.00,VWS V14.01,2013-02-19 07:03:00,
2013-02-19 01:04:00,4.3,-0.5,29.74,NW,311,2.0,10.0,80,0.00,,,0.00,VWS V14.01,2013-02-19 07:04:00,
2013-02-19 01:05:00,4.1,-0.7,29.74,West,277,0.0,10.0,80,0.00,,,0.00,VWS V14.01,2013-02-19 07:05:00,
2013-02-19 01:06:00,4.1,-0.7,29.74,West,280,1.0,10.0,80,0.00,,,0.00,VWS V14.01,2013-02-19 07:06:00,
2013-02-19 01:07:00,4.1,-0.7,29.74,West,270,7.0,10.0,80,0.00,,,0.00,VWS V14.01,2013-02-19 07:07:00,
2013-02-19 01:08:00,4.1,-0.7,29.74,WNW,288,3.0,10.0,80,0.00,,,0.00,VWS V14.01,2013-02-19 07:08:00,
2013-02-19 01:09:00,3.9,-0.9,29.74,WNW,293,5.0,14.0,80,0.00,,,0.00,VWS V14.01,2013-02-19 07:09:00,
2013-02-19 01:10:00,3.9,-0.9,29.74,WNW,287,7.0,14.0,80,0.00,,,0.00,VWS V14.01,2013-02-19 07:10:00,
2013-02-19 01:11:00,3.9,-0.9,29.74,WNW,302,5.0,14.0,80,0.00,,,0.00,VWS V14.01,2013-02-19 07:11:00,
2013-02-19 01:12:00,3.9,-0.9,29.74,WNW,293,1.0,14.0,80,0.00,,,0.00,VWS V14.01,2013-02-19 07:12:00,
2013-02-19 01:13:00,3.9,-0.9,29.74,WNW,291,0.0,14.0,80,0.00,,,0.00,VWS V14.01,2013-02-19 07:13:00,
2013-02-19 01:14:00,3.7,-1.1,29.74,WNW,287,4.0,14.0,80,0.00,,,0.00,VWS V14.01,2013-02-19 07:14:00,
2013-02-19 01:15:00,3.7,-1.1,29.75,West,280,2.0,14.0,80,0.00,,,0.00,VWS V14.01,2013-02-19 07:15:00,
2013-02-19 01:16:00,3.7,-1.1,29.75,WNW,287,5.0,14.0,80,0.00,,,0.00,VWS V14.01,2013-02-19 07:16:00,
2013-02-19 01:17:00,3.7,-1.1,29.75,WNW,295,7.0,14.0,80,0.00,,,0.00,VWS V14.01,2013-02-19 07:17:00,
2013-02-19 01:18:00,3.7,-1.1,29.75,West,273,8.0,14.0,80,0.00,,,0.00,VWS V14.01,2013-02-19 07:18:00,
2013-02-19 01:19:00,3.7,-1.1,29.75,WNW,287,5.0,14.0,80,0.00,,,0.00,VWS V14.01,2013-02-19 07:19:00,
2013-02-19 01:20:00,3.5,-1.3,29.75,WNW,287,2.0,17.0,80,0.00,,,0.00,VWS V14.01,2013-02-19 07:20:00,
2013-02-19 01:21:00,3.5,-1.3,29.75,WNW,291,6.0,17.0,80,0.00,,,0.00,VWS V14.01,2013-02-19 07:21:00,
2013-02-19 01:22:00,3.5,-1.3,29.75,West,276,5.0,17.0,80,0.00,,,0.00,VWS V14.01,2013-02-19 07:22:00,
2013-02-19 01:23:00,3.5,-1.3,29.75,SW,230,1.0,17.0,80,0.00,,,0.00,VWS V14.01,2013-02-19 07:23:00,
2013-02-19 01:24:00,3.5,-1.3,29.75,West,278,10.0,17.0,80,0.00,,,0.00,VWS V14.01,2013-02-19 07:24:00,
2013-02-19 01:25:00,3.5,-1.3,29.75,WNW,290,8.0,17.0,80,0.00,,,0.00,VWS V14.01,2013-02-19 07:25:00,
2013-02-19 01:26:00,3.5,-1.3,29.75,West,280,3.0,17.0,80,0.00,,,0.00,VWS V14.01,2013-02-19 07:26:00,
2013-02-19 01:27:00,3.5,-1.5,29.75,WNW,288,6.0,19.0,79,0.00,,,0.00,VWS V14.01,2013-02-19 07:27:00,
2013-02-19 01:28:00,3.5,-1.5,29.75,WNW,294,11.0,19.0,79,0.00,,,0.00,VWS V14.01,2013-02-19 07:28:00,
2013-02-19 01:29:00,3.4,-1.6,29.75,WNW,294,8.0,19.0,79,0.00,,,0.00,VWS V14.01,2013-02-19 07:29:00,
2013-02-19 01:30:00,3.4,-1.6,29.76,WNW,291,3.0,19.0,79,0.00,,,0.00,VWS V14.01,2013-02-19 07:30:00,
2013-02-19 01:31:00,3.4,-1.6,29.76,West,277,3.0,13.0,79,0.00,,,0.00,VWS V14.01,2013-02-19 07:31:00,
2013-02-19 01:32:00,3.4,-1.6,29.76,NW,314,10.0,13.0,79,0.00,,,0.00,VWS V14.01,2013-02-19 07:32:00,
2013-02-19 01:33:00,3.4,-1.6,29.76,WNW,288,6.0,13.0,79,0.00,,,0.00,VWS V14.01,2013-02-19 07:33:00,
2013-02-19 01:34:00,3.4,-1.6,29.76,WNW,298,2.0,13.0,79,0.00,,,0.00,VWS V14.01,2013-02-19 07:34:00,
2013-02-19 01:35:00,3.4,-1.6,29.76,WNW,287,7.0,13.0,79,0.00,,,0.00,VWS V14.01,2013-02-19 07:35:00,
2013-02-19 01:36:00,3.4,-1.6,29.76,NW,308,5.0,16.0,79,0.00,,,0.00,VWS V14.01,2013-02-19 07:36:00,
2013-02-19 01:37:00,3.4,-1.6,29.76,WNW,294,10.0,16.0,79,0.00,,,0.00,VWS V14.01,2013-02-19 07:37:00,
2013-02-19 01:38:00,3.4,-1.6,29.76,NNW,334,5.0,16.0,79,0.00,,,0.00,VWS V14.01,2013-02-19 07:38:00,
2013-02-19 01:39:00,3.4,-1.6,29.76,WNW,288,5.0,17.0,79,0.00,,,0.00,VWS V14.01,2013-02-19 07:39:00,
2013-02-19 01:40:00,3.2,-1.8,29.76,WNW,300,8.0,18.0,79,0.00,,,0.00,VWS V14.01,2013-02-19 07:40:00,
2013-02-19 01:41:00,3.2,-1.8,29.76,WNW,290,7.0,18.0,79,0.00,,,0.00,VWS V14.01,2013-02-19 07:41:00,
2013-02-19 01:42:00,3.2,-1.8,29.76,West,270,7.0,18.0,79,0.00,,,0.00,VWS V14.01,2013-02-19 07:42:00,
2013-02-19 01:43:00,3.2,-1.8,29.76,WNW,291,6.0,18.0,79,0.00,,,0.00,VWS V14.01,2013-02-19 07:43:00,
2013-02-19 01:44:00,3.2,-1.8,29.76,West,274,2.0,18.0,79,0.00,,,0.00,VWS V14.01,2013-02-19 07:44:00,
2013-02-19 01:45:00,3.2,-1.8,29.76,West,280,5.0,18.0,79,0.00,,,0.00,VWS V14.01,2013-02-19 07:45:00,
2013-02-19 01:46:00,3.2,-1.8,29.76,West,269,1.0,18.0,79,0.00,,,0.00,VWS V14.01,2013-02-19 07:46:00,
2013-02-19 01:47:00,3.2,-1.8,29.76,WNW,287,8.0,18.0,79,0.00,,,0.00,VWS V14.01,2013-02-19 07:47:00,
2013-02-19 01:48:00,3.2,-1.8,29.76,NW,318,12.0,18.0,79,0.00,,,0.00,VWS V14.01,2013-02-19 07:48:00,
2013-02-19 01:49:00,3.2,-1.8,29.76,WNW,300,10.0,18.0,79,0.00,,,0.00,VWS V14.01,2013-02-19 07:49:00,
2013-02-19 01:50:00,3.2,-1.8,29.76,West,270,10.0,18.0,79,0.00,,,0.00,VWS V14.01,2013-02-19 07:50:00,
2013-02-19 01:51:00,3.2,-1.8,29.76,WNW,302,11.0,18.0,79,0.00,,,0.00,VWS V14.01,2013-02-19 07:51:00,
2013-02-19 01:52:00,3.2,-1.8,29.76,NNW,341,13.0,18.0,79,0.00,,,0.00,VWS V14.01,2013-02-19 07:52:00,
2013-02-19 01:53:00,3.2,-1.8,29.76,WNW,300,12.0,18.0,79,0.00,,,0.00,VWS V14.01,2013-02-19 07:53:00,
2013-02-19 01:54:00,3.2,-1.8,29.76,West,278,0.0,18.0,79,0.00,,,0.00,VWS V14.01,2013-02-19 07:54:00,
2013-02-19 01:55:00,3.2,-1.8,29.76,WNW,295,1.0,18.0,79,0.00,,,0.00,VWS V14.01,2013-02-19 07:55:00,
2013-02-19 01:56:00,3.2,-1.8,29.76,WNW,295,2.0,18.0,79,0.00,,,0.00,VWS V14.01,2013-02-19 07:56:00,
2013-02-19 01:57:00,3.2,-1.8,29.76,West,271,6.0,18.0,79,0.00,,,0.00,VWS V14.01,2013-02-19 07:57:00,
2013-02-19 01:58:00,3.2,-1.8,29.76,WNW,301,1.0,18.0,79,0.00,,,0.00,VWS V14.01,2013-02-19 07:58:00,
2013-02-19 01:59:00,3.2,-1.8,29.76,NW,304,11.0,22.0,79,0.00,,BKN050,0.00,VWS V14.01,2013-02-19 07:59:00,
2013-02-19 02:00:00,3.2,-2.1,29.76,WNW,297,2.0,22.0,78,0.00,,BKN050,0.00,VWS V14.01,2013-02-19 08:00:00,
2013-02-19 02:01:00,3.4,-1.6,29.76,West,276,3.0,11.0,79,0.00,,BKN050,0.00,VWS V14.01,2013-02-19 08:01:00,
2013-02-19 02:02:00,3.4,-1.6,29.76,West,274,1.0,12.0,79,0.00,,BKN050,0.00,VWS V14.01,2013-02-19 08:02:00,
2013-02-19 02:03:00,3.4,-1.6,29.76,NW,324,6.0,12.0,79,0.00,,BKN050,0.00,VWS V14.01,2013-02-19 08:03:00,
2013-02-19 02:04:00,3.4,-1.6,29.76,WNW,286,0.0,14.0,79,0.00,,BKN050,0.00,VWS V14.01,2013-02-19 08:04:00,
2013-02-19 02:05:00,3.4,-1.6,29.76,NNW,331,19.0,19.0,79,0.00,,BKN050,0.00,VWS V14.01,2013-02-19 08:05:00,
2013-02-19 02:06:00,3.4,-1.9,29.76,NW,304,3.0,19.0,78,0.00,,BKN050,0.00,VWS V14.01,2013-02-19 08:06:00,
2013-02-19 02:07:00,3.4,-1.6,29.76,NNW,348,10.0,19.0,79,0.00,,BKN050,0.00,VWS V14.01,2013-02-19 08:07:00,
2013-02-19 02:08:00,3.4,-1.6,29.76,WNW,286,1.0,19.0,79,0.00,,BKN050,0.00,VWS V14.01,2013-02-19 08:08:00,
2013-02-19 02:09:00,3.4,-1.9,29.76,WNW,297,11.0,19.0,78,0.00,,BKN050,0.00,VWS V14.01,2013-02-19 08:09:00,
2013-02-19 02:10:00,3.4,-1.9,29.76,WNW,298,3.0,19.0,78,0.00,,BKN050,0.00,VWS V14.01,2013-02-19 08:10:00,
2013-02-19 02:11:00,3.4,-1.9,29.76,NW,312,6.0,19.0,78,0.00,,BKN050,0.00,VWS V14.01,2013-02-19 08:11:00,
2013-02-19 02:12:00,3.4,-1.9,29.76,West,271,3.0,19.0,78,0.00,,BKN050,0.00,VWS V14.01,2013-02-19 08:12:00,
2013-02-19 02:13:00,3.4,-1.9,29.76,WNW,300,10.0,19.0,78,0.00,,BKN050,0.00,VWS V14.01,2013-02-19 08:13:00,
2013-02-19 02:14:00,3.4,-1.9,29.76,WNW,293,0.0,19.0,78,0.00,,OVC100,0.00,VWS V14.01,2013-02-19 08:14:00,
2013-02-19 02:15:00,3.4,-1.9,29.77,WNW,302,7.0,19.0,78,0.00,,OVC100,0.00,VWS V14.01,2013-02-19 08:15:00,
2013-02-19 02:16:00,3.4,-1.9,29.77,WNW,283,8.0,19.0,78,0.00,,OVC100,0.00,VWS V14.01,2013-02-19 08:16:00,
2013-02-19 02:17:00,3.4,-1.9,29.77,West,270,1.0,19.0,78,0.00,,OVC100,0.00,VWS V14.01,2013-02-19 08:17:00,
2013-02-19 02:18:00,3.2,-2.1,29.77,NW,308,9.0,19.0,78,0.00,,OVC100,0.00,VWS V14.01,2013-02-19 08:18:00,
2013-02-19 02:19:00,3.2,-2.1,29.77,NW,304,10.0,19.0,78,0.00,,OVC100,0.00,VWS V14.01,2013-02-19 08:19:00,
2013-02-19 02:20:00,3.2,-2.1,29.77,West,280,2.0,19.0,78,0.00,,OVC100,0.00,VWS V14.01,2013-02-19 08:20:00,
2013-02-19 02:21:00,3.2,-2.1,29.77,WNW,301,5.0,19.0,78,0.00,,OVC100,0.00,VWS V14.01,2013-02-19 08:21:00,
2013-02-19 02:22:00,3.2,-2.1,29.77,West,276,3.0,19.0,78,0.00,,OVC100,0.00,VWS V14.01,2013-02-19 08:22:00,
2013-02-19 02:23:00,3.2,-2.1,29.77,WNW,300,9.0,19.0,78,0.00,,OVC100,0.00,VWS V14.01,2013-02-19 08:23:00,
2013-02-19 02:24:00,3.0,-2.6,29.77,WNW,290,7.0,19.0,77,0.00,,OVC100,0.00,VWS V14.01,2013-02-19 08:24:00,
2013-02-19 02:25:00,3.0,-2.6,29.77,WNW,298,4.0,19.0,77,0.00,,OVC100,0.00,VWS V14.01,2013-02-19 08:25:00,
2013-02-19 02:26:00,3.0,-2.6,29.77,WNW,301,8.0,19.0,77,0.00,,OVC100,0.00,VWS V14.01,2013-02-19 08:26:00,
2013-02-19 02:27:00,3.0,-2.6,29.77,West,274,2.0,19.0,77,0.00,,OVC100,0.00,VWS V14.01,2013-02-19 08:27:00,
2013-02-19 02:28:00,2.8,-2.8,29.77,WNW,288,6.0,19.0,77,0.00,,OVC100,0.00,VWS V14.01,2013-02-19 08:28:00,
2013-02-19 02:29:00,2.8,-2.8,29.77,NW,311,7.0,19.0,77,0.00,,BKN130,0.00,VWS V14.01,2013-02-19 08:29:00,
2013-02-19 02:30:00,2.8,-2.8,29.78,NW,310,10.0,19.0,77,0.00,,BKN130,0.00,VWS V14.01,2013-02-19 08:30:00,
2013-02-19 02:31:00,2.8,-2.8,29.78,WNW,286,12.0,12.0,77,0.00,,BKN130,0.00,VWS V14.01,2013-02-19 08:31:00,
2013-02-19 02:32:00,2.6,-3.0,29.78,WNW,295,6.0,12.0,77,0.00,,BKN130,0.00,VWS V14.01,2013-02-19 08:32:00,
2013-02-19 02:33:00,2.6,-3.0,29.78,WNW,302,3.0,13.0,77,0.00,,BKN130,0.00,VWS V14.01,2013-02-19 08:33:00,
2013-02-19 02:34:00,2.6,-3.0,29.78,WNW,286,2.0,13.0,77,0.00,,BKN130,0.00,VWS V14.01,2013-02-19 08:34:00,
2013-02-19 02:35:00,2.6,-3.0,29.78,WNW,291,12.0,13.0,77,0.00,,BKN130,0.00,VWS V14.01,2013-02-19 08:35:00,
2013-02-19 02:36:00,2.6,-3.2,29.78,WNW,294,7.0,17.0,76,0.00,,BKN130,0.00,VWS V14.01,2013-02-19 08:36:00,
2013-02-19 02:37:00,2.6,-3.0,29.78,NW,315,3.0,17.0,77,0.00,,BKN130,0.00,VWS V14.01,2013-02-19 08:37:00,
2013-02-19 02:38:00,2.4,-3.4,29.78,NW,304,16.0,17.0,76,0.00,,BKN130,0.00,VWS V14.01,2013-02-19 08:38:00,
2013-02-19 02:39:00,2.4,-3.4,29.78,West,266,8.0,18.0,76,0.00,,BKN130,0.00,VWS V14.01,2013-02-19 08:39:00,
2013-02-19 02:40:00,2.4,-3.4,29.78,West,280,7.0,18.0,76,0.00,,BKN130,0.00,VWS V14.01,2013-02-19 08:40:00,
2013-02-19 02:41:00,2.4,-3.4,29.78,WNW,297,8.0,18.0,76,0.00,,BKN130,0.00,VWS V14.01,2013-02-19 08:41:00,
2013-02-19 02:42:00,2.4,-3.4,29.78,WNW,302,1.0,18.0,76,0.00,,BKN130,0.00,VWS V14.01,2013-02-19 08:42:00,
2013-02-19 02:43:00,2.4,-3.4,29.78,WNW,301,11.0,18.0,76,0.00,,BKN130,0.00,VWS V14.01,2013-02-19 08:43:00,
2013-02-19 02:44:00,2.4,-3.2,29.78,NW,324,9.0,18.0,77,0.00,,BKN130,0.00,VWS V14.01,2013-02-19 08:44:00,
2013-02-19 02:45:00,2.4,-3.4,29.79,WNW,293,7.0,18.0,76,0.00,,BKN130,0.00,VWS V14.01,2013-02-19 08:45:00,
2013-02-19 02:46:00,2.4,-3.2,29.79,West,273,3.0,18.0,77,0.00,,BKN130,0.00,VWS V14.01,2013-02-19 08:46:00,
2013-02-19 02:47:00,2.4,-3.2,29.79,WNW,291,6.0,18.0,77,0.00,,BKN130,0.00,VWS V14.01,2013-02-19 08:47:00,
2013-02-19 02:48:00,2.2,-3.6,29.79,West,273,7.0,19.0,76,0.00,,BKN130,0.00,VWS V14.01,2013-02-19 08:48:00,
2013-02-19 02:49:00,2.2,-3.6,29.79,NW,326,14.0,19.0,76,0.00,,BKN130,0.00,VWS V14.01,2013-02-19 08:49:00,
2013-02-19 02:50:00,2.2,-3.6,29.79,West,276,5.0,19.0,76,0.00,,BKN130,0.00,VWS V14.01,2013-02-19 08:50:00,
2013-02-19 02:51:00,2.2,-3.6,29.79,West,274,3.0,19.0,76,0.00,,BKN130,0.00,VWS V14.01,2013-02-19 08:51:00,
2013-02-19 02:52:00,2.2,-3.6,29.79,West,270,6.0,19.0,76,0.00,,BKN130,0.00,VWS V14.01,2013-02-19 08:52:00,
2013-02-19 02:53:00,2.2,-3.6,29.79,West,270,3.0,19.0,76,0.00,,BKN130,0.00,VWS V14.01,2013-02-19 08:53:00,
2013-02-19 02:54:00,2.2,-3.6,29.79,WNW,284,6.0,19.0,76,0.00,,BKN130,0.00,VWS V14.01,2013-02-19 08:54:00,
2013-02-19 02:55:00,2.2,-3.6,29.79,WNW,286,5.0,19.0,76,0.00,,BKN130,0.00,VWS V14.01,2013-02-19 08:55:00,
2013-02-19 02:56:00,2.2,-3.6,29.79,West,270,7.0,19.0,76,0.00,,BKN130,0.00,VWS V14.01,2013-02-19 08:56:00,
2013-02-19 02:57:00,2.2,-3.6,29.79,WNW,283,7.0,19.0,76,0.00,,BKN130,0.00,VWS V14.01,2013-02-19 08:57:00,
2013-02-19 02:58:00,2.2,-3.6,29.79,West,281,7.0,19.0,76,0.00,,BKN130,0.00,VWS V14.01,2013-02-19 08:58:00,
2013-02-19 02:59:00,2.2,-3.6,29.79,West,277,12.0,19.0,76,0.00,,BKN130,0.00,VWS V14.01,2013-02-19 08:59:00,
2013-02-19 03:00:00,2.2,-3.6,29.79,West,280,12.0,19.0,76,0.00,,BKN130,0.00,VWS V14.01,2013-02-19 09:00:00,
2013-02-19 03:01:00,2.2,-3.6,29.79,West,270,5.0,17.0,76,0.00,,BKN130,0.00,VWS V14.01,2013-02-19 09:01:00,
2013-02-19 03:02:00,2.4,-3.4,29.79,WNW,290,0.0,17.0,76,0.00,,BKN130,0.00,VWS V14.01,2013-02-19 09:02:00,
2013-02-19 03:03:00,2.4,-3.4,29.79,WNW,294,3.0,17.0,76,0.00,,BKN130,0.00,VWS V14.01,2013-02-19 09:03:00,
2013-02-19 03:04:00,2.4,-3.4,29.79,WNW,286,10.0,17.0,76,0.00,,BKN130,0.00,VWS V14.01,2013-02-19 09:04:00,
2013-02-19 03:05:00,2.4,-3.4,29.79,NW,304,5.0,17.0,76,0.00,,BKN130,0.00,VWS V14.01,2013-02-19 09:05:00,
2013-02-19 03:06:00,2.4,-3.4,29.79,WNW,297,7.0,17.0,76,0.00,,BKN130,0.00,VWS V14.01,2013-02-19 09:06:00,
2013-02-19 03:07:00,2.4,-3.4,29.79,WNW,293,5.0,17.0,76,0.00,,BKN130,0.00,VWS V14.01,2013-02-19 09:07:00,
2013-02-19 03:08:00,2.4,-3.4,29.79,WNW,298,6.0,17.0,76,0.00,,BKN130,0.00,VWS V14.01,2013-02-19 09:08:00,
2013-02-19 03:09:00,2.4,-3.7,29.79,WNW,301,12.0,19.0,75,0.00,,BKN130,0.00,VWS V14.01,2013-02-19 09:09:00,
2013-02-19 03:10:00,2.4,-3.7,29.79,West,270,5.0,19.0,75,0.00,,BKN130,0.00,VWS V14.01,2013-02-19 09:10:00,
2013-02-19 03:11:00,2.4,-3.7,29.79,West,280,10.0,19.0,75,0.00,,BKN130,0.00,VWS V14.01,2013-02-19 09:11:00,
2013-02-19 03:12:00,2.4,-3.7,29.79,WNW,295,6.0,19.0,75,0.00,,BKN130,0.00,VWS V14.01,2013-02-19 09:12:00,
2013-02-19 03:13:00,2.4,-3.7,29.79,WNW,288,3.0,19.0,75,0.00,,BKN130,0.00,VWS V14.01,2013-02-19 09:13:00,
2013-02-19 03:14:00,2.4,-3.7,29.79,WNW,291,3.0,19.0,75,0.00,,BKN130,0.00,VWS V14.01,2013-02-19 09:14:00,
2013-02-19 03:15:00,2.6,-3.5,29.80,WNW,294,4.0,19.0,75,0.00,,BKN130,0.00,VWS V14.01,2013-02-19 09:15:00,
2013-02-19 03:16:00,2.6,-3.5,29.80,NW,310,5.0,19.0,75,0.00,,BKN130,0.00,VWS V14.01,2013-02-19 09:16:00,
2013-02-19 03:17:00,2.6,-3.5,29.80,NW,314,10.0,19.0,75,0.00,,BKN130,0.00,VWS V14.01,2013-02-19 09:17:00,
2013-02-19 03:18:00,2.6,-3.5,29.80,WNW,290,12.0,19.0,75,0.00,,BKN130,0.00,VWS V14.01,2013-02-19 09:18:00,
2013-02-19 03:19:00,2.6,-3.5,29.80,West,270,1.0,19.0,75,0.00,,BKN130,0.00,VWS V14.01,2013-02-19 09:19:00,
2013-02-19 03:20:00,2.6,-3.5,29.80,NNW,342,7.0,19.0,75,0.00,,BKN130,0.00,VWS V14.01,2013-02-19 09:20:00,
2013-02-19 03:21:00,2.6,-3.5,29.80,WNW,283,7.0,19.0,75,0.00,,BKN130,0.00,VWS V14.01,2013-02-19 09:21:00,
2013-02-19 03:22:00,2.6,-3.5,29.80,West,277,4.0,19.0,75,0.00,,BKN130,0.00,VWS V14.01,2013-02-19 09:22:00,
2013-02-19 03:23:00,2.6,-3.5,29.80,West,280,6.0,19.0,75,0.00,,BKN130,0.00,VWS V14.01,2013-02-19 09:23:00,
2013-02-19 03:24:00,2.6,-3.5,29.80,WNW,302,16.0,19.0,75,0.00,,BKN130,0.00,VWS V14.01,2013-02-19 09:24:00,
2013-02-19 03:25:00,2.6,-3.5,29.80,WNW,295,11.0,19.0,75,0.00,,BKN130,0.00,VWS V14.01,2013-02-19 09:25:00,
2013-02-19 03:26:00,2.8,-3.3,29.80,West,278,11.0,19.0,75,0.00,,BKN130,0.00,VWS V14.01,2013-02-19 09:26:00,
2013-02-19 03:27:00,2.8,-3.3,29.80,NW,310,17.0,19.0,75,0.00,,BKN130,0.00,VWS V14.01,2013-02-19 09:27:00,
2013-02-19 03:28:00,2.8,-3.6,29.80,NW,312,5.0,19.0,74,0.00,,BKN130,0.00,VWS V14.01,2013-02-19 09:28:00,
2013-02-19 03:29:00,2.8,-3.6,29.80,West,269,4.0,19.0,74,0.00,,BKN140,0.00,VWS V14.01,2013-02-19 09:29:00,
2013-02-19 03:30:00,2.8,-3.6,29.81,West,276,10.0,19.0,74,0.00,,BKN140,0.00,VWS V14.01,2013-02-19 09:30:00,
2013-02-19 03:31:00,2.8,-3.6,29.81,WNW,288,1.0,14.0,74,0.00,,BKN140,0.00,VWS V14.01,2013-02-19 09:31:00,
2013-02-19 03:32:00,2.8,-3.3,29.81,West,274,16.0,16.0,75,0.00,,BKN140,0.00,VWS V14.01,2013-02-19 09:32:00,
2013-02-19 03:33:00,2.8,-3.6,29.81,NW,317,8.0,17.0,74,0.00,,BKN140,0.00,VWS V14.01,2013-02-19 09:33:00,
2013-02-19 03:34:00,2.8,-3.3,29.81,West,274,4.0,17.0,75,0.00,,BKN140,0.00,VWS V14.01,2013-02-19 09:34:00,
2013-02-19 03:35:00,2.8,-3.3,29.81,NW,308,16.0,17.0,75,0.00,,BKN140,0.00,VWS V14.01,2013-02-19 09:35:00,
2013-02-19 03:36:00,2.8,-3.6,29.81,WNW,290,1.0,17.0,74,0.00,,BKN140,0.00,VWS V14.01,2013-02-19 09:36:00,
2013-02-19 03:37:00,2.8,-3.6,29.81,WNW,297,2.0,17.0,74,0.00,,BKN140,0.00,VWS V14.01,2013-02-19 09:37:00,
2013-02-19 03:38:00,2.8,-3.3,29.81,NNW,342,5.0,17.0,75,0.00,,BKN140,0.00,VWS V14.01,2013-02-19 09:38:00,
2013-02-19 03:39:00,2.8,-3.3,29.81,NW,308,12.0,18.0,75,0.00,,BKN140,0.00,VWS V14.01,2013-02-19 09:39:00,
2013-02-19 03:40:00,2.8,-3.6,29.81,WNW,287,7.0,18.0,74,0.00,,BKN140,0.00,VWS V14.01,2013-02-19 09:40:00,
2013-02-19 03:41:00,2.8,-3.6,29.81,WNW,290,3.0,18.0,74,0.00,,BKN140,0.00,VWS V14.01,2013-02-19 09:41:00,
2013-02-19 03:42:00,2.8,-3.6,29.81,NW,314,4.0,18.0,74,0.00,,BKN140,0.00,VWS V14.01,2013-02-19 09:42:00,
2013-02-19 03:43:00,2.8,-3.6,29.81,West,278,12.0,18.0,74,0.00,,BKN140,0.00,VWS V14.01,2013-02-19 09:43:00,
2013-02-19 03:44:00,3.0,-3.4,29.81,WNW,286,5.0,18.0,74,0.00,,BKN140,0.00,VWS V14.01,2013-02-19 09:44:00,
2013-02-19 03:45:00,3.0,-3.4,29.81,WNW,294,7.0,18.0,74,0.00,,BKN140,0.00,VWS V14.01,2013-02-19 09:45:00,
2013-02-19 03:46:00,3.0,-3.4,29.81,WNW,300,6.0,18.0,74,0.00,,BKN140,0.00,VWS V14.01,2013-02-19 09:46:00,
2013-02-19 03:47:00,3.0,-3.4,29.81,WNW,286,11.0,18.0,74,0.00,,BKN140,0.00,VWS V14.01,2013-02-19 09:47:00,
2013-02-19 03:48:00,3.0,-3.4,29.81,NW,304,1.0,18.0,74,0.00,,BKN140,0.00,VWS V14.01,2013-02-19 09:48:00,
2013-02-19 03:49:00,3.0,-3.4,29.81,WNW,294,17.0,18.0,74,0.00,,BKN140,0.00,VWS V14.01,2013-02-19 09:49:00,
2013-02-19 03:50:00,3.0,-3.4,29.81,WNW,301,12.0,18.0,74,0.00,,BKN140,0.00,VWS V14.01,2013-02-19 09:50:00,
2013-02-19 03:51:00,3.0,-3.4,29.81,West,269,1.0,20.0,74,0.00,,BKN140,0.00,VWS V14.01,2013-02-19 09:51:00,
2013-02-19 03:52:00,3.0,-3.4,29.81,WNW,294,5.0,20.0,74,0.00,,BKN140,0.00,VWS V14.01,2013-02-19 09:52:00,
2013-02-19 03:53:00,3.0,-3.4,29.81,WNW,283,2.0,20.0,74,0.00,,BKN140,0.00,VWS V14.01,2013-02-19 09:53:00,
2013-02-19 03:54:00,3.0,-3.4,29.81,WNW,286,11.0,20.0,74,0.00,,BKN140,0.00,VWS V14.01,2013-02-19 09:54:00,
2013-02-19 03:55:00,3.0,-3.4,29.81,West,281,2.0,20.0,74,0.00,,BKN140,0.00,VWS V14.01,2013-02-19 09:55:00,
2013-02-19 03:56:00,3.0,-3.4,29.81,NW,324,5.0,20.0,74,0.00,,BKN140,0.00,VWS V14.01,2013-02-19 09:56:00,
2013-02-19 03:57:00,3.0,-3.4,29.81,NW,304,12.0,20.0,74,0.00,,BKN140,0.00,VWS V14.01,2013-02-19 09:57:00,
2013-02-19 03:58:00,3.0,-3.4,29.81,WNW,301,10.0,20.0,74,0.00,,BKN140,0.00,VWS V14.01,2013-02-19 09:58:00,
2013-02-19 03:59:00,3.0,-3.4,29.81,WNW,297,6.0,20.0,74,0.00,,BKN130,0.00,VWS V14.01,2013-02-19 09:59:00,
2013-02-19 04:00:00,3.0,-3.7,29.82,West,281,2.0,20.0,73,0.00,,BKN130,0.00,VWS V14.01,2013-02-19 10:00:00,
2013-02-19 04:01:00,3.0,-3.7,29.82,WNW,295,1.0,13.0,73,0.00,,BKN130,0.00,VWS V14.01,2013-02-19 10:01:00,
2013-02-19 04:02:00,3.0,-3.7,29.82,West,266,1.0,15.0,73,0.00,,BKN130,0.00,VWS V14.01,2013-02-19 10:02:00,
2013-02-19 04:03:00,3.0,-3.7,29.82,WNW,301,10.0,15.0,73,0.00,,BKN130,0.00,VWS V14.01,2013-02-19 10:03:00,
2013-02-19 04:04:00,3.0,-3.7,29.82,WNW,284,5.0,17.0,73,0.00,,BKN130,0.00,VWS V14.01,2013-02-19 10:04:00,
2013-02-19 04:05:00,3.0,-3.7,29.82,WNW,298,10.0,17.0,73,0.00,,BKN130,0.00,VWS V14.01,2013-02-19 10:05:00,
2013-02-19 04:06:00,3.0,-3.7,29.82,West,280,6.0,17.0,73,0.00,,BKN130,0.00,VWS V14.01,2013-02-19 10:06:00,
2013-02-19 04:07:00,3.0,-3.7,29.82,WNW,293,11.0,17.0,73,0.00,,BKN130,0.00,VWS V14.01,2013-02-19 10:07:00,
2013-02-19 04:08:00,3.0,-3.7,29.82,WNW,284,5.0,17.0,73,0.00,,BKN130,0.00,VWS V14.01,2013-02-19 10:08:00,
2013-02-19 04:09:00,3.0,-3.7,29.82,West,270,5.0,17.0,73,0.00,,BKN130,0.00,VWS V14.01,2013-02-19 10:09:00,
2013-02-19 04:10:00,3.0,-3.7,29.82,West,273,2.0,17.0,73,0.00,,BKN130,0.00,VWS V14.01,2013-02-19 10:10:00,
2013-02-19 04:11:00,3.0,-3.7,29.82,WNW,300,10.0,17.0,73,0.00,,BKN130,0.00,VWS V14.01,2013-02-19 10:11:00,
2013-02-19 04:12:00,3.0,-3.7,29.82,West,281,7.0,17.0,73,0.00,,BKN130,0.00,VWS V14.01,2013-02-19 10:12:00,
2013-02-19 04:13:00,3.0,-3.7,29.82,WNW,287,13.0,17.0,73,0.00,,BKN130,0.00,VWS V14.01,2013-02-19 10:13:00,
2013-02-19 04:14:00,3.0,-3.7,29.82,WNW,300,6.0,17.0,73,0.00,,BKN130,0.00,VWS V14.01,2013-02-19 10:14:00,
2013-02-19 04:15:00,3.0,-3.7,29.83,WNW,293,5.0,17.0,73,0.00,,BKN130,0.00,VWS V14.01,2013-02-19 10:15:00,
2013-02-19 04:16:00,3.0,-3.7,29.83,West,271,4.0,17.0,73,0.00,,BKN130,0.00,VWS V14.01,2013-02-19 10:16:00,
2013-02-19 04:17:00,3.0,-4.0,29.83,NW,321,5.0,17.0,72,0.00,,BKN130,0.00,VWS V14.01,2013-02-19 10:17:00,
2013-02-19 04:18:00,3.0,-4.0,29.83,WNW,291,0.0,19.0,72,0.00,,BKN130,0.00,VWS V14.01,2013-02-19 10:18:00,
2013-02-19 04:19:00,3.0,-4.0,29.83,West,278,7.0,19.0,72,0.00,,BKN130,0.00,VWS V14.01,2013-02-19 10:19:00,
2013-02-19 04:20:00,3.0,-3.7,29.83,West,277,6.0,19.0,73,0.00,,BKN130,0.00,VWS V14.01,2013-02-19 10:20:00,
2013-02-19 04:21:00,3.0,-3.7,29.83,West,270,0.0,19.0,73,0.00,,BKN130,0.00,VWS V14.01,2013-02-19 10:21:00,
2013-02-19 04:22:00,3.0,-4.0,29.83,NW,310,12.0,19.0,72,0.00,,BKN130,0.00,VWS V14.01,2013-02-19 10:22:00,
2013-02-19 04:23:00,3.0,-4.0,29.83,West,270,10.0,19.0,72,0.00,,BKN130,0.00,VWS V14.01,2013-02-19 10:23:00,
2013-02-19 04:24:00,3.0,-4.0,29.83,WNW,286,6.0,19.0,72,0.00,,BKN130,0.00,VWS V14.01,2013-02-19 10:24:00,
2013-02-19 04:25:00,3.0,-4.0,29.83,WNW,293,3.0,19.0,72,0.00,,BKN130,0.00,VWS V14.01,2013-02-19 10:25:00,
2013-02-19 04:26:00,3.0,-4.0,29.83,West,274,5.0,19.0,72,0.00,,BKN130,0.00,VWS V14.01,2013-02-19 10:26:00,
2013-02-19 04:27:00,3.0,-4.0,29.83,WNW,288,3.0,19.0,72,0.00,,BKN130,0.00,VWS V14.01,2013-02-19 10:27:00,
2013-02-19 04:28:00,3.0,-4.0,29.83,WNW,286,11.0,19.0,72,0.00,,BKN130,0.00,VWS V14.01,2013-02-19 10:28:00,
2013-02-19 04:29:00,3.0,-4.0,29.83,West,276,10.0,19.0,72,0.00,,BKN130,0.00,VWS V14.01,2013-02-19 10:29:00,
2013-02-19 04:30:00,3.0,-4.0,29.83,NW,310,1.0,19.0,72,0.00,,BKN130,0.00,VWS V14.01,2013-02-19 10:30:00,
2013-02-19 04:31:00,3.0,-4.0,29.83,WNW,293,7.0,9.0,72,0.00,,BKN130,0.00,VWS V14.01,2013-02-19 10:31:00,
2013-02-19 04:32:00,3.0,-4.0,29.83,WNW,293,6.0,12.0,72,0.00,,BKN130,0.00,VWS V14.01,2013-02-19 10:32:00,
2013-02-19 04:33:00,3.0,-4.0,29.83,WNW,297,5.0,12.0,72,0.00,,BKN130,0.00,VWS V14.01,2013-02-19 10:33:00,
2013-02-19 04:34:00,3.0,-4.0,29.83,WNW,284,5.0,12.0,72,0.00,,BKN130,0.00,VWS V14.01,2013-02-19 10:34:00,
2013-02-19 04:35:00,3.0,-4.0,29.83,WNW,290,11.0,12.0,72,0.00,,BKN130,0.00,VWS V14.01,2013-02-19 10:35:00,
2013-02-19 04:36:00,3.0,-4.0,29.83,WNW,291,10.0,18.0,72,0.00,,BKN130,0.00,VWS V14.01,2013-02-19 10:36:00,
2013-02-19 04:37:00,3.0,-4.0,29.83,WNW,294,2.0,18.0,72,0.00,,BKN130,0.00,VWS V14.01,2013-02-19 10:37:00,
2013-02-19 04:38:00,2.8,-4.2,29.83,WNW,298,8.0,18.0,72,0.00,,BKN130,0.00,VWS V14.01,2013-02-19 10:38:00,
2013-02-19 04:39:00,2.8,-4.2,29.83,WNW,283,6.0,18.0,72,0.00,,BKN130,0.00,VWS V14.01,2013-02-19 10:39:00,
2013-02-19 04:40:00,2.8,-4.2,29.83,NW,308,7.0,18.0,72,0.00,,BKN130,0.00,VWS V14.01,2013-02-19 10:40:00,
2013-02-19 04:41:00,2.8,-4.2,29.83,WNW,290,11.0,18.0,72,0.00,,BKN130,0.00,VWS V14.01,2013-02-19 10:41:00,
2013-02-19 04:42:00,2.8,-4.2,29.83,NW,307,7.0,18.0,72,0.00,,BKN130,0.00,VWS V14.01,2013-02-19 10:42:00,
2013-02-19 04:43:00,2.8,-4.2,29.83,West,266,6.0,18.0,72,0.00,,BKN130,0.00,VWS V14.01,2013-02-19 10:43:00,
2013-02-19 04:44:00,2.8,-4.2,29.83,WNW,302,14.0,18.0,72,0.00,,BKN130,0.00,VWS V14.01,2013-02-19 10:44:00,
2013-02-19 04:45:00,2.8,-4.2,29.83,WNW,283,6.0,18.0,72,0.00,,BKN130,0.00,VWS V14.01,2013-02-19 10:45:00,
2013-02-19 04:46:00,2.8,-4.2,29.83,WNW,301,13.0,18.0,72,0.00,,BKN130,0.00,VWS V14.01,2013-02-19 10:46:00,
2013-02-19 04:47:00,2.8,-4.2,29.83,West,270,1.0,18.0,72,0.00,,BKN130,0.00,VWS V14.01,2013-02-19 10:47:00,
2013-02-19 04:48:00,2.8,-4.2,29.83,WNW,287,6.0,18.0,72,0.00,,BKN130,0.00,VWS V14.01,2013-02-19 10:48:00,
2013-02-19 04:49:00,2.8,-4.2,29.83,NW,310,16.0,18.0,72,0.00,,BKN130,0.00,VWS V14.01,2013-02-19 10:49:00,
2013-02-19 04:50:00,2.8,-4.4,29.83,WNW,295,9.0,21.0,71,0.00,,BKN130,0.00,VWS V14.01,2013-02-19 10:50:00,
2013-02-19 04:51:00,2.8,-4.4,29.83,NW,308,6.0,21.0,71,0.00,,BKN130,0.00,VWS V14.01,2013-02-19 10:51:00,
2013-02-19 04:52:00,2.8,-4.4,29.83,NW,324,13.0,21.0,71,0.00,,BKN130,0.00,VWS V14.01,2013-02-19 10:52:00,
2013-02-19 04:53:00,2.8,-4.2,29.83,WNW,284,8.0,21.0,72,0.00,,BKN130,0.00,VWS V14.01,2013-02-19 10:53:00,
2013-02-19 04:54:00,2.8,-4.2,29.83,NW,310,7.0,21.0,72,0.00,,BKN130,0.00,VWS V14.01,2013-02-19 10:54:00,
2013-02-19 04:55:00,2.8,-4.4,29.83,WNW,287,0.0,21.0,71,0.00,,BKN130,0.00,VWS V14.01,2013-02-19 10:55:00,
2013-02-19 04:56:00,2.8,-4.2,29.83,NW,311,14.0,21.0,72,0.00,,BKN130,0.00,VWS V14.01,2013-02-19 10:56:00,
2013-02-19 04:57:00,2.8,-4.4,29.83,NW,310,5.0,21.0,71,0.00,,BKN130,0.00,VWS V14.01,2013-02-19 10:57:00,
2013-02-19 04:58:00,2.8,-4.4,29.83,WNW,284,6.0,21.0,71,0.00,,BKN130,0.00,VWS V14.01,2013-02-19 10:58:00,
2013-02-19 04:59:00,2.8,-4.4,29.83,NW,304,6.0,21.0,71,0.00,,BKN130,0.00,VWS V14.01,2013-02-19 10:59:00,
2013-02-19 05:00:00,2.8,-4.4,29.84,NW,315,17.0,21.0,71,0.00,,BKN130,0.00,VWS V14.01,2013-02-19 11:00:00,
2013-02-19 05:01:00,2.8,-4.4,29.84,WNW,286,7.0,17.0,71,0.00,,BKN130,0.00,VWS V14.01,2013-02-19 11:01:00,
2013-02-19 05:02:00,2.8,-4.4,29.84,NW,321,17.0,17.0,71,0.00,,BKN130,0.00,VWS V14.01,2013-02-19 11:02:00,
2013-02-19 05:03:00,2.8,-4.4,29.84,NW,325,13.0,17.0,71,0.00,,BKN130,0.00,VWS V14.01,2013-02-19 11:03:00,
2013-02-19 05:04:00,2.8,-4.4,29.84,West,281,7.0,17.0,71,0.00,,BKN130,0.00,VWS V14.01,2013-02-19 11:04:00,
2013-02-19 05:05:00,2.8,-4.8,29.84,NW,319,0.0,20.0,70,0.00,,BKN130,0.00,VWS V14.01,2013-02-19 11:05:00,
2013-02-19 05:06:00,2.8,-4.8,29.84,WNW,293,7.0,20.0,70,0.00,,BKN130,0.00,VWS V14.01,2013-02-19 11:06:00,
2013-02-19 05:07:00,2.8,-4.8,29.84,WNW,298,2.0,20.0,70,0.00,,BKN130,0.00,VWS V14.01,2013-02-19 11:07:00,
2013-02-19 05:08:00,2.8,-4.8,29.84,WNW,298,8.0,20.0,70,0.00,,BKN130,0.00,VWS V14.01,2013-02-19 11:08:00,
2013-02-19 05:09:00,2.8,-4.8,29.84,West,273,6.0,20.0,70,0.00,,BKN130,0.00,VWS V14.01,2013-02-19 11:09:00,
2013-02-19 05:10:00,2.8,-4.8,29.84,WNW,295,6.0,20.0,70,0.00,,BKN130,0.00,VWS V14.01,2013-02-19 11:10:00,
2013-02-19 05:11:00,2.8,-4.8,29.84,WNW,286,10.0,20.0,70,0.00,,BKN130,0.00,VWS V14.01,2013-02-19 11:11:00,
2013-02-19 05:12:00,2.8,-4.8,29.84,NW,305,12.0,20.0,70,0.00,,BKN130,0.00,VWS V14.01,2013-02-19 11:12:00,
2013-02-19 05:13:00,2.8,-4.8,29.84,WNW,295,5.0,20.0,70,0.00,,BKN130,0.00,VWS V14.01,2013-02-19 11:13:00,
2013-02-19 05:14:00,2.8,-4.8,29.84,West,280,3.0,20.0,70,0.00,,BKN130,0.00,VWS V14.01,2013-02-19 11:14:00,
2013-02-19 05:15:00,2.8,-4.8,29.85,WNW,294,10.0,20.0,70,0.00,,BKN130,0.00,VWS V14.01,2013-02-19 11:15:00,
2013-02-19 05:16:00,2.8,-4.8,29.85,NW,310,12.0,20.0,70,0.00,,BKN130,0.00,VWS V14.01,2013-02-19 11:16:00,
2013-02-19 05:17:00,2.8,-4.8,29.85,NW,310,13.0,20.0,70,0.00,,BKN130,0.00,VWS V14.01,2013-02-19 11:17:00,
2013-02-19 05:18:00,2.8,-4.8,29.85,NW,318,5.0,20.0,70,0.00,,BKN130,0.00,VWS V14.01,2013-02-19 11:18:00,
2013-02-19 05:19:00,2.8,-4.8,29.85,NW,304,11.0,20.0,70,0.00,,BKN130,0.00,VWS V14.01,2013-02-19 11:19:00,
2013-02-19 05:20:00,2.8,-4.8,29.85,NW,319,1.0,20.0,70,0.00,,BKN130,0.00,VWS V14.01,2013-02-19 11:20:00,
2013-02-19 05:21:00,2.8,-4.8,29.85,WNW,283,7.0,20.0,70,0.00,,BKN130,0.00,VWS V14.01,2013-02-19 11:21:00,
2013-02-19 05:22:00,2.8,-4.8,29.85,NW,304,1.0,20.0,70,0.00,,BKN130,0.00,VWS V14.01,2013-02-19 11:22:00,
2013-02-19 05:23:00,2.6,-4.9,29.85,NNW,331,6.0,20.0,70,0.00,,BKN130,0.00,VWS V14.01,2013-02-19 11:23:00,
2013-02-19 05:24:00,2.6,-4.9,29.85,NW,322,11.0,20.0,70,0.00,,BKN130,0.00,VWS V14.01,2013-02-19 11:24:00,
2013-02-19 05:25:00,2.6,-4.9,29.85,NW,326,17.0,20.0,70,0.00,,BKN130,0.00,VWS V14.01,2013-02-19 11:25:00,
2013-02-19 05:26:00,2.6,-4.9,29.85,NW,304,5.0,20.0,70,0.00,,BKN130,0.00,VWS V14.01,2013-02-19 11:26:00,
2013-02-19 05:27:00,2.6,-5.2,29.85,WNW,302,16.0,20.0,69,0.00,,BKN130,0.00,VWS V14.01,2013-02-19 11:27:00,
2013-02-19 05:28:00,2.6,-5.2,29.85,NW,322,13.0,20.0,69,0.00,,BKN130,0.00,VWS V14.01,2013-02-19 11:28:00,
2013-02-19 05:29:00,2.6,-5.2,29.85,WNW,294,16.0,20.0,69,0.00,,OVC025,0.00,VWS V14.01,2013-02-19 11:29:00,
2013-02-19 05:30:00,2.6,-5.2,29.85,NW,304,10.0,20.0,69,0.00,,OVC025,0.00,VWS V14.01,2013-02-19 11:30:00,
2013-02-19 05:31:00,2.6,-5.2,29.85,NW,310,3.0,13.0,69,0.00,,OVC025,0.00,VWS V14.01,2013-02-19 11:31:00,
2013-02-19 05:32:00,2.6,-5.2,29.85,WNW,298,9.0,13.0,69,0.00,,OVC025,0.00,VWS V14.01,2013-02-19 11:32:00,
2013-02-19 05:33:00,2.6,-5.2,29.85,West,270,1.0,13.0,69,0.00,,OVC025,0.00,VWS V14.01,2013-02-19 11:33:00,
2013-02-19 05:34:00,2.6,-5.2,29.85,WNW,298,11.0,13.0,69,0.00,,OVC025,0.00,VWS V14.01,2013-02-19 11:34:00,
2013-02-19 05:35:00,2.6,-5.2,29.85,NW,317,5.0,17.0,69,0.00,,OVC025,0.00,VWS V14.01,2013-02-19 11:35:00,
2013-02-19 05:36:00,2.6,-5.2,29.85,West,281,12.0,17.0,69,0.00,,OVC025,0.00,VWS V14.01,2013-02-19 11:36:00,
2013-02-19 05:37:00,2.6,-4.9,29.85,NNW,338,17.0,21.0,70,0.00,,OVC025,0.00,VWS V14.01,2013-02-19 11:37:00,
2013-02-19 05:38:00,2.6,-5.2,29.85,NW,312,9.0,21.0,69,0.00,,OVC025,0.00,VWS V14.01,2013-02-19 11:38:00,
2013-02-19 05:39:00,2.6,-5.2,29.85,WNW,293,5.0,21.0,69,0.00,,OVC025,0.00,VWS V14.01,2013-02-19 11:39:00,
2013-02-19 05:40:00,2.4,-5.4,29.85,WNW,284,2.0,21.0,69,0.00,,OVC025,0.00,VWS V14.01,2013-02-19 11:40:00,
2013-02-19 05:41:00,2.4,-5.4,29.85,West,270,7.0,21.0,69,0.00,,OVC025,0.00,VWS V14.01,2013-02-19 11:41:00,
2013-02-19 05:42:00,2.4,-5.1,29.85,WNW,287,6.0,21.0,70,0.00,,OVC025,0.00,VWS V14.01,2013-02-19 11:42:00,
2013-02-19 05:43:00,2.4,-5.1,29.85,NW,321,10.0,21.0,70,0.00,,OVC025,0.00,VWS V14.01,2013-02-19 11:43:00,
2013-02-19 05:44:00,2.4,-5.4,29.85,NNW,339,6.0,21.0,69,0.00,,OVC025,0.00,VWS V14.01,2013-02-19 11:44:00,
2013-02-19 05:45:00,2.4,-5.4,29.87,NW,304,11.0,21.0,69,0.00,,OVC025,0.00,VWS V14.01,2013-02-19 11:45:00,
2013-02-19 05:46:00,2.4,-5.4,29.87,WNW,295,2.0,21.0,69,0.00,,OVC025,0.00,VWS V14.01,2013-02-19 11:46:00,
2013-02-19 05:47:00,2.4,-5.4,29.87,WNW,300,7.0,21.0,69,0.00,,OVC025,0.00,VWS V14.01,2013-02-19 11:47:00,
2013-02-19 05:48:00,2.4,-5.1,29.87,West,270,8.0,21.0,70,0.00,,OVC025,0.00,VWS V14.01,2013-02-19 11:48:00,
2013-02-19 05:49:00,2.2,-5.3,29.87,NW,307,11.0,21.0,70,0.00,,OVC025,0.00,VWS V14.01,2013-02-19 11:49:00,
2013-02-19 05:50:00,2.2,-5.3,29.87,WNW,283,5.0,21.0,70,0.00,,OVC025,0.00,VWS V14.01,2013-02-19 11:50:00,
2013-02-19 05:51:00,2.2,-5.3,29.87,WNW,293,2.0,21.0,70,0.00,,OVC025,0.00,VWS V14.01,2013-02-19 11:51:00,
2013-02-19 05:52:00,2.2,-5.3,29.87,West,280,6.0,21.0,70,0.00,,OVC025,0.00,VWS V14.01,2013-02-19 11:52:00,
2013-02-19 05:53:00,2.2,-5.3,29.87,WNW,283,2.0,21.0,70,0.00,,OVC025,0.00,VWS V14.01,2013-02-19 11:53:00,
2013-02-19 05:54:00,2.2,-5.3,29.87,West,278,3.0,21.0,70,0.00,,OVC025,0.00,VWS V14.01,2013-02-19 11:54:00,
2013-02-19 05:55:00,2.0,-5.5,29.87,West,277,2.0,21.0,70,0.00,,OVC025,0.00,VWS V14.01,2013-02-19 11:55:00,
2013-02-19 05:56:00,2.0,-5.5,29.87,NW,304,4.0,21.0,70,0.00,,OVC025,0.00,VWS V14.01,2013-02-19 11:56:00,
2013-02-19 05:57:00,2.0,-5.5,29.87,West,281,5.0,21.0,70,0.00,,OVC025,0.00,VWS V14.01,2013-02-19 11:57:00,
2013-02-19 05:58:00,2.0,-5.5,29.87,WNW,293,5.0,21.0,70,0.00,,OVC025,0.00,VWS V14.01,2013-02-19 11:58:00,
2013-02-19 05:59:00,2.0,-5.5,29.87,West,280,1.0,21.0,70,0.00,,OVC025,0.00,VWS V14.01,2013-02-19 11:59:00,
2013-02-19 06:00:00,1.8,-5.7,29.87,WNW,300,6.0,21.0,70,0.00,,OVC025,0.00,VWS V14.01,2013-02-19 12:00:00,
2013-02-19 06:01:00,1.8,-5.7,29.87,West,267,1.0,8.0,70,0.00,,OVC025,0.00,VWS V14.01,2013-02-19 12:01:00,
2013-02-19 06:02:00,1.8,-5.7,29.87,WNW,284,5.0,17.0,70,0.00,,OVC025,0.00,VWS V14.01,2013-02-19 12:02:00,
2013-02-19 06:03:00,1.5,-6.0,29.87,WNW,293,1.0,17.0,70,0.00,,OVC025,0.00,VWS V14.01,2013-02-19 12:03:00,
2013-02-19 06:04:00,1.5,-6.0,29.87,West,276,7.0,17.0,70,0.00,,OVC025,0.00,VWS V14.01,2013-02-19 12:04:00,
2013-02-19 06:05:00,1.3,-6.2,29.87,WNW,300,0.0,17.0,70,0.00,,OVC025,0.00,VWS V14.01,2013-02-19 12:05:00,
2013-02-19 06:06:00,1.1,-6.4,29.87,WNW,291,6.0,17.0,70,0.00,,OVC025,0.00,VWS V14.01,2013-02-19 12:06:00,
2013-02-19 06:07:00,0.9,-6.3,29.87,West,277,6.0,17.0,71,0.00,,OVC025,0.00,VWS V14.01,2013-02-19 12:07:00,
2013-02-19 06:08:00,0.7,-6.5,29.87,West,271,1.0,17.0,71,0.00,,OVC025,0.00,VWS V14.01,2013-02-19 12:08:00,
2013-02-19 06:09:00,0.5,-6.7,29.87,West,281,3.0,17.0,71,0.00,,OVC025,0.00,VWS V14.01,2013-02-19 12:09:00,
2013-02-19 06:10:00,0.3,-6.9,29.87,WNW,298,5.0,17.0,71,0.00,,OVC025,0.00,VWS V14.01,2013-02-19 12:10:00,
2013-02-19 06:11:00,0.3,-6.9,29.87,West,276,1.0,17.0,71,0.00,,OVC025,0.00,VWS V14.01,2013-02-19 12:11:00,
2013-02-19 06:12:00,0.1,-6.8,29.87,WNW,294,2.0,17.0,72,0.00,,OVC025,0.00,VWS V14.01,2013-02-19 12:12:00,
2013-02-19 06:13:00,0.1,-6.8,29.87,WNW,284,6.0,17.0,72,0.00,,OVC025,0.00,VWS V14.01,2013-02-19 12:13:00,
2013-02-19 06:14:00,0.1,-6.8,29.87,NW,314,1.0,17.0,72,0.00,,OVC025,0.00,VWS V14.01,2013-02-19 12:14:00,
2013-02-19 06:15:00,0.1,-6.9,29.89,West,266,6.0,17.0,72,0.00,,OVC025,0.00,VWS V14.01,2013-02-19 12:15:00,
2013-02-19 06:16:00,0.1,-6.9,29.89,West,270,6.0,17.0,72,0.00,,OVC025,0.00,VWS V14.01,2013-02-19 12:16:00,
2013-02-19 06:17:00,0.1,-6.9,29.89,West,270,6.0,17.0,72,0.00,,OVC025,0.00,VWS V14.01,2013-02-19 12:17:00,
2013-02-19 06:18:00,0.1,-6.9,29.89,NW,307,3.0,17.0,72,0.00,,OVC025,0.00,VWS V14.01,2013-02-19 12:18:00,
2013-02-19 06:19:00,-0.2,-7.1,29.89,NW,318,13.0,17.0,72,0.00,,OVC025,0.00,VWS V14.01,2013-02-19 12:19:00,
2013-02-19 06:20:00,-0.2,-7.1,29.89,WNW,284,1.0,17.0,72,0.00,,OVC025,0.00,VWS V14.01,2013-02-19 12:20:00,
2013-02-19 06:21:00,-0.2,-7.1,29.89,West,270,6.0,17.0,72,0.00,,OVC025,0.00,VWS V14.01,2013-02-19 12:21:00,
2013-02-19 06:22:00,-0.2,-7.1,29.89,West,273,10.0,17.0,72,0.00,,OVC025,0.00,VWS V14.01,2013-02-19 12:22:00,
2013-02-19 06:23:00,-0.2,-7.1,29.89,NW,304,6.0,17.0,72,0.00,,OVC025,0.00,VWS V14.01,2013-02-19 12:23:00,
2013-02-19 06:24:00,-0.2,-7.1,29.89,West,278,8.0,17.0,72,0.00,,OVC025,0.00,VWS V14.01,2013-02-19 12:24:00,
2013-02-19 06:25:00,-0.2,-7.1,29.89,WNW,291,0.0,17.0,72,0.00,,OVC025,0.00,VWS V14.01,2013-02-19 12:25:00,
2013-02-19 06:26:00,-0.4,-7.2,29.89,West,280,4.0,17.0,72,0.00,,OVC025,0.00,VWS V14.01,2013-02-19 12:26:00,
2013-02-19 06:27:00,-0.4,-7.2,29.89,WNW,295,1.0,17.0,72,0.00,,OVC025,0.00,VWS V14.01,2013-02-19 12:27:00,
2013-02-19 06:28:00,-0.4,-7.2,29.89,West,281,1.0,17.0,72,0.00,,OVC025,0.00,VWS V14.01,2013-02-19 12:28:00,
2013-02-19 06:29:00,-0.4,-7.2,29.89,West,278,12.0,17.0,72,0.00,,OVC025,0.00,VWS V14.01,2013-02-19 12:29:00,
2013-02-19 06:30:00,-0.4,-7.2,29.90,WNW,295,5.0,17.0,72,0.00,,OVC025,0.00,VWS V14.01,2013-02-19 12:30:00,
2013-02-19 06:31:00,-0.4,-7.2,29.90,West,276,5.0,12.0,72,0.00,,OVC025,0.00,VWS V14.01,2013-02-19 12:31:00,
2013-02-19 06:32:00,-0.4,-7.2,29.90,WNW,300,12.0,14.0,72,0.00,,OVC025,0.00,VWS V14.01,2013-02-19 12:32:00,
2013-02-19 06:33:00,-0.4,-7.2,29.90,NNW,334,6.0,14.0,72,0.00,,OVC025,0.00,VWS V14.01,2013-02-19 12:33:00,
2013-02-19 06:34:00,-0.4,-7.2,29.90,WNW,284,3.0,14.0,72,0.00,,OVC025,0.00,VWS V14.01,2013-02-19 12:34:00,
2013-02-19 06:35:00,-0.6,-7.4,29.90,WNW,283,10.0,14.0,72,0.00,,OVC025,0.00,VWS V14.01,2013-02-19 12:35:00,
2013-02-19 06:36:00,-0.6,-7.4,29.90,WNW,290,2.0,14.0,72,0.00,,OVC025,0.00,VWS V14.01,2013-02-19 12:36:00,
2013-02-19 06:37:00,-0.6,-7.4,29.90,West,270,4.0,14.0,72,0.00,,OVC025,0.00,VWS V14.01,2013-02-19 12:37:00,
2013-02-19 06:38:00,-0.6,-7.4,29.90,WNW,295,12.0,14.0,72,0.00,,OVC025,0.00,VWS V14.01,2013-02-19 12:38:00,
2013-02-19 06:39:00,-0.6,-7.4,29.90,West,281,8.0,14.0,72,0.00,,OVC025,0.00,VWS V14.01,2013-02-19 12:39:00,
2013-02-19 06:40:00,-0.6,-7.4,29.90,WNW,287,6.0,14.0,72,0.00,,OVC025,0.00,VWS V14.01,2013-02-19 12:40:00,
2013-02-19 06:41:00,-0.6,-7.7,29.90,NW,315,11.0,16.0,71,0.00,,OVC025,0.00,VWS V14.01,2013-02-19 12:41:00,
2013-02-19 06:42:00,-0.6,-7.7,29.90,WNW,293,5.0,16.0,71,0.00,,OVC025,0.00,VWS V14.01,2013-02-19 12:42:00,
2013-02-19 06:43:00,-0.6,-7.7,29.90,West,281,1.0,16.0,71,0.00,,OVC025,0.00,VWS V14.01,2013-02-19 12:43:00,
2013-02-19 06:44:00,-0.6,-7.7,29.90,WNW,291,13.0,16.0,71,0.00,,BKN025,0.00,VWS V14.01,2013-02-19 12:44:00,
2013-02-19 06:45:00,-0.6,-7.7,29.91,WNW,283,2.0,16.0,71,0.00,,BKN025,0.00,VWS V14.01,2013-02-19 12:45:00,
2013-02-19 06:46:00,-0.8,-7.9,29.91,WNW,284,13.0,17.0,71,0.00,,BKN025,0.00,VWS V14.01,2013-02-19 12:46:00,
2013-02-19 06:47:00,-0.8,-7.9,29.91,NW,317,14.0,17.0,71,0.00,,BKN025,0.00,VWS V14.01,2013-02-19 12:47:00,
2013-02-19 06:48:00,-0.8,-7.9,29.91,WNW,297,2.0,17.0,71,0.00,,BKN025,0.00,VWS V14.01,2013-02-19 12:48:00,
2013-02-19 06:49:00,-0.8,-7.9,29.91,WNW,287,1.0,17.0,71,0.00,,BKN025,0.00,VWS V14.01,2013-02-19 12:49:00,
2013-02-19 06:50:00,-0.8,-7.9,29.91,NW,307,7.0,17.0,71,0.00,,BKN025,0.00,VWS V14.01,2013-02-19 12:50:00,
2013-02-19 06:51:00,-0.8,-7.9,29.91,NW,310,10.0,17.0,71,0.00,,BKN025,0.00,VWS V14.01,2013-02-19 12:51:00,
2013-02-19 06:52:00,-0.8,-7.9,29.91,West,270,1.0,17.0,71,0.00,,BKN025,0.00,VWS V14.01,2013-02-19 12:52:00,
2013-02-19 06:53:00,-0.8,-7.9,29.91,WNW,301,6.0,17.0,71,0.00,,BKN025,0.00,VWS V14.01,2013-02-19 12:53:00,
2013-02-19 06:54:00,-0.8,-7.9,29.91,WNW,301,12.0,17.0,71,0.00,,BKN025,0.00,VWS V14.01,2013-02-19 12:54:00,
2013-02-19 06:55:00,-0.8,-8.2,29.91,West,273,7.0,18.0,70,0.00,,BKN025,0.00,VWS V14.01,2013-02-19 12:55:00,
2013-02-19 06:56:00,-0.8,-8.2,29.91,WNW,298,5.0,18.0,70,0.00,,BKN025,0.00,VWS V14.01,2013-02-19 12:56:00,
2013-02-19 06:57:00,-1.0,-8.4,29.91,WNW,284,1.0,18.0,70,0.00,,BKN025,0.00,VWS V14.01,2013-02-19 12:57:00,
2013-02-19 06:58:00,-1.0,-8.4,29.91,WNW,290,3.0,18.0,70,0.00,,BKN025,0.00,VWS V14.01,2013-02-19 12:58:00,
2013-02-19 06:59:00,-1.0,-8.4,29.91,NW,307,13.0,18.0,70,0.00,,BKN025,0.00,VWS V14.01,2013-02-19 12:59:00,
2013-02-19 07:00:00,-1.0,-8.4,29.92,NW,304,3.0,18.0,70,0.00,,BKN025,0.00,VWS V14.01,2013-02-19 13:00:00,
2013-02-19 07:01:00,-1.0,-8.4,29.92,WNW,301,1.0,14.0,70,0.00,,BKN025,0.00,VWS V14.01,2013-02-19 13:01:00,
2013-02-19 07:02:00,-1.0,-8.4,29.92,WNW,284,5.0,14.0,70,0.00,,BKN025,0.00,VWS V14.01,2013-02-19 13:02:00,
2013-02-19 07:03:00,-1.0,-8.4,29.92,WNW,284,8.0,14.0,70,0.00,,BKN025,0.00,VWS V14.01,2013-02-19 13:03:00,
2013-02-19 07:04:00,-1.0,-8.4,29.92,West,274,6.0,14.0,70,0.00,,BKN025,0.00,VWS V14.01,2013-02-19 13:04:00,
2013-02-19 07:05:00,-1.0,-8.4,29.92,WNW,294,4.0,14.0,70,0.00,,BKN025,0.00,VWS V14.01,2013-02-19 13:05:00,
2013-02-19 07:06:00,-1.0,-8.4,29.92,WNW,291,3.0,14.0,70,0.00,,BKN025,0.00,VWS V14.01,2013-02-19 13:06:00,
2013-02-19 07:07:00,-1.0,-8.4,29.92,West,270,5.0,14.0,70,0.00,,BKN025,0.00,VWS V14.01,2013-02-19 13:07:00,
2013-02-19 07:08:00,-1.0,-8.4,29.92,WNW,295,3.0,14.0,70,0.00,,BKN025,0.00,VWS V14.01,2013-02-19 13:08:00,
2013-02-19 07:09:00,-1.0,-8.4,29.92,West,270,3.0,14.0,70,0.00,,BKN025,0.00,VWS V14.01,2013-02-19 13:09:00,
2013-02-19 07:10:00,-1.0,-8.4,29.92,WNW,298,10.0,15.0,70,0.00,,BKN025,0.00,VWS V14.01,2013-02-19 13:10:00,
2013-02-19 07:11:00,-1.0,-8.4,29.92,WNW,294,11.0,15.0,70,0.00,,BKN025,0.00,VWS V14.01,2013-02-19 13:11:00,
2013-02-19 07:12:00,-1.0,-8.4,29.92,West,281,10.0,15.0,70,0.00,,BKN025,0.00,VWS V14.01,2013-02-19 13:12:00,
2013-02-19 07:13:00,-1.0,-8.4,29.92,WNW,301,15.0,15.0,70,0.00,,BKN025,0.00,VWS V14.01,2013-02-19 13:13:00,
2013-02-19 07:14:00,-1.0,-8.4,29.92,WNW,291,7.0,18.0,70,0.00,,BKN025,0.00,VWS V14.01,2013-02-19 13:14:00,
2013-02-19 07:15:00,-1.2,-8.6,29.93,WNW,291,7.0,18.0,70,0.00,,BKN025,0.00,VWS V14.01,2013-02-19 13:15:00,
2013-02-19 07:16:00,-1.2,-8.6,29.93,West,271,0.0,18.0,70,0.00,,BKN025,0.00,VWS V14.01,2013-02-19 13:16:00,
2013-02-19 07:17:00,-1.2,-8.6,29.93,WNW,294,7.0,18.0,70,0.00,,BKN025,0.00,VWS V14.01,2013-02-19 13:17:00,
2013-02-19 07:18:00,-1.2,-8.6,29.93,WNW,290,10.0,18.0,70,0.00,,BKN025,0.00,VWS V14.01,2013-02-19 13:18:00,
2013-02-19 07:19:00,-1.2,-8.6,29.93,NW,315,8.0,18.0,70,0.00,,BKN025,0.00,VWS V14.01,2013-02-19 13:19:00,
2013-02-19 07:20:00,-1.2,-8.6,29.93,WNW,291,11.0,18.0,70,0.00,,BKN025,0.00,VWS V14.01,2013-02-19 13:20:00,
2013-02-19 07:21:00,-1.2,-8.6,29.93,WNW,291,11.0,18.0,70,0.00,,BKN025,0.00,VWS V14.01,2013-02-19 13:21:00,
2013-02-19 07:22:00,-1.2,-8.6,29.93,NW,304,14.0,18.0,70,0.00,,BKN025,0.00,VWS V14.01,2013-02-19 13:22:00,
2013-02-19 07:23:00,-1.2,-8.6,29.93,WNW,293,7.0,18.0,70,0.00,,BKN025,0.00,VWS V14.01,2013-02-19 13:23:00,
2013-02-19 07:24:00,-1.2,-8.6,29.93,West,274,8.0,18.0,70,0.00,,BKN025,0.00,VWS V14.01,2013-02-19 13:24:00,
2013-02-19 07:25:00,-1.2,-8.6,29.93,WNW,293,7.0,20.0,70,0.00,,BKN025,0.00,VWS V14.01,2013-02-19 13:25:00,
2013-02-19 07:26:00,-1.2,-8.6,29.93,NW,307,6.0,20.0,70,0.00,,BKN025,0.00,VWS V14.01,2013-02-19 13:26:00,
2013-02-19 07:27:00,-1.2,-8.6,29.93,WNW,286,5.0,20.0,70,0.00,,BKN025,0.00,VWS V14.01,2013-02-19 13:27:00,
2013-02-19 07:28:00,-1.2,-8.6,29.93,NW,308,3.0,20.0,70,0.00,,BKN025,0.00,VWS V14.01,2013-02-19 13:28:00,
2013-02-19 07:29:00,-1.2,-8.6,29.93,WNW,298,2.0,20.0,70,0.00,,BKN025,0.00,VWS V14.01,2013-02-19 13:29:00,
2013-02-19 07:30:00,-1.2,-8.6,29.94,West,280,12.0,20.0,70,0.00,,BKN025,0.00,VWS V14.01,2013-02-19 13:30:00,
2013-02-19 07:31:00,-1.2,-8.9,29.94,West,281,11.0,17.0,69,0.00,,BKN025,0.00,VWS V14.01,2013-02-19 13:31:00,
2013-02-19 07:32:00,-1.2,-8.6,29.94,West,271,5.0,17.0,70,0.00,,BKN025,0.00,VWS V14.01,2013-02-19 13:32:00,
2013-02-19 07:33:00,-1.2,-8.6,29.94,West,270,6.0,17.0,70,0.00,,BKN025,0.00,VWS V14.01,2013-02-19 13:33:00,
2013-02-19 07:34:00,-1.2,-8.6,29.94,West,280,8.0,17.0,70,0.00,,BKN025,0.00,VWS V14.01,2013-02-19 13:34:00,
2013-02-19 07:35:00,-1.2,-8.6,29.94,WNW,284,0.0,17.0,70,0.00,,BKN025,0.00,VWS V14.01,2013-02-19 13:35:00,
2013-02-19 07:36:00,-1.2,-8.9,29.94,NW,307,3.0,17.0,69,0.00,,BKN025,0.00,VWS V14.01,2013-02-19 13:36:00,
2013-02-19 07:37:00,-1.2,-8.9,29.94,WNW,297,8.0,17.0,69,0.00,,BKN025,0.00,VWS V14.01,2013-02-19 13:37:00,
2013-02-19 07:38:00,-1.2,-8.9,29.94,NW,304,14.0,17.0,69,0.00,,BKN025,0.00,VWS V14.01,2013-02-19 13:38:00,
2013-02-19 07:39:00,-1.2,-8.9,29.94,West,270,3.0,17.0,69,0.00,,BKN025,0.00,VWS V14.01,2013-02-19 13:39:00,
2013-02-19 07:40:00,-1.2,-8.9,29.94,WNW,298,4.0,17.0,69,0.00,,BKN025,0.00,VWS V14.01,2013-02-19 13:40:00,
2013-02-19 07:41:00,-1.2,-8.9,29.94,NW,312,12.0,17.0,69,0.00,,BKN025,0.00,VWS V14.01,2013-02-19 13:41:00,
2013-02-19 07:42:00,-1.2,-8.9,29.94,West,273,3.0,17.0,69,0.00,,BKN025,0.00,VWS V14.01,2013-02-19 13:42:00,
2013-02-19 07:43:00,-1.2,-8.9,29.94,West,281,4.0,17.0,69,0.00,,BKN025,0.00,VWS V14.01,2013-02-19 13:43:00,
2013-02-19 07:44:00,-1.2,-8.9,29.94,WNW,283,8.0,17.0,69,0.00,,BKN025,0.00,VWS V14.01,2013-02-19 13:44:00,
2013-02-19 07:45:00,-1.2,-8.9,29.95,West,273,14.0,17.0,69,0.00,,BKN025,0.00,VWS V14.01,2013-02-19 13:45:00,
2013-02-19 07:46:00,-1.4,-9.1,29.95,WNW,293,6.0,17.0,69,0.00,,BKN025,0.00,VWS V14.01,2013-02-19 13:46:00,
2013-02-19 07:47:00,-1.4,-9.1,29.95,WNW,301,6.0,17.0,69,0.00,,BKN025,0.00,VWS V14.01,2013-02-19 13:47:00,
2013-02-19 07:48:00,-1.4,-9.1,29.95,West,276,8.0,17.0,69,0.00,,BKN025,0.00,VWS V14.01,2013-02-19 13:48:00,
2013-02-19 07:49:00,-1.4,-9.1,29.95,NNW,329,1.0,17.0,69,0.00,,BKN025,0.00,VWS V14.01,2013-02-19 13:49:00,
2013-02-19 07:50:00,-1.4,-9.1,29.95,WNW,293,10.0,17.0,69,0.00,,BKN025,0.00,VWS V14.01,2013-02-19 13:50:00,
2013-02-19 07:51:00,-1.4,-9.1,29.95,NW,326,8.0,17.0,69,0.00,,BKN025,0.00,VWS V14.01,2013-02-19 13:51:00,
2013-02-19 07:52:00,-1.4,-9.1,29.95,NNW,329,16.0,17.0,69,0.00,,BKN025,0.00,VWS V14.01,2013-02-19 13:52:00,
2013-02-19 07:53:00,-1.4,-9.1,29.95,NW,315,8.0,17.0,69,0.00,,BKN025,0.00,VWS V14.01,2013-02-19 13:53:00,
2013-02-19 07:54:00,-1.4,-9.1,29.95,WNW,283,2.0,17.0,69,0.00,,BKN025,0.00,VWS V14.01,2013-02-19 13:54:00,
2013-02-19 07:55:00,-1.4,-9.1,29.95,NW,305,10.0,17.0,69,0.00,,BKN025,0.00,VWS V14.01,2013-02-19 13:55:00,
2013-02-19 07:56:00,-1.4,-9.1,29.95,WNW,297,3.0,17.0,69,0.00,,BKN025,0.00,VWS V14.01,2013-02-19 13:56:00,
2013-02-19 07:57:00,-1.4,-9.1,29.95,West,273,6.0,17.0,69,0.00,,BKN025,0.00,VWS V14.01,2013-02-19 13:57:00,
2013-02-19 07:58:00,-1.4,-9.1,29.95,NW,314,10.0,17.0,69,0.00,,BKN025,0.00,VWS V14.01,2013-02-19 13:58:00,
2013-02-19 07:59:00,-1.4,-9.1,29.95,WNW,288,7.0,17.0,69,0.00,,SCT250,0.00,VWS V14.01,2013-02-19 13:59:00,
2013-02-19 08:00:00,-1.4,-9.1,29.96,West,281,13.0,18.0,69,0.00,,SCT250,0.00,VWS V14.01,2013-02-19 14:00:00,
2013-02-19 08:01:00,-1.4,-9.1,29.96,WNW,288,10.0,19.0,69,0.00,,SCT250,0.00,VWS V14.01,2013-02-19 14:01:00,
2013-02-19 08:02:00,-1.4,-9.1,29.96,WNW,291,12.0,19.0,69,0.00,,SCT250,0.00,VWS V14.01,2013-02-19 14:02:00,
2013-02-19 08:03:00,-1.4,-9.4,29.96,NW,318,14.0,19.0,68,0.00,,SCT250,0.00,VWS V14.01,2013-02-19 14:03:00,
2013-02-19 08:04:00,-1.4,-9.4,29.96,WNW,288,6.0,19.0,68,0.00,,SCT250,0.00,VWS V14.01,2013-02-19 14:04:00,
2013-02-19 08:05:00,-1.4,-9.4,29.96,WNW,297,3.0,19.0,68,0.00,,SCT250,0.00,VWS V14.01,2013-02-19 14:05:00,
2013-02-19 08:06:00,-1.4,-9.4,29.96,NW,307,1.0,19.0,68,0.00,,SCT250,0.00,VWS V14.01,2013-02-19 14:06:00,
2013-02-19 08:07:00,-1.4,-9.4,29.96,WNW,302,5.0,19.0,68,0.00,,SCT250,0.00,VWS V14.01,2013-02-19 14:07:00,
2013-02-19 08:08:00,-1.2,-9.2,29.96,WNW,290,0.0,19.0,68,0.00,,SCT250,0.00,VWS V14.01,2013-02-19 14:08:00,
2013-02-19 08:09:00,-1.2,-9.2,29.96,NNW,334,6.0,19.0,68,0.00,,SCT250,0.00,VWS V14.01,2013-02-19 14:09:00,
2013-02-19 08:10:00,-1.2,-9.2,29.96,NW,321,12.0,19.0,68,0.00,,SCT250,0.00,VWS V14.01,2013-02-19 14:10:00,
2013-02-19 08:11:00,-1.2,-9.2,29.96,WNW,283,7.0,19.0,68,0.00,,SCT250,0.00,VWS V14.01,2013-02-19 14:11:00,
2013-02-19 08:12:00,-1.2,-9.2,29.96,WNW,300,14.0,19.0,68,0.00,,SCT250,0.00,VWS V14.01,2013-02-19 14:12:00,
2013-02-19 08:13:00,-1.2,-9.2,29.96,WNW,290,12.0,19.0,68,0.00,,SCT250,0.00,VWS V14.01,2013-02-19 14:13:00,
2013-02-19 08:14:00,-1.2,-9.2,29.96,West,266,7.0,19.0,68,0.00,,SCT250,0.00,VWS V14.01,2013-02-19 14:14:00,
2013-02-19 08:15:00,-1.2,-9.2,29.97,West,277,0.0,19.0,68,0.00,,SCT250,0.00,VWS V14.01,2013-02-19 14:15:00,
2013-02-19 08:16:00,-1.2,-9.2,29.97,NW,312,12.0,19.0,68,0.00,,SCT250,0.00,VWS V14.01,2013-02-19 14:16:00,
2013-02-19 08:17:00,-1.2,-9.2,29.97,WNW,301,3.0,19.0,68,0.00,,SCT250,0.00,VWS V14.01,2013-02-19 14:17:00,
2013-02-19 08:18:00,-1.2,-9.2,29.97,WNW,283,12.0,19.0,68,0.00,,SCT250,0.00,VWS V14.01,2013-02-19 14:18:00,
2013-02-19 08:19:00,-1.0,-9.0,29.97,West,266,12.0,19.0,68,0.00,,SCT250,0.00,VWS V14.01,2013-02-19 14:19:00,
2013-02-19 08:20:00,-1.2,-9.2,29.97,WNW,293,5.0,19.0,68,0.00,,SCT250,0.00,VWS V14.01,2013-02-19 14:20:00,
2013-02-19 08:21:00,-1.0,-9.0,29.97,WNW,291,12.0,19.0,68,0.00,,SCT250,0.00,VWS V14.01,2013-02-19 14:21:00,
2013-02-19 08:22:00,-1.0,-9.0,29.97,NW,308,5.0,19.0,68,0.00,,SCT250,0.00,VWS V14.01,2013-02-19 14:22:00,
2013-02-19 08:23:00,-1.0,-9.3,29.97,WNW,294,2.0,19.0,67,0.00,,SCT250,0.00,VWS V14.01,2013-02-19 14:23:00,
2013-02-19 08:24:00,-1.0,-9.3,29.97,WNW,290,7.0,19.0,67,0.00,,SCT250,0.00,VWS V14.01,2013-02-19 14:24:00,
2013-02-19 08:25:00,-1.0,-9.0,29.97,WNW,284,5.0,19.0,68,0.00,,SCT250,0.00,VWS V14.01,2013-02-19 14:25:00,
2013-02-19 08:26:00,-1.0,-9.3,29.97,WNW,287,1.0,19.0,67,0.00,,SCT250,0.00,VWS V14.01,2013-02-19 14:26:00,
2013-02-19 08:27:00,-1.0,-9.3,29.97,West,276,2.0,19.0,67,0.00,,SCT250,0.00,VWS V14.01,2013-02-19 14:27:00,
2013-02-19 08:28:00,-1.0,-9.3,29.97,West,281,8.0,19.0,67,0.00,,SCT250,0.00,VWS V14.01,2013-02-19 14:28:00,
2013-02-19 08:29:00,-1.0,-9.3,29.97,NW,311,13.0,19.0,67,0.00,,SCT250,0.00,VWS V14.01,2013-02-19 14:29:00,
2013-02-19 08:30:00,-1.0,-9.3,29.97,WNW,284,19.0,20.0,67,0.00,,SCT250,0.00,VWS V14.01,2013-02-19 14:30:00,
2013-02-19 08:31:00,-1.0,-9.3,29.97,West,271,8.0,20.0,67,0.00,,SCT250,0.00,VWS V14.01,2013-02-19 14:31:00,
2013-02-19 08:32:00,-1.0,-9.3,29.97,WNW,291,5.0,20.0,67,0.00,,SCT250,0.00,VWS V14.01,2013-02-19 14:32:00,
2013-02-19 08:33:00,-1.0,-9.3,29.97,WNW,295,7.0,20.0,67,0.00,,SCT250,0.00,VWS V14.01,2013-02-19 14:33:00,
2013-02-19 08:34:00,-1.0,-9.3,29.97,NW,304,8.0,20.0,67,0.00,,SCT250,0.00,VWS V14.01,2013-02-19 14:34:00,
2013-02-19 08:35:00,-1.0,-9.3,29.97,WNW,295,3.0,20.0,67,0.00,,SCT250,0.00,VWS V14.01,2013-02-19 14:35:00,
2013-02-19 08:36:00,-1.0,-9.3,29.97,WNW,293,3.0,20.0,67,0.00,,SCT250,0.00,VWS V14.01,2013-02-19 14:36:00,
2013-02-19 08:37:00,-1.0,-9.3,29.97,West,269,3.0,20.0,67,0.00,,SCT250,0.00,VWS V14.01,2013-02-19 14:37:00,
2013-02-19 08:38:00,-1.0,-9.3,29.97,NW,325,6.0,20.0,67,0.00,,SCT250,0.00,VWS V14.01,2013-02-19 14:38:00,
2013-02-19 08:39:00,-1.0,-9.3,29.97,WNW,295,4.0,20.0,67,0.00,,SCT250,0.00,VWS V14.01,2013-02-19 14:39:00,
2013-02-19 08:40:00,-0.8,-9.1,29.97,NW,311,10.0,20.0,67,0.00,,SCT250,0.00,VWS V14.01,2013-02-19 14:40:00,
2013-02-19 08:41:00,-0.8,-9.4,29.97,NW,321,8.0,20.0,66,0.00,,SCT250,0.00,VWS V14.01,2013-02-19 14:41:00,
2013-02-19 08:42:00,-0.8,-9.4,29.97,WNW,297,5.0,20.0,66,0.00,,SCT250,0.00,VWS V14.01,2013-02-19 14:42:00,
2013-02-19 08:43:00,-0.6,-9.2,29.97,West,276,1.0,20.0,66,0.00,,SCT250,0.00,VWS V14.01,2013-02-19 14:43:00,
2013-02-19 08:44:00,-0.6,-9.2,29.97,West,269,5.0,20.0,66,0.00,,SCT250,0.00,VWS V14.01,2013-02-19 14:44:00,
2013-02-19 08:45:00,-0.6,-9.2,29.98,NW,307,5.0,20.0,66,0.00,,SCT250,0.00,VWS V14.01,2013-02-19 14:45:00,
2013-02-19 08:46:00,-0.6,-9.2,29.98,NW,321,19.0,20.0,66,0.00,,SCT250,0.00,VWS V14.01,2013-02-19 14:46:00,
2013-02-19 08:47:00,-0.6,-9.2,29.98,WNW,302,16.0,20.0,66,0.00,,SCT250,0.00,VWS V14.01,2013-02-19 14:47:00,
2013-02-19 08:48:00,-0.6,-9.2,29.98,NNW,328,17.0,20.0,66,0.00,,SCT250,0.00,VWS V14.01,2013-02-19 14:48:00,
2013-02-19 08:49:00,-0.6,-9.2,29.98,NW,308,10.0,20.0,66,0.00,,SCT250,0.00,VWS V14.01,2013-02-19 14:49:00,
2013-02-19 08:50:00,-0.8,-9.4,29.98,North,353,16.0,20.0,66,0.00,,SCT250,0.00,VWS V14.01,2013-02-19 14:50:00,
2013-02-19 08:51:00,-0.8,-9.4,29.98,WNW,284,5.0,20.0,66,0.00,,SCT250,0.00,VWS V14.01,2013-02-19 14:51:00,
2013-02-19 08:52:00,-0.8,-9.4,29.98,WNW,286,3.0,20.0,66,0.00,,SCT250,0.00,VWS V14.01,2013-02-19 14:52:00,
2013-02-19 08:53:00,-0.8,-9.4,29.98,NW,307,15.0,20.0,66,0.00,,SCT250,0.00,VWS V14.01,2013-02-19 14:53:00,
2013-02-19 08:54:00,-0.8,-9.4,29.98,West,270,2.0,20.0,66,0.00,,SCT250,0.00,VWS V14.01,2013-02-19 14:54:00,
2013-02-19 08:55:00,-0.8,-9.4,29.98,West,273,7.0,20.0,66,0.00,,SCT250,0.00,VWS V14.01,2013-02-19 14:55:00,
2013-02-19 08:56:00,-0.8,-9.4,29.98,NW,315,2.0,20.0,66,0.00,,SCT250,0.00,VWS V14.01,2013-02-19 14:56:00,
2013-02-19 08:57:00,-0.8,-9.4,29.98,WNW,297,1.0,20.0,66,0.00,,SCT250,0.00,VWS V14.01,2013-02-19 14:57:00,
2013-02-19 08:58:00,-0.8,-9.4,29.98,WNW,300,12.0,20.0,66,0.00,,SCT250,0.00,VWS V14.01,2013-02-19 14:58:00,
2013-02-19 08:59:00,-0.8,-9.4,29.98,NW,310,16.0,20.0,66,0.00,,SCT250,0.00,VWS V14.01,2013-02-19 14:59:00,
2013-02-19 09:00:00,-0.8,-9.4,29.98,West,270,2.0,20.0,66,0.00,,SCT250,0.00,VWS V14.01,2013-02-19 15:00:00,
2013-02-19 09:01:00,-0.8,-9.4,29.98,WNW,302,16.0,16.0,66,0.00,,SCT250,0.00,VWS V14.01,2013-02-19 15:01:00,
2013-02-19 09:02:00,-0.6,-9.2,29.98,WNW,302,1.0,16.0,66,0.00,,SCT250,0.00,VWS V14.01,2013-02-19 15:02:00,
2013-02-19 09:03:00,-0.6,-9.2,29.98,NW,321,6.0,17.0,66,0.00,,SCT250,0.00,VWS V14.01,2013-02-19 15:03:00,
2013-02-19 09:04:00,-0.6,-9.2,29.98,WNW,301,5.0,17.0,66,0.00,,SCT250,0.00,VWS V14.01,2013-02-19 15:04:00,
2013-02-19 09:05:00,-0.6,-9.2,29.98,NW,315,5.0,17.0,66,0.00,,SCT250,0.00,VWS V14.01,2013-02-19 15:05:00,
2013-02-19 09:06:00,-0.6,-9.2,29.98,West,281,4.0,17.0,66,0.00,,SCT250,0.00,VWS V14.01,2013-02-19 15:06:00,
2013-02-19 09:07:00,-0.4,-9.0,29.98,West,270,1.0,17.0,66,0.00,,SCT250,0.00,VWS V14.01,2013-02-19 15:07:00,
2013-02-19 09:08:00,-0.4,-9.3,29.98,WNW,290,12.0,17.0,65,0.00,,SCT250,0.00,VWS V14.01,2013-02-19 15:08:00,
2013-02-19 09:09:00,-0.6,-9.5,29.98,WNW,300,4.0,18.0,65,0.00,,SCT250,0.00,VWS V14.01,2013-02-19 15:09:00,
2013-02-19 09:10:00,-0.6,-9.5,29.98,NW,307,7.0,18.0,65,0.00,,SCT250,0.00,VWS V14.01,2013-02-19 15:10:00,
2013-02-19 09:11:00,-0.6,-9.5,29.98,WNW,288,1.0,18.0,65,0.00,,SCT250,0.00,VWS V14.01,2013-02-19 15:11:00,
2013-02-19 09:12:00,-0.6,-9.2,29.98,WNW,294,5.0,18.0,66,0.00,,SCT250,0.00,VWS V14.01,2013-02-19 15:12:00,
2013-02-19 09:13:00,-0.6,-9.2,29.98,NW,310,4.0,18.0,66,0.00,,SCT250,0.00,VWS V14.01,2013-02-19 15:13:00,
2013-02-19 09:14:00,-0.4,-9.0,29.98,NW,324,8.0,18.0,66,0.00,,SCT250,0.00,VWS V14.01,2013-02-19 15:14:00,
2013-02-19 09:15:00,-0.6,-9.5,29.99,WNW,287,3.0,18.0,65,0.00,,SCT250,0.00,VWS V14.01,2013-02-19 15:15:00,
2013-02-19 09:16:00,-0.6,-9.5,29.99,NW,310,14.0,18.0,65,0.00,,SCT250,0.00,VWS V14.01,2013-02-19 15:16:00,
2013-02-19 09:17:00,-0.6,-9.5,29.99,WNW,293,5.0,18.0,65,0.00,,SCT250,0.00,VWS V14.01,2013-02-19 15:17:00,
2013-02-19 09:18:00,-0.6,-9.5,29.99,WNW,290,19.0,20.0,65,0.00,,SCT250,0.00,VWS V14.01,2013-02-19 15:18:00,
2013-02-19 09:19:00,-0.8,-9.7,29.99,West,280,7.0,20.0,65,0.00,,SCT250,0.00,VWS V14.01,2013-02-19 15:19:00,
2013-02-19 09:20:00,-0.8,-9.7,29.99,WNW,293,3.0,20.0,65,0.00,,SCT250,0.00,VWS V14.01,2013-02-19 15:20:00,
2013-02-19 09:21:00,-0.6,-9.5,29.99,NNW,331,10.0,20.0,65,0.00,,SCT250,0.00,VWS V14.01,2013-02-19 15:21:00,
2013-02-19 09:22:00,-0.6,-9.5,29.99,WNW,288,3.0,20.0,65,0.00,,SCT250,0.00,VWS V14.01,2013-02-19 15:22:00,
2013-02-19 09:23:00,-0.6,-9.5,29.99,West,270,1.0,20.0,65,0.00,,SCT250,0.00,VWS V14.01,2013-02-19 15:23:00,
2013-02-19 09:24:00,-0.6,-9.5,29.99,NNW,335,10.0,20.0,65,0.00,,SCT250,0.00,VWS V14.01,2013-02-19 15:24:00,
2013-02-19 09:25:00,-0.8,-9.7,29.99,West,270,1.0,20.0,65,0.00,,SCT250,0.00,VWS V14.01,2013-02-19 15:25:00,
2013-02-19 09:26:00,-0.8,-9.7,29.99,West,277,2.0,20.0,65,0.00,,SCT250,0.00,VWS V14.01,2013-02-19 15:26:00,
2013-02-19 09:27:00,-0.8,-9.7,29.99,NW,312,5.0,20.0,65,0.00,,SCT250,0.00,VWS V14.01,2013-02-19 15:27:00,
2013-02-19 09:28:00,-0.8,-9.7,29.99,West,270,7.0,20.0,65,0.00,,SCT250,0.00,VWS V14.01,2013-02-19 15:28:00,
2013-02-19 09:29:00,-0.8,-9.7,29.99,NW,304,8.0,20.0,65,0.00,,SCT250,0.00,VWS V14.01,2013-02-19 15:29:00,
2013-02-19 09:30:00,-0.8,-9.7,30.00,West,270,6.0,20.0,65,0.00,,SCT250,0.00,VWS V14.01,2013-02-19 15:30:00,
2013-02-19 09:31:00,-1.0,-9.9,30.00,West,269,5.0,11.0,65,0.00,,SCT250,0.00,VWS V14.01,2013-02-19 15:31:00,
2013-02-19 09:32:00,-1.0,-9.9,30.00,WNW,291,2.0,12.0,65,0.00,,SCT250,0.00,VWS V14.01,2013-02-19 15:32:00,
2013-02-19 09:33:00,-1.2,-10.1,30.00,WNW,288,6.0,12.0,65,0.00,,SCT250,0.00,VWS V14.01,2013-02-19 15:33:00,
2013-02-19 09:34:00,-1.2,-10.1,30.00,West,270,6.0,12.0,65,0.00,,SCT250,0.00,VWS V14.01,2013-02-19 15:34:00,
2013-02-19 09:35:00,-1.2,-10.1,30.00,WNW,300,7.0,12.0,65,0.00,,SCT250,0.00,VWS V14.01,2013-02-19 15:35:00,
2013-02-19 09:36:00,-1.4,-10.3,30.00,WNW,298,7.0,12.0,65,0.00,,SCT250,0.00,VWS V14.01,2013-02-19 15:36:00,
2013-02-19 09:37:00,-1.4,-10.3,30.00,WNW,284,12.0,12.0,65,0.00,,SCT250,0.00,VWS V14.01,2013-02-19 15:37:00,
2013-02-19 09:38:00,-1.4,-10.3,30.00,NW,319,5.0,12.0,65,0.00,,SCT250,0.00,VWS V14.01,2013-02-19 15:38:00,
2013-02-19 09:39:00,-1.4,-10.3,30.00,WNW,283,4.0,12.0,65,0.00,,SCT250,0.00,VWS V14.01,2013-02-19 15:39:00,
2013-02-19 09:40:00,-1.2,-9.8,30.00,WNW,287,3.0,12.0,66,0.00,,SCT250,0.00,VWS V14.01,2013-02-19 15:40:00,
2013-02-19 09:41:00,-1.2,-9.8,30.00,WNW,290,1.0,12.0,66,0.00,,SCT250,0.00,VWS V14.01,2013-02-19 15:41:00,
2013-02-19 09:42:00,-1.2,-9.8,30.00,WNW,284,3.0,12.0,66,0.00,,SCT250,0.00,VWS V14.01,2013-02-19 15:42:00,
2013-02-19 09:43:00,-1.0,-9.9,30.00,WNW,287,0.0,12.0,65,0.00,,SCT250,0.00,VWS V14.01,2013-02-19 15:43:00,
2013-02-19 09:44:00,-1.0,-9.9,30.00,WNW,297,3.0,12.0,65,0.00,,SCT250,0.00,VWS V14.01,2013-02-19 15:44:00,
2013-02-19 09:45:00,-1.0,-9.9,30.00,WNW,293,6.0,12.0,65,0.00,,SCT250,0.00,VWS V14.01,2013-02-19 15:45:00,
2013-02-19 09:46:00,-1.0,-9.6,30.00,NW,307,12.0,14.0,66,0.00,,SCT250,0.00,VWS V14.01,2013-02-19 15:46:00,
2013-02-19 09:47:00,-1.0,-9.9,30.00,WNW,300,12.0,14.0,65,0.00,,SCT250,0.00,VWS V14.01,2013-02-19 15:47:00,
2013-02-19 09:48:00,-1.0,-9.9,30.00,WNW,294,3.0,14.0,65,0.00,,SCT250,0.00,VWS V14.01,2013-02-19 15:48:00,
2013-02-19 09:49:00,-1.0,-9.9,30.00,West,281,2.0,14.0,65,0.00,,SCT250,0.00,VWS V14.01,2013-02-19 15:49:00,
2013-02-19 09:50:00,-1.0,-9.9,30.00,WNW,288,12.0,14.0,65,0.00,,SCT250,0.00,VWS V14.01,2013-02-19 15:50:00,
2013-02-19 09:51:00,-1.0,-9.9,30.00,WNW,301,5.0,14.0,65,0.00,,SCT250,0.00,VWS V14.01,2013-02-19 15:51:00,
2013-02-19 09:52:00,-1.0,-9.9,30.00,WNW,290,2.0,14.0,65,0.00,,SCT250,0.00,VWS V14.01,2013-02-19 15:52:00,
2013-02-19 09:53:00,-1.0,-9.9,30.00,NW,318,3.0,14.0,65,0.00,,SCT250,0.00,VWS V14.01,2013-02-19 15:53:00,
2013-02-19 09:54:00,-1.0,-9.9,30.00,NW,311,2.0,14.0,65,0.00,,SCT250,0.00,VWS V14.01,2013-02-19 15:54:00,
2013-02-19 09:55:00,-0.8,-9.7,30.00,WNW,287,7.0,14.0,65,0.00,,SCT250,0.00,VWS V14.01,2013-02-19 15:55:00,
2013-02-19 09:56:00,-0.8,-9.7,30.00,NW,310,2.0,20.0,65,0.00,,SCT250,0.00,VWS V14.01,2013-02-19 15:56:00,
2013-02-19 09:57:00,-0.8,-10.0,30.00,WNW,291,2.0,20.0,64,0.00,,SCT250,0.00,VWS V14.01,2013-02-19 15:57:00,
2013-02-19 09:58:00,-0.8,-10.0,30.00,WNW,284,2.0,20.0,64,0.00,,SCT250,0.00,VWS V14.01,2013-02-19 15:58:00,
2013-02-19 09:59:00,-1.0,-10.2,30.00,WNW,300,6.0,20.0,64,0.00,,SCT250,0.00,VWS V14.01,2013-02-19 15:59:00,
2013-02-19 10:00:00,-1.0,-10.2,30.01,NW,318,5.0,20.0,64,0.00,,SCT250,0.00,VWS V14.01,2013-02-19 16:00:00,
2013-02-19 10:01:00,-1.0,-10.2,30.01,West,277,7.0,10.0,64,0.00,,SCT250,0.00,VWS V14.01,2013-02-19 16:01:00,
2013-02-19 10:02:00,-1.0,-10.2,30.01,WNW,284,7.0,14.0,64,0.00,,SCT250,0.00,VWS V14.01,2013-02-19 16:02:00,
2013-02-19 10:03:00,-1.0,-10.2,30.01,WNW,286,1.0,14.0,64,0.00,,SCT250,0.00,VWS V14.01,2013-02-19 16:03:00,
2013-02-19 10:04:00,-1.0,-10.2,30.01,West,276,7.0,14.0,64,0.00,,SCT250,0.00,VWS V14.01,2013-02-19 16:04:00,
2013-02-19 10:05:00,-1.0,-10.2,30.01,WNW,300,6.0,16.0,64,0.00,,SCT250,0.00,VWS V14.01,2013-02-19 16:05:00,
2013-02-19 10:06:00,-1.0,-10.5,30.01,West,281,7.0,16.0,63,0.00,,SCT250,0.00,VWS V14.01,2013-02-19 16:06:00,
2013-02-19 10:07:00,-1.0,-10.2,30.01,NW,304,12.0,16.0,64,0.00,,SCT250,0.00,VWS V14.01,2013-02-19 16:07:00,
2013-02-19 10:08:00,-1.0,-10.5,30.01,NW,304,8.0,16.0,63,0.00,,SCT250,0.00,VWS V14.01,2013-02-19 16:08:00,
2013-02-19 10:09:00,-0.8,-10.4,30.01,WNW,297,18.0,18.0,63,0.00,,SCT250,0.00,VWS V14.01,2013-02-19 16:09:00,
2013-02-19 10:10:00,-0.8,-10.4,30.01,NW,315,20.0,24.0,63,0.00,,SCT250,0.00,VWS V14.01,2013-02-19 16:10:00,
2013-02-19 10:11:00,-0.8,-10.4,30.01,WNW,290,7.0,24.0,63,0.00,,SCT250,0.00,VWS V14.01,2013-02-19 16:11:00,
2013-02-19 10:12:00,-0.8,-10.4,30.01,WNW,298,6.0,24.0,63,0.00,,SCT250,0.00,VWS V14.01,2013-02-19 16:12:00,
2013-02-19 10:13:00,-0.8,-10.4,30.01,WNW,284,5.0,24.0,63,0.00,,SCT250,0.00,VWS V14.01,2013-02-19 16:13:00,
2013-02-19 10:14:00,-1.0,-10.5,30.01,WNW,291,6.0,24.0,63,0.00,,SCT250,0.00,VWS V14.01,2013-02-19 16:14:00,
2013-02-19 10:15:00,-1.0,-10.5,30.01,West,276,7.0,24.0,63,0.00,,SCT250,0.00,VWS V14.01,2013-02-19 16:15:00,
2013-02-19 10:16:00,-1.0,-10.5,30.01,WNW,294,0.0,24.0,63,0.00,,SCT250,0.00,VWS V14.01,2013-02-19 16:16:00,
2013-02-19 10:17:00,-1.0,-10.5,30.01,West,270,1.0,24.0,63,0.00,,SCT250,0.00,VWS V14.01,2013-02-19 16:17:00,
2013-02-19 10:18:00,-1.0,-10.5,30.01,West,270,2.0,24.0,63,0.00,,SCT250,0.00,VWS V14.01,2013-02-19 16:18:00,
2013-02-19 10:19:00,-1.0,-10.5,30.01,WNW,300,2.0,24.0,63,0.00,,SCT250,0.00,VWS V14.01,2013-02-19 16:19:00,
2013-02-19 10:20:00,-1.0,-10.5,30.01,WNW,291,6.0,24.0,63,0.00,,SCT250,0.00,VWS V14.01,2013-02-19 16:20:00,
2013-02-19 10:21:00,-1.0,-10.5,30.01,NW,311,8.0,24.0,63,0.00,,SCT250,0.00,VWS V14.01,2013-02-19 16:21:00,
2013-02-19 10:22:00,-0.8,-10.4,30.01,NW,314,0.0,24.0,63,0.00,,SCT250,0.00,VWS V14.01,2013-02-19 16:22:00,
2013-02-19 10:23:00,-0.6,-10.2,30.01,WNW,294,5.0,24.0,63,0.00,,SCT250,0.00,VWS V14.01,2013-02-19 16:23:00,
2013-02-19 10:24:00,-0.6,-10.2,30.01,West,281,1.0,24.0,63,0.00,,SCT250,0.00,VWS V14.01,2013-02-19 16:24:00,
2013-02-19 10:25:00,-0.4,-10.0,30.01,West,270,1.0,24.0,63,0.00,,SCT250,0.00,VWS V14.01,2013-02-19 16:25:00,
2013-02-19 10:26:00,-0.4,-10.0,30.01,WNW,298,6.0,24.0,63,0.00,,SCT250,0.00,VWS V14.01,2013-02-19 16:26:00,
2013-02-19 10:27:00,-0.4,-10.3,30.01,WNW,283,6.0,24.0,62,0.00,,SCT250,0.00,VWS V14.01,2013-02-19 16:27:00,
2013-02-19 10:28:00,-0.6,-10.5,30.01,WNW,284,11.0,24.0,62,0.00,,SCT250,0.00,VWS V14.01,2013-02-19 16:28:00,
2013-02-19 10:29:00,-0.6,-10.5,30.01,NW,317,14.0,24.0,62,0.00,,SCT250,0.00,VWS V14.01,2013-02-19 16:29:00,
2013-02-19 10:30:00,-0.6,-10.2,30.02,WNW,297,8.0,24.0,63,0.00,,SCT250,0.00,VWS V14.01,2013-02-19 16:30:00,
2013-02-19 10:31:00,-0.4,-10.0,30.02,West,280,5.0,10.0,63,0.00,,SCT250,0.00,VWS V14.01,2013-02-19 16:31:00,
2013-02-19 10:32:00,-0.4,-10.0,30.02,WNW,294,6.0,10.0,63,0.00,,SCT250,0.00,VWS V14.01,2013-02-19 16:32:00,
2013-02-19 10:33:00,-0.2,-10.1,30.02,WNW,283,6.0,13.0,62,0.00,,SCT250,0.00,VWS V14.01,2013-02-19 16:33:00,
2013-02-19 10:34:00,-0.2,-10.1,30.02,WNW,293,12.0,13.0,62,0.00,,SCT250,0.00,VWS V14.01,2013-02-19 16:34:00,
2013-02-19 10:35:00,-0.2,-10.1,30.02,West,276,6.0,16.0,62,0.00,,SCT250,0.00,VWS V14.01,2013-02-19 16:35:00,
2013-02-19 10:36:00,-0.4,-10.6,30.02,NNW,336,13.0,21.0,61,0.00,,SCT250,0.00,VWS V14.01,2013-02-19 16:36:00,
2013-02-19 10:37:00,-0.4,-10.6,30.02,NW,305,6.0,21.0,61,0.00,,SCT250,0.00,VWS V14.01,2013-02-19 16:37:00,
2013-02-19 10:38:00,-0.4,-10.3,30.02,WNW,283,5.0,21.0,62,0.00,,SCT250,0.00,VWS V14.01,2013-02-19 16:38:00,
2013-02-19 10:39:00,-0.4,-10.3,30.02,NW,315,13.0,21.0,62,0.00,,SCT250,0.00,VWS V14.01,2013-02-19 16:39:00,
2013-02-19 10:40:00,-0.2,-10.1,30.02,West,276,3.0,21.0,62,0.00,,SCT250,0.00,VWS V14.01,2013-02-19 16:40:00,
2013-02-19 10:41:00,-0.4,-10.3,30.02,West,281,9.0,21.0,62,0.00,,SCT250,0.00,VWS V14.01,2013-02-19 16:41:00,
2013-02-19 10:42:00,-0.2,-10.1,30.02,NW,311,8.0,21.0,62,0.00,,SCT250,0.00,VWS V14.01,2013-02-19 16:42:00,
2013-02-19 10:43:00,-0.2,-10.1,30.02,West,269,1.0,21.0,62,0.00,,SCT250,0.00,VWS V14.01,2013-02-19 16:43:00,
2013-02-19 10:44:00,-0.2,-9.9,30.02,NNW,329,9.0,21.0,62,0.00,,SCT250,0.00,VWS V14.01,2013-02-19 16:44:00,
2013-02-19 10:45:00,-0.2,-9.9,30.03,NW,314,3.0,21.0,62,0.00,,SCT250,0.00,VWS V14.01,2013-02-19 16:45:00,
2013-02-19 10:46:00,0.1,-9.8,30.03,WNW,286,3.0,21.0,62,0.00,,SCT250,0.00,VWS V14.01,2013-02-19 16:46:00,
2013-02-19 10:47:00,0.1,-9.8,30.03,West,271,11.0,21.0,62,0.00,,SCT250,0.00,VWS V14.01,2013-02-19 16:47:00,
2013-02-19 10:48:00,0.1,-9.8,30.03,West,269,18.0,21.0,62,0.00,,SCT250,0.00,VWS V14.01,2013-02-19 16:48:00,
2013-02-19 10:49:00,0.3,-10.0,30.03,WNW,290,3.0,21.0,61,0.00,,SCT250,0.00,VWS V14.01,2013-02-19 16:49:00,
2013-02-19 10:50:00,0.3,-9.6,30.03,WNW,294,2.0,21.0,62,0.00,,SCT250,0.00,VWS V14.01,2013-02-19 16:50:00,
2013-02-19 10:51:00,0.1,-10.1,30.03,WNW,302,11.0,21.0,61,0.00,,SCT250,0.00,VWS V14.01,2013-02-19 16:51:00,
2013-02-19 10:52:00,0.1,-10.1,30.03,NW,305,6.0,21.0,61,0.00,,SCT250,0.00,VWS V14.01,2013-02-19 16:52:00,
2013-02-19 10:53:00,0.1,-10.1,30.03,West,281,8.0,21.0,61,0.00,,SCT250,0.00,VWS V14.01,2013-02-19 16:53:00,
2013-02-19 10:54:00,0.1,-9.8,30.03,West,277,6.0,21.0,62,0.00,,SCT250,0.00,VWS V14.01,2013-02-19 16:54:00,
2013-02-19 10:55:00,0.1,-9.8,30.03,NW,311,12.0,21.0,62,0.00,,SCT250,0.00,VWS V14.01,2013-02-19 16:55:00,
2013-02-19 10:56:00,0.3,-9.6,30.03,West,273,10.0,21.0,62,0.00,,SCT250,0.00,VWS V14.01,2013-02-19 16:56:00,
2013-02-19 10:57:00,0.3,-9.6,30.03,WNW,287,7.0,21.0,62,0.00,,SCT250,0.00,VWS V14.01,2013-02-19 16:57:00,
2013-02-19 10:58:00,0.1,-10.1,30.03,WNW,283,3.0,21.0,61,0.00,,SCT250,0.00,VWS V14.01,2013-02-19 16:58:00,
2013-02-19 10:59:00,0.3,-9.6,30.03,NW,321,2.0,21.0,62,0.00,,SCT250,0.00,VWS V14.01,2013-02-19 16:59:00,
2013-02-19 11:00:00,0.3,-9.6,30.03,NW,304,11.0,21.0,62,0.00,,SCT250,0.00,VWS V14.01,2013-02-19 17:00:00,
2013-02-19 11:01:00,0.3,-9.6,30.03,West,270,7.0,11.0,62,0.00,,SCT250,0.00,VWS V14.01,2013-02-19 17:01:00,
2013-02-19 11:02:00,0.3,-9.6,30.03,NW,305,7.0,13.0,62,0.00,,SCT250,0.00,VWS V14.01,2013-02-19 17:02:00,
2013-02-19 11:03:00,0.3,-10.0,30.03,WNW,286,3.0,13.0,61,0.00,,SCT250,0.00,VWS V14.01,2013-02-19 17:03:00,
2013-02-19 11:04:00,0.3,-10.0,30.03,NW,308,16.0,16.0,61,0.00,,SCT250,0.00,VWS V14.01,2013-02-19 17:04:00,
2013-02-19 11:05:00,0.1,-10.1,30.03,WNW,297,17.0,17.0,61,0.00,,SCT250,0.00,VWS V14.01,2013-02-19 17:05:00,
2013-02-19 11:06:00,0.1,-10.1,30.03,West,278,10.0,17.0,61,0.00,,SCT250,0.00,VWS V14.01,2013-02-19 17:06:00,
2013-02-19 11:07:00,0.1,-10.2,30.03,NW,304,7.0,17.0,61,0.00,,SCT250,0.00,VWS V14.01,2013-02-19 17:07:00,
2013-02-19 11:08:00,0.1,-9.8,30.03,NW,305,3.0,17.0,62,0.00,,SCT250,0.00,VWS V14.01,2013-02-19 17:08:00,
2013-02-19 11:09:00,0.3,-9.6,30.03,WNW,290,0.0,17.0,62,0.00,,SCT250,0.00,VWS V14.01,2013-02-19 17:09:00,
2013-02-19 11:10:00,0.3,-9.3,30.03,West,273,7.0,17.0,63,0.00,,SCT250,0.00,VWS V14.01,2013-02-19 17:10:00,
2013-02-19 11:11:00,0.3,-9.6,30.03,WNW,298,7.0,17.0,62,0.00,,SCT250,0.00,VWS V14.01,2013-02-19 17:11:00,
2013-02-19 11:12:00,0.5,-9.4,30.03,NW,310,7.0,17.0,62,0.00,,SCT250,0.00,VWS V14.01,2013-02-19 17:12:00,
2013-02-19 11:13:00,0.5,-9.4,30.03,West,278,9.0,17.0,62,0.00,,SCT250,0.00,VWS V14.01,2013-02-19 17:13:00,
2013-02-19 11:14:00,0.5,-9.4,30.03,WNW,297,5.0,17.0,62,0.00,,SCT250,0.00,VWS V14.01,2013-02-19 17:14:00,
2013-02-19 11:15:00,0.5,-9.8,30.04,WNW,286,6.0,17.0,61,0.00,,SCT250,0.00,VWS V14.01,2013-02-19 17:15:00,
2013-02-19 11:16:00,0.5,-9.8,30.04,West,266,10.0,17.0,61,0.00,,SCT250,0.00,VWS V14.01,2013-02-19 17:16:00,
2013-02-19 11:17:00,0.5,-9.8,30.04,WNW,294,11.0,17.0,61,0.00,,SCT250,0.00,VWS V14.01,2013-02-19 17:17:00,
2013-02-19 11:18:00,0.5,-9.8,30.04,WNW,290,2.0,17.0,61,0.00,,SCT250,0.00,VWS V14.01,2013-02-19 17:18:00,
2013-02-19 11:19:00,0.5,-9.8,30.04,WNW,290,5.0,17.0,61,0.00,,SCT250,0.00,VWS V14.01,2013-02-19 17:19:00,
2013-02-19 11:20:00,0.5,-9.8,30.04,WNW,302,5.0,17.0,61,0.00,,SCT250,0.00,VWS V14.01,2013-02-19 17:20:00,
2013-02-19 11:21:00,0.5,-9.8,30.04,West,276,8.0,17.0,61,0.00,,SCT250,0.00,VWS V14.01,2013-02-19 17:21:00,
2013-02-19 11:22:00,0.5,-9.8,30.04,West,274,8.0,17.0,61,0.00,,SCT250,0.00,VWS V14.01,2013-02-19 17:22:00,
2013-02-19 11:23:00,0.5,-9.8,30.04,WNW,302,6.0,17.0,61,0.00,,SCT250,0.00,VWS V14.01,2013-02-19 17:23:00,
2013-02-19 11:24:00,0.5,-9.8,30.04,WNW,302,9.0,17.0,61,0.00,,SCT250,0.00,VWS V14.01,2013-02-19 17:24:00,
2013-02-19 11:25:00,0.5,-9.8,30.04,West,278,0.0,17.0,61,0.00,,SCT250,0.00,VWS V14.01,2013-02-19 17:25:00,
2013-02-19 11:26:00,0.5,-9.8,30.04,West,280,1.0,17.0,61,0.00,,SCT250,0.00,VWS V14.01,2013-02-19 17:26:00,
2013-02-19 11:27:00,0.7,-9.6,30.04,WNW,295,10.0,17.0,61,0.00,,SCT250,0.00,VWS V14.01,2013-02-19 17:27:00,
2013-02-19 11:28:00,0.7,-9.6,30.04,West,280,2.0,17.0,61,0.00,,SCT250,0.00,VWS V14.01,2013-02-19 17:28:00,
2013-02-19 11:29:00,0.7,-9.6,30.04,WNW,295,2.0,17.0,61,0.00,,SCT250,0.00,VWS V14.01,2013-02-19 17:29:00,
2013-02-19 11:30:00,0.7,-9.6,30.05,WNW,287,0.0,17.0,61,0.00,,SCT250,0.00,VWS V14.01,2013-02-19 17:30:00,
2013-02-19 11:31:00,0.7,-9.6,30.05,WNW,301,1.0,19.0,61,0.00,,SCT250,0.00,VWS V14.01,2013-02-19 17:31:00,
2013-02-19 11:32:00,0.7,-9.6,30.05,NW,304,6.0,19.0,61,0.00,,SCT250,0.00,VWS V14.01,2013-02-19 17:32:00,
2013-02-19 11:33:00,0.7,-9.6,30.05,WNW,294,15.0,19.0,61,0.00,,SCT250,0.00,VWS V14.01,2013-02-19 17:33:00,
2013-02-19 11:34:00,0.7,-9.6,30.05,WNW,283,11.0,19.0,61,0.00,,SCT250,0.00,VWS V14.01,2013-02-19 17:34:00,
2013-02-19 11:35:00,0.7,-9.6,30.05,WNW,286,7.0,19.0,61,0.00,,SCT250,0.00,VWS V14.01,2013-02-19 17:35:00,
2013-02-19 11:36:00,0.7,-9.6,30.05,West,266,0.0,19.0,61,0.00,,SCT250,0.00,VWS V14.01,2013-02-19 17:36:00,
2013-02-19 11:37:00,0.7,-9.6,30.05,NW,307,22.0,22.0,61,0.00,,SCT250,0.00,VWS V14.01,2013-02-19 17:37:00,
2013-02-19 11:38:00,0.7,-9.9,30.05,NW,308,7.0,22.0,60,0.00,,SCT250,0.00,VWS V14.01,2013-02-19 17:38:00,
2013-02-19 11:39:00,0.7,-9.9,30.05,WNW,284,5.0,22.0,60,0.00,,SCT250,0.00,VWS V14.01,2013-02-19 17:39:00,
2013-02-19 11:40:00,0.9,-9.7,30.05,WNW,302,2.0,22.0,60,0.00,,SCT250,0.00,VWS V14.01,2013-02-19 17:40:00,
2013-02-19 11:41:00,0.7,-9.9,30.05,West,270,7.0,22.0,60,0.00,,SCT250,0.00,VWS V14.01,2013-02-19 17:41:00,
2013-02-19 11:42:00,0.7,-9.6,30.05,West,280,11.0,22.0,61,0.00,,SCT250,0.00,VWS V14.01,2013-02-19 17:42:00,
2013-02-19 11:43:00,0.9,-9.4,30.05,WNW,293,13.0,22.0,61,0.00,,SCT250,0.00,VWS V14.01,2013-02-19 17:43:00,
2013-02-19 11:44:00,0.9,-9.4,30.05,West,280,11.0,22.0,61,0.00,,SCT250,0.00,VWS V14.01,2013-02-19 17:44:00,
2013-02-19 11:45:00,0.9,-9.7,30.05,NNW,329,10.0,22.0,60,0.00,,SCT250,0.00,VWS V14.01,2013-02-19 17:45:00,
2013-02-19 11:46:00,1.1,-9.2,30.05,NNW,332,13.0,22.0,61,0.00,,SCT250,0.00,VWS V14.01,2013-02-19 17:46:00,
2013-02-19 11:47:00,1.1,-9.2,30.05,WNW,298,7.0,22.0,61,0.00,,SCT250,0.00,VWS V14.01,2013-02-19 17:47:00,
2013-02-19 11:48:00,1.3,-9.3,30.05,WNW,295,13.0,22.0,60,0.00,,SCT250,0.00,VWS V14.01,2013-02-19 17:48:00,
2013-02-19 11:49:00,1.3,-9.3,30.05,West,270,6.0,22.0,60,0.00,,SCT250,0.00,VWS V14.01,2013-02-19 17:49:00,
2013-02-19 11:50:00,1.1,-9.5,30.05,WNW,300,1.0,22.0,60,0.00,,SCT250,0.00,VWS V14.01,2013-02-19 17:50:00,
2013-02-19 11:51:00,1.1,-9.5,30.05,NW,304,12.0,22.0,60,0.00,,SCT250,0.00,VWS V14.01,2013-02-19 17:51:00,
2013-02-19 11:52:00,1.1,-9.5,30.05,WNW,287,15.0,22.0,60,0.00,,SCT250,0.00,VWS V14.01,2013-02-19 17:52:00,
2013-02-19 11:53:00,1.1,-9.5,30.05,WNW,284,2.0,22.0,60,0.00,,SCT250,0.00,VWS V14.01,2013-02-19 17:53:00,
2013-02-19 11:54:00,1.1,-9.5,30.05,WNW,288,1.0,22.0,60,0.00,,SCT250,0.00,VWS V14.01,2013-02-19 17:54:00,
2013-02-19 11:55:00,1.1,-9.2,30.05,WNW,283,1.0,22.0,61,0.00,,SCT250,0.00,VWS V14.01,2013-02-19 17:55:00,
2013-02-19 11:56:00,1.3,-9.0,30.05,NW,307,11.0,22.0,61,0.00,,SCT250,0.00,VWS V14.01,2013-02-19 17:56:00,
2013-02-19 11:57:00,1.3,-9.0,30.05,WNW,302,6.0,22.0,61,0.00,,SCT250,0.00,VWS V14.01,2013-02-19 17:57:00,
2013-02-19 11:58:00,1.3,-9.0,30.05,West,278,6.0,22.0,61,0.00,,SCT250,0.00,VWS V14.01,2013-02-19 17:58:00,
2013-02-19 11:59:00,1.3,-9.3,30.05,WNW,297,5.0,22.0,60,0.00,,SCT250,0.00,VWS V14.01,2013-02-19 17:59:00,
2013-02-19 12:00:00,1.3,-9.0,30.05,West,273,1.0,22.0,61,0.00,,SCT250,0.00,VWS V14.01,2013-02-19 18:00:00,
2013-02-19 12:01:00,1.1,-9.5,30.05,NW,312,16.0,16.0,60,0.00,,SCT250,0.00,VWS V14.01,2013-02-19 18:01:00,
2013-02-19 12:02:00,1.1,-9.5,30.05,West,270,7.0,16.0,60,0.00,,SCT250,0.00,VWS V14.01,2013-02-19 18:02:00,
2013-02-19 12:03:00,1.1,-9.5,30.05,West,266,0.0,16.0,60,0.00,,SCT250,0.00,VWS V14.01,2013-02-19 18:03:00,
2013-02-19 12:04:00,0.9,-9.7,30.05,WNW,293,18.0,18.0,60,0.00,,SCT250,0.00,VWS V14.01,2013-02-19 18:04:00,
2013-02-19 12:05:00,0.9,-9.7,30.05,West,270,3.0,18.0,60,0.00,,SCT250,0.00,VWS V14.01,2013-02-19 18:05:00,
2013-02-19 12:06:00,0.9,-9.7,30.05,West,280,12.0,18.0,60,0.00,,SCT250,0.00,VWS V14.01,2013-02-19 18:06:00,
2013-02-19 12:07:00,0.9,-9.7,30.05,WNW,284,5.0,19.0,60,0.00,,SCT250,0.00,VWS V14.01,2013-02-19 18:07:00,
2013-02-19 12:08:00,0.9,-9.7,30.05,West,270,5.0,19.0,60,0.00,,SCT250,0.00,VWS V14.01,2013-02-19 18:08:00,
2013-02-19 12:09:00,0.9,-9.7,30.05,WNW,300,11.0,19.0,60,0.00,,SCT250,0.00,VWS V14.01,2013-02-19 18:09:00,
2013-02-19 12:10:00,0.9,-9.7,30.05,WNW,293,2.0,19.0,60,0.00,,SCT250,0.00,VWS V14.01,2013-02-19 18:10:00,
2013-02-19 12:11:00,1.1,-9.5,30.05,WNW,293,3.0,19.0,60,0.00,,SCT250,0.00,VWS V14.01,2013-02-19 18:11:00,
2013-02-19 12:12:00,1.1,-9.5,30.05,NW,307,12.0,20.0,60,0.00,,SCT250,0.00,VWS V14.01,2013-02-19 18:12:00,
2013-02-19 12:13:00,1.1,-9.9,30.05,West,277,14.0,20.0,59,0.00,,SCT250,0.00,VWS V14.01,2013-02-19 18:13:00,
2013-02-19 12:14:00,0.9,-10.1,30.05,WNW,291,6.0,20.0,59,0.00,,SCT250,0.00,VWS V14.01,2013-02-19 18:14:00,
2013-02-19 12:15:00,0.9,-9.7,30.05,WNW,284,3.0,20.0,60,0.00,,SCT250,0.00,VWS V14.01,2013-02-19 18:15:00,
2013-02-19 12:16:00,0.9,-9.7,30.05,NW,308,6.0,20.0,60,0.00,,SCT250,0.00,VWS V14.01,2013-02-19 18:16:00,
2013-02-19 12:17:00,1.1,-9.2,30.05,West,270,1.0,20.0,61,0.00,,SCT250,0.00,VWS V14.01,2013-02-19 18:17:00,
2013-02-19 12:18:00,1.3,-9.0,30.05,WNW,284,17.0,20.0,61,0.00,,SCT250,0.00,VWS V14.01,2013-02-19 18:18:00,
2013-02-19 12:19:00,1.3,-9.3,30.05,WNW,290,5.0,20.0,60,0.00,,SCT250,0.00,VWS V14.01,2013-02-19 18:19:00,
2013-02-19 12:20:00,1.3,-9.0,30.05,West,271,17.0,20.0,61,0.00,,SCT250,0.00,VWS V14.01,2013-02-19 18:20:00,
2013-02-19 12:21:00,1.1,-9.5,30.05,WNW,291,13.0,20.0,60,0.00,,SCT250,0.00,VWS V14.01,2013-02-19 18:21:00,
2013-02-19 12:22:00,1.1,-9.2,30.05,WNW,291,11.0,20.0,61,0.00,,SCT250,0.00,VWS V14.01,2013-02-19 18:22:00,
2013-02-19 12:23:00,1.1,-9.2,30.05,West,273,0.0,20.0,61,0.00,,SCT250,0.00,VWS V14.01,2013-02-19 18:23:00,
2013-02-19 12:24:00,1.1,-9.5,30.05,West,270,12.0,20.0,60,0.00,,SCT250,0.00,VWS V14.01,2013-02-19 18:24:00,
2013-02-19 12:25:00,1.1,-9.5,30.05,West,278,8.0,20.0,60,0.00,,SCT250,0.00,VWS V14.01,2013-02-19 18:25:00,
2013-02-19 12:26:00,1.1,-9.5,30.05,WNW,294,15.0,20.0,60,0.00,,SCT250,0.00,VWS V14.01,2013-02-19 18:26:00,
2013-02-19 12:27:00,1.1,-9.5,30.05,WNW,283,11.0,20.0,60,0.00,,SCT250,0.00,VWS V14.01,2013-02-19 18:27:00,
2013-02-19 12:28:00,1.1,-9.5,30.05,WNW,297,7.0,21.0,60,0.00,,SCT250,0.00,VWS V14.01,2013-02-19 18:28:00,
2013-02-19 12:29:00,1.1,-9.5,30.05,WNW,297,13.0,21.0,60,0.00,,CLR,0.00,VWS V14.01,2013-02-19 18:29:00,
2013-02-19 12:30:00,1.1,-9.5,30.05,West,264,10.0,21.0,60,0.00,,CLR,0.00,VWS V14.01,2013-02-19 18:30:00,
2013-02-19 12:31:00,1.1,-9.5,30.05,WNW,297,12.0,12.0,60,0.00,,CLR,0.00,VWS V14.01,2013-02-19 18:31:00,
2013-02-19 12:32:00,1.1,-9.5,30.05,West,273,11.0,14.0,60,0.00,,CLR,0.00,VWS V14.01,2013-02-19 18:32:00,
2013-02-19 12:33:00,1.1,-9.5,30.05,WNW,283,4.0,14.0,60,0.00,,CLR,0.00,VWS V14.01,2013-02-19 18:33:00,
2013-02-19 12:34:00,1.1,-9.5,30.05,West,280,5.0,16.0,60,0.00,,CLR,0.00,VWS V14.01,2013-02-19 18:34:00,
2013-02-19 12:35:00,1.1,-9.5,30.05,West,276,8.0,17.0,60,0.00,,CLR,0.00,VWS V14.01,2013-02-19 18:35:00,
2013-02-19 12:36:00,1.1,-9.5,30.05,WNW,283,10.0,17.0,60,0.00,,CLR,0.00,VWS V14.01,2013-02-19 18:36:00,
2013-02-19 12:37:00,1.3,-9.3,30.05,WNW,290,8.0,18.0,60,0.00,,CLR,0.00,VWS V14.01,2013-02-19 18:37:00,
2013-02-19 12:38:00,1.3,-9.3,30.05,West,281,10.0,18.0,60,0.00,,CLR,0.00,VWS V14.01,2013-02-19 18:38:00,
2013-02-19 12:39:00,1.5,-9.1,30.05,West,269,5.0,18.0,60,0.00,,CLR,0.00,VWS V14.01,2013-02-19 18:39:00,
2013-02-19 12:40:00,1.5,-9.1,30.05,West,270,12.0,18.0,60,0.00,,CLR,0.00,VWS V14.01,2013-02-19 18:40:00,
2013-02-19 12:41:00,1.5,-9.5,30.05,WNW,297,16.0,18.0,59,0.00,,CLR,0.00,VWS V14.01,2013-02-19 18:41:00,
2013-02-19 12:42:00,1.3,-9.7,30.05,WNW,300,18.0,19.0,59,0.00,,CLR,0.00,VWS V14.01,2013-02-19 18:42:00,
2013-02-19 12:43:00,1.3,-9.3,30.05,WNW,301,16.0,19.0,60,0.00,,CLR,0.00,VWS V14.01,2013-02-19 18:43:00,
2013-02-19 12:44:00,1.3,-9.7,30.05,NW,307,6.0,19.0,59,0.00,,CLR,0.00,VWS V14.01,2013-02-19 18:44:00,
2013-02-19 12:45:00,1.5,-9.1,30.05,West,270,12.0,19.0,60,0.00,,CLR,0.00,VWS V14.01,2013-02-19 18:45:00,
2013-02-19 12:46:00,1.5,-9.5,30.05,WNW,302,18.0,19.0,59,0.00,,CLR,0.00,VWS V14.01,2013-02-19 18:46:00,
2013-02-19 12:47:00,1.5,-9.1,30.05,NW,305,13.0,19.0,60,0.00,,CLR,0.00,VWS V14.01,2013-02-19 18:47:00,
2013-02-19 12:48:00,1.7,-9.3,30.05,WNW,284,13.0,19.0,59,0.00,,CLR,0.00,VWS V14.01,2013-02-19 18:48:00,
2013-02-19 12:49:00,1.5,-9.8,30.05,NW,314,3.0,19.0,58,0.00,,CLR,0.00,VWS V14.01,2013-02-19 18:49:00,
2013-02-19 12:50:00,1.5,-9.5,30.05,West,270,11.0,19.0,59,0.00,,CLR,0.00,VWS V14.01,2013-02-19 18:50:00,
2013-02-19 12:51:00,1.5,-9.5,30.05,WNW,283,12.0,19.0,59,0.00,,CLR,0.00,VWS V14.01,2013-02-19 18:51:00,
2013-02-19 12:52:00,1.5,-9.5,30.05,NW,308,14.0,19.0,59,0.00,,CLR,0.00,VWS V14.01,2013-02-19 18:52:00,
2013-02-19 12:53:00,1.5,-9.5,30.05,WNW,288,15.0,19.0,59,0.00,,CLR,0.00,VWS V14.01,2013-02-19 18:53:00,
2013-02-19 12:54:00,1.3,-9.7,30.05,West,270,11.0,19.0,59,0.00,,CLR,0.00,VWS V14.01,2013-02-19 18:54:00,
2013-02-19 12:55:00,1.3,-9.7,30.05,West,274,12.0,19.0,59,0.00,,CLR,0.00,VWS V14.01,2013-02-19 18:55:00,
2013-02-19 12:56:00,1.3,-9.7,30.05,WNW,284,1.0,19.0,59,0.00,,CLR,0.00,VWS V14.01,2013-02-19 18:56:00,
2013-02-19 12:57:00,1.3,-9.3,30.05,West,270,10.0,19.0,60,0.00,,CLR,0.00,VWS V14.01,2013-02-19 18:57:00,
2013-02-19 12:58:00,1.3,-9.3,30.05,West,270,6.0,19.0,60,0.00,,CLR,0.00,VWS V14.01,2013-02-19 18:58:00,
2013-02-19 12:59:00,1.3,-9.3,30.05,WNW,293,3.0,19.0,60,0.00,,CLR,0.00,VWS V14.01,2013-02-19 18:59:00,
2013-02-19 13:00:00,1.5,-9.1,30.05,West,270,1.0,19.0,60,0.00,,CLR,0.00,VWS V14.01,2013-02-19 19:00:00,
2013-02-19 13:01:00,1.5,-9.1,30.05,WNW,297,10.0,11.0,60,0.00,,CLR,0.00,VWS V14.01,2013-02-19 19:01:00,
2013-02-19 13:02:00,1.7,-9.0,30.05,WNW,291,11.0,14.0,60,0.00,,CLR,0.00,VWS V14.01,2013-02-19 19:02:00,
2013-02-19 13:03:00,1.8,-8.9,30.05,WNW,291,12.0,14.0,60,0.00,,CLR,0.00,VWS V14.01,2013-02-19 19:03:00,
2013-02-19 13:04:00,1.8,-9.2,30.05,West,271,8.0,14.0,59,0.00,,CLR,0.00,VWS V14.01,2013-02-19 19:04:00,
2013-02-19 13:05:00,1.8,-9.2,30.05,West,273,6.0,16.0,59,0.00,,CLR,0.00,VWS V14.01,2013-02-19 19:05:00,
2013-02-19 13:06:00,1.8,-9.2,30.05,NW,305,7.0,16.0,59,0.00,,CLR,0.00,VWS V14.01,2013-02-19 19:06:00,
2013-02-19 13:07:00,1.8,-9.2,30.05,NW,314,7.0,16.0,59,0.00,,CLR,0.00,VWS V14.01,2013-02-19 19:07:00,
2013-02-19 13:08:00,1.8,-9.2,30.05,WNW,290,2.0,16.0,59,0.00,,CLR,0.00,VWS V14.01,2013-02-19 19:08:00,
2013-02-19 13:09:00,1.8,-9.2,30.05,NW,321,10.0,16.0,59,0.00,,CLR,0.00,VWS V14.01,2013-02-19 19:09:00,
2013-02-19 13:10:00,1.8,-9.2,30.05,WNW,293,5.0,16.0,59,0.00,,CLR,0.00,VWS V14.01,2013-02-19 19:10:00,
2013-02-19 13:11:00,1.8,-9.2,30.05,WNW,298,14.0,16.0,59,0.00,,CLR,0.00,VWS V14.01,2013-02-19 19:11:00,
2013-02-19 13:12:00,1.7,-9.3,30.05,West,276,9.0,16.0,59,0.00,,CLR,0.00,VWS V14.01,2013-02-19 19:12:00,
2013-02-19 13:13:00,1.7,-9.0,30.05,West,270,7.0,16.0,60,0.00,,CLR,0.00,VWS V14.01,2013-02-19 19:13:00,
2013-02-19 13:14:00,1.7,-9.3,30.05,West,273,10.0,16.0,59,0.00,,CLR,0.00,VWS V14.01,2013-02-19 19:14:00,
2013-02-19 13:15:00,1.7,-9.3,30.06,WNW,283,6.0,16.0,59,0.00,,CLR,0.00,VWS V14.01,2013-02-19 19:15:00,
2013-02-19 13:16:00,1.7,-9.3,30.06,NW,307,10.0,16.0,59,0.00,,CLR,0.00,VWS V14.01,2013-02-19 19:16:00,
2013-02-19 13:17:00,1.7,-9.3,30.06,WNW,288,2.0,16.0,59,0.00,,CLR,0.00,VWS V14.01,2013-02-19 19:17:00,
2013-02-19 13:18:00,1.7,-9.3,30.06,West,271,8.0,17.0,59,0.00,,CLR,0.00,VWS V14.01,2013-02-19 19:18:00,
2013-02-19 13:19:00,1.8,-9.2,30.06,WNW,293,11.0,17.0,59,0.00,,CLR,0.00,VWS V14.01,2013-02-19 19:19:00,
2013-02-19 13:20:00,1.8,-9.2,30.06,WNW,288,2.0,17.0,59,0.00,,CLR,0.00,VWS V14.01,2013-02-19 19:20:00,
2013-02-19 13:21:00,1.8,-8.9,30.06,West,270,8.0,17.0,60,0.00,,CLR,0.00,VWS V14.01,2013-02-19 19:21:00,
2013-02-19 13:22:00,1.8,-9.2,30.06,WNW,284,5.0,17.0,59,0.00,,CLR,0.00,VWS V14.01,2013-02-19 19:22:00,
2013-02-19 13:23:00,1.8,-8.9,30.06,WNW,288,5.0,17.0,60,0.00,,CLR,0.00,VWS V14.01,2013-02-19 19:23:00,
2013-02-19 13:24:00,2.0,-8.7,30.06,WNW,287,12.0,17.0,60,0.00,,CLR,0.00,VWS V14.01,2013-02-19 19:24:00,
2013-02-19 13:25:00,2.0,-8.7,30.06,WNW,297,2.0,17.0,60,0.00,,CLR,0.00,VWS V14.01,2013-02-19 19:25:00,
2013-02-19 13:26:00,2.2,-8.8,30.06,West,277,5.0,17.0,59,0.00,,CLR,0.00,VWS V14.01,2013-02-19 19:26:00,
2013-02-19 13:27:00,2.2,-8.8,30.06,West,277,12.0,17.0,59,0.00,,CLR,0.00,VWS V14.01,2013-02-19 19:27:00,
2013-02-19 13:28:00,2.2,-8.8,30.06,West,276,9.0,17.0,59,0.00,,CLR,0.00,VWS V14.01,2013-02-19 19:28:00,
2013-02-19 13:29:00,2.4,-8.6,30.06,WNW,288,2.0,17.0,59,0.00,,CLR,0.00,VWS V14.01,2013-02-19 19:29:00,
2013-02-19 13:30:00,2.4,-8.6,30.06,West,274,6.0,17.0,59,0.00,,CLR,0.00,VWS V14.01,2013-02-19 19:30:00,
2013-02-19 13:31:00,2.6,-8.4,30.06,West,270,2.0,14.0,59,0.00,,CLR,0.00,VWS V14.01,2013-02-19 19:31:00,
2013-02-19 13:32:00,2.6,-8.8,30.06,West,280,2.0,18.0,58,0.00,,CLR,0.00,VWS V14.01,2013-02-19 19:32:00,
2013-02-19 13:33:00,2.4,-9.0,30.06,West,263,7.0,18.0,58,0.00,,CLR,0.00,VWS V14.01,2013-02-19 19:33:00,
2013-02-19 13:34:00,2.4,-9.0,30.06,WNW,301,0.0,18.0,58,0.00,,CLR,0.00,VWS V14.01,2013-02-19 19:34:00,
2013-02-19 13:35:00,2.4,-8.6,30.06,WNW,286,7.0,18.0,59,0.00,,CLR,0.00,VWS V14.01,2013-02-19 19:35:00,
2013-02-19 13:36:00,2.4,-9.0,30.06,NW,307,17.0,18.0,58,0.00,,CLR,0.00,VWS V14.01,2013-02-19 19:36:00,
2013-02-19 13:37:00,2.2,-9.2,30.06,WNW,284,11.0,18.0,58,0.00,,CLR,0.00,VWS V14.01,2013-02-19 19:37:00,
2013-02-19 13:38:00,2.2,-8.8,30.06,West,270,3.0,18.0,59,0.00,,CLR,0.00,VWS V14.01,2013-02-19 19:38:00,
2013-02-19 13:39:00,2.2,-9.2,30.06,West,274,6.0,18.0,58,0.00,,CLR,0.00,VWS V14.01,2013-02-19 19:39:00,
2013-02-19 13:40:00,2.0,-9.4,30.06,West,274,6.0,18.0,58,0.00,,CLR,0.00,VWS V14.01,2013-02-19 19:40:00,
2013-02-19 13:41:00,2.0,-9.4,30.06,West,270,0.0,18.0,58,0.00,,CLR,0.00,VWS V14.01,2013-02-19 19:41:00,
2013-02-19 13:42:00,2.0,-9.0,30.06,West,274,8.0,18.0,59,0.00,,CLR,0.00,VWS V14.01,2013-02-19 19:42:00,
2013-02-19 13:43:00,2.0,-9.4,30.06,WNW,283,11.0,18.0,58,0.00,,CLR,0.00,VWS V14.01,2013-02-19 19:43:00,
2013-02-19 13:44:00,2.0,-9.0,30.06,WNW,287,6.0,18.0,59,0.00,,CLR,0.00,VWS V14.01,2013-02-19 19:44:00,
2013-02-19 13:45:00,2.2,-8.8,30.06,WNW,286,5.0,18.0,59,0.00,,CLR,0.00,VWS V14.01,2013-02-19 19:45:00,
2013-02-19 13:46:00,2.2,-9.2,30.06,West,266,1.0,18.0,58,0.00,,CLR,0.00,VWS V14.01,2013-02-19 19:46:00,
2013-02-19 13:47:00,2.2,-9.2,30.06,WNW,288,6.0,18.0,58,0.00,,CLR,0.00,VWS V14.01,2013-02-19 19:47:00,
2013-02-19 13:48:00,2.4,-8.6,30.06,West,280,7.0,18.0,59,0.00,,CLR,0.00,VWS V14.01,2013-02-19 19:48:00,
2013-02-19 13:49:00,2.4,-9.0,30.06,WNW,284,6.0,18.0,58,0.00,,CLR,0.00,VWS V14.01,2013-02-19 19:49:00,
2013-02-19 13:50:00,2.4,-9.0,30.06,WNW,297,8.0,18.0,58,0.00,,CLR,0.00,VWS V14.01,2013-02-19 19:50:00,
2013-02-19 13:51:00,2.6,-8.8,30.06,WNW,283,13.0,18.0,58,0.00,,CLR,0.00,VWS V14.01,2013-02-19 19:51:00,
2013-02-19 13:52:00,2.6,-8.8,30.06,WNW,284,7.0,18.0,58,0.00,,CLR,0.00,VWS V14.01,2013-02-19 19:52:00,
2013-02-19 13:53:00,2.4,-9.0,30.06,WNW,287,12.0,18.0,58,0.00,,CLR,0.00,VWS V14.01,2013-02-19 19:53:00,
2013-02-19 13:54:00,2.6,-8.8,30.06,WNW,284,0.0,18.0,58,0.00,,CLR,0.00,VWS V14.01,2013-02-19 19:54:00,
2013-02-19 13:55:00,2.6,-8.8,30.06,NW,312,12.0,18.0,58,0.00,,CLR,0.00,VWS V14.01,2013-02-19 19:55:00,
2013-02-19 13:56:00,2.6,-8.8,30.06,NW,311,9.0,18.0,58,0.00,,CLR,0.00,VWS V14.01,2013-02-19 19:56:00,
2013-02-19 13:57:00,2.6,-8.8,30.06,West,269,2.0,18.0,58,0.00,,CLR,0.00,VWS V14.01,2013-02-19 19:57:00,
2013-02-19 13:58:00,2.6,-8.8,30.06,West,270,16.0,18.0,58,0.00,,CLR,0.00,VWS V14.01,2013-02-19 19:58:00,
2013-02-19 13:59:00,2.6,-8.8,30.06,WNW,294,7.0,18.0,58,0.00,,CLR,0.00,VWS V14.01,2013-02-19 19:59:00,
2013-02-19 14:00:00,2.6,-8.8,30.07,WNW,295,2.0,18.0,58,0.00,,CLR,0.00,VWS V14.01,2013-02-19 20:00:00,
2013-02-19 14:01:00,2.6,-8.8,30.07,West,281,16.0,16.0,58,0.00,,CLR,0.00,VWS V14.01,2013-02-19 20:01:00,
2013-02-19 14:02:00,2.6,-8.8,30.07,WNW,288,10.0,19.0,58,0.00,,CLR,0.00,VWS V14.01,2013-02-19 20:02:00,
2013-02-19 14:03:00,2.6,-8.8,30.07,NW,326,5.0,20.0,58,0.00,,CLR,0.00,VWS V14.01,2013-02-19 20:03:00,
2013-02-19 14:04:00,2.8,-8.6,30.07,WNW,283,6.0,20.0,58,0.00,,CLR,0.00,VWS V14.01,2013-02-19 20:04:00,
2013-02-19 14:05:00,2.8,-9.0,30.07,WNW,291,10.0,20.0,57,0.00,,CLR,0.00,VWS V14.01,2013-02-19 20:05:00,
2013-02-19 14:06:00,2.8,-9.0,30.07,West,276,7.0,20.0,57,0.00,,CLR,0.00,VWS V14.01,2013-02-19 20:06:00,
2013-02-19 14:07:00,2.8,-9.3,30.07,West,270,5.0,20.0,56,0.00,,CLR,0.00,VWS V14.01,2013-02-19 20:07:00,
2013-02-19 14:08:00,2.8,-9.0,30.07,NNW,334,18.0,20.0,57,0.00,,CLR,0.00,VWS V14.01,2013-02-19 20:08:00,
2013-02-19 14:09:00,3.0,-8.8,30.07,West,271,11.0,20.0,57,0.00,,CLR,0.00,VWS V14.01,2013-02-19 20:09:00,
2013-02-19 14:10:00,3.0,-8.8,30.07,NW,314,3.0,20.0,57,0.00,,CLR,0.00,VWS V14.01,2013-02-19 20:10:00,
2013-02-19 14:11:00,3.0,-8.8,30.07,WNW,287,2.0,20.0,57,0.00,,CLR,0.00,VWS V14.01,2013-02-19 20:11:00,
2013-02-19 14:12:00,3.0,-8.8,30.07,WNW,287,11.0,20.0,57,0.00,,CLR,0.00,VWS V14.01,2013-02-19 20:12:00,
2013-02-19 14:13:00,3.0,-8.8,30.07,WNW,290,0.0,20.0,57,0.00,,CLR,0.00,VWS V14.01,2013-02-19 20:13:00,
2013-02-19 14:14:00,3.0,-8.4,30.07,West,276,7.0,20.0,58,0.00,,CLR,0.00,VWS V14.01,2013-02-19 20:14:00,
2013-02-19 14:15:00,3.0,-8.8,30.08,West,281,1.0,20.0,57,0.00,,CLR,0.00,VWS V14.01,2013-02-19 20:15:00,
2013-02-19 14:16:00,3.2,-8.2,30.08,WNW,284,15.0,20.0,58,0.00,,CLR,0.00,VWS V14.01,2013-02-19 20:16:00,
2013-02-19 14:17:00,3.0,-8.8,30.08,WNW,284,14.0,20.0,57,0.00,,CLR,0.00,VWS V14.01,2013-02-19 20:17:00,
2013-02-19 14:18:00,2.8,-9.0,30.08,WNW,291,14.0,20.0,57,0.00,,CLR,0.00,VWS V14.01,2013-02-19 20:18:00,
2013-02-19 14:19:00,2.8,-9.0,30.08,WNW,297,16.0,20.0,57,0.00,,CLR,0.00,VWS V14.01,2013-02-19 20:19:00,
2013-02-19 14:20:00,2.6,-9.1,30.08,WNW,301,15.0,20.0,57,0.00,,CLR,0.00,VWS V14.01,2013-02-19 20:20:00,
2013-02-19 14:21:00,2.6,-9.1,30.08,WNW,291,4.0,20.0,57,0.00,,CLR,0.00,VWS V14.01,2013-02-19 20:21:00,
2013-02-19 14:22:00,2.8,-9.0,30.08,West,280,8.0,20.0,57,0.00,,CLR,0.00,VWS V14.01,2013-02-19 20:22:00,
2013-02-19 14:23:00,2.8,-8.6,30.08,WNW,300,1.0,20.0,58,0.00,,CLR,0.00,VWS V14.01,2013-02-19 20:23:00,
2013-02-19 14:24:00,3.0,-8.4,30.08,West,281,3.0,20.0,58,0.00,,CLR,0.00,VWS V14.01,2013-02-19 20:24:00,
2013-02-19 14:25:00,3.0,-8.8,30.08,WNW,302,18.0,20.0,57,0.00,,CLR,0.00,VWS V14.01,2013-02-19 20:25:00,
2013-02-19 14:26:00,3.0,-8.8,30.08,NNW,342,5.0,20.0,57,0.00,,CLR,0.00,VWS V14.01,2013-02-19 20:26:00,
2013-02-19 14:27:00,3.0,-8.8,30.08,WNW,295,10.0,20.0,57,0.00,,CLR,0.00,VWS V14.01,2013-02-19 20:27:00,
2013-02-19 14:28:00,3.0,-8.8,30.08,NW,305,8.0,20.0,57,0.00,,CLR,0.00,VWS V14.01,2013-02-19 20:28:00,
2013-02-19 14:29:00,3.0,-8.4,30.08,West,277,11.0,20.0,58,0.00,,CLR,0.00,VWS V14.01,2013-02-19 20:29:00,
2013-02-19 14:30:00,3.0,-8.8,30.08,WNW,294,13.0,20.0,57,0.00,,CLR,0.00,VWS V14.01,2013-02-19 20:30:00,
2013-02-19 14:31:00,3.0,-8.8,30.08,West,277,5.0,10.0,57,0.00,,CLR,0.00,VWS V14.01,2013-02-19 20:31:00,
2013-02-19 14:32:00,3.0,-8.8,30.08,WNW,294,3.0,16.0,57,0.00,,CLR,0.00,VWS V14.01,2013-02-19 20:32:00,
2013-02-19 14:33:00,3.0,-8.8,30.08,WNW,283,1.0,16.0,57,0.00,,CLR,0.00,VWS V14.01,2013-02-19 20:33:00,
2013-02-19 14:34:00,3.0,-8.8,30.08,West,278,5.0,18.0,57,0.00,,CLR,0.00,VWS V14.01,2013-02-19 20:34:00,
2013-02-19 14:35:00,3.0,-8.8,30.08,West,270,3.0,18.0,57,0.00,,CLR,0.00,VWS V14.01,2013-02-19 20:35:00,
2013-02-19 14:36:00,2.8,-9.0,30.08,West,281,0.0,18.0,57,0.00,,CLR,0.00,VWS V14.01,2013-02-19 20:36:00,
2013-02-19 14:37:00,2.8,-9.3,30.08,WNW,301,10.0,18.0,56,0.00,,CLR,0.00,VWS V14.01,2013-02-19 20:37:00,
2013-02-19 14:38:00,2.8,-9.0,30.08,WNW,293,11.0,18.0,57,0.00,,CLR,0.00,VWS V14.01,2013-02-19 20:38:00,
2013-02-19 14:39:00,2.8,-9.0,30.08,West,273,12.0,18.0,57,0.00,,CLR,0.00,VWS V14.01,2013-02-19 20:39:00,
2013-02-19 14:40:00,3.0,-8.8,30.08,WNW,300,8.0,18.0,57,0.00,,CLR,0.00,VWS V14.01,2013-02-19 20:40:00,
2013-02-19 14:41:00,3.0,-8.8,30.08,West,278,8.0,18.0,57,0.00,,CLR,0.00,VWS V14.01,2013-02-19 20:41:00,
2013-02-19 14:42:00,3.0,-8.8,30.08,West,270,13.0,18.0,57,0.00,,CLR,0.00,VWS V14.01,2013-02-19 20:42:00,
2013-02-19 14:43:00,3.2,-8.2,30.08,NNW,331,7.0,18.0,58,0.00,,CLR,0.00,VWS V14.01,2013-02-19 20:43:00,
2013-02-19 14:44:00,3.4,-8.8,30.08,WNW,290,7.0,18.0,56,0.00,,CLR,0.00,VWS V14.01,2013-02-19 20:44:00,
2013-02-19 14:45:00,3.2,-9.3,30.08,NW,308,12.0,18.0,55,0.00,,CLR,0.00,VWS V14.01,2013-02-19 20:45:00,
2013-02-19 14:46:00,3.0,-9.1,30.08,WNW,301,11.0,24.0,56,0.00,,CLR,0.00,VWS V14.01,2013-02-19 20:46:00,
2013-02-19 14:47:00,3.0,-9.5,30.08,West,270,12.0,24.0,55,0.00,,CLR,0.00,VWS V14.01,2013-02-19 20:47:00,
2013-02-19 14:48:00,2.8,-9.7,30.08,WNW,283,13.0,24.0,55,0.00,,CLR,0.00,VWS V14.01,2013-02-19 20:48:00,
2013-02-19 14:49:00,2.6,-9.9,30.08,West,281,1.0,24.0,55,0.00,,CLR,0.00,VWS V14.01,2013-02-19 20:49:00,
2013-02-19 14:50:00,2.8,-9.3,30.08,WNW,301,1.0,24.0,56,0.00,,CLR,0.00,VWS V14.01,2013-02-19 20:50:00,
2013-02-19 14:51:00,3.0,-9.1,30.08,NW,311,6.0,24.0,56,0.00,,CLR,0.00,VWS V14.01,2013-02-19 20:51:00,
2013-02-19 14:52:00,3.0,-9.1,30.08,NW,319,2.0,24.0,56,0.00,,CLR,0.00,VWS V14.01,2013-02-19 20:52:00,
2013-02-19 14:53:00,3.0,-9.1,30.08,WNW,293,1.0,24.0,56,0.00,,CLR,0.00,VWS V14.01,2013-02-19 20:53:00,
2013-02-19 14:54:00,3.2,-8.6,30.08,NNW,328,17.0,24.0,57,0.00,,CLR,0.00,VWS V14.01,2013-02-19 20:54:00,
2013-02-19 14:55:00,3.4,-8.8,30.08,NNW,331,11.0,24.0,56,0.00,,CLR,0.00,VWS V14.01,2013-02-19 20:55:00,
2013-02-19 14:56:00,3.4,-9.1,30.08,WNW,302,7.0,24.0,55,0.00,,CLR,0.00,VWS V14.01,2013-02-19 20:56:00,
2013-02-19 14:57:00,3.4,-8.8,30.08,West,277,1.0,24.0,56,0.00,,CLR,0.00,VWS V14.01,2013-02-19 20:57:00,
2013-02-19 14:58:00,3.4,-8.8,30.08,WNW,300,1.0,24.0,56,0.00,,CLR,0.00,VWS V14.01,2013-02-19 20:58:00,
2013-02-19 14:59:00,3.4,-8.4,30.08,WNW,300,13.0,24.0,57,0.00,,CLR,0.00,VWS V14.01,2013-02-19 20:59:00,
2013-02-19 15:00:00,3.4,-9.1,30.09,WNW,288,1.0,24.0,55,0.00,,CLR,0.00,VWS V14.01,2013-02-19 21:00:00,
2013-02-19 15:01:00,3.2,-8.9,30.09,WNW,293,14.0,14.0,56,0.00,,CLR,0.00,VWS V14.01,2013-02-19 21:01:00,
2013-02-19 15:02:00,3.0,-9.1,30.09,WNW,293,7.0,16.0,56,0.00,,CLR,0.00,VWS V14.01,2013-02-19 21:02:00,
2013-02-19 15:03:00,2.8,-9.7,30.09,WNW,293,8.0,16.0,55,0.00,,CLR,0.00,VWS V14.01,2013-02-19 21:03:00,
2013-02-19 15:04:00,2.8,-9.3,30.09,NNW,338,13.0,16.0,56,0.00,,CLR,0.00,VWS V14.01,2013-02-19 21:04:00,
2013-02-19 15:05:00,3.0,-9.1,30.09,WNW,298,8.0,16.0,56,0.00,,CLR,0.00,VWS V14.01,2013-02-19 21:05:00,
2013-02-19 15:06:00,3.0,-9.5,30.09,North,360,14.0,16.0,55,0.00,,CLR,0.00,VWS V14.01,2013-02-19 21:06:00,
2013-02-19 15:07:00,3.2,-9.3,30.09,WNW,286,2.0,17.0,55,0.00,,CLR,0.00,VWS V14.01,2013-02-19 21:07:00,
2013-02-19 15:08:00,3.2,-8.9,30.09,NW,310,10.0,17.0,56,0.00,,CLR,0.00,VWS V14.01,2013-02-19 21:08:00,
2013-02-19 15:09:00,3.4,-9.1,30.09,WNW,300,1.0,17.0,55,0.00,,CLR,0.00,VWS V14.01,2013-02-19 21:09:00,
2013-02-19 15:10:00,3.4,-9.1,30.09,WNW,295,3.0,17.0,55,0.00,,CLR,0.00,VWS V14.01,2013-02-19 21:10:00,
2013-02-19 15:11:00,3.5,-9.0,30.09,NW,304,6.0,17.0,55,0.00,,CLR,0.00,VWS V14.01,2013-02-19 21:11:00,
2013-02-19 15:12:00,3.4,-9.1,30.09,NW,325,2.0,17.0,55,0.00,,CLR,0.00,VWS V14.01,2013-02-19 21:12:00,
2013-02-19 15:13:00,3.4,-9.1,30.09,West,274,3.0,17.0,55,0.00,,CLR,0.00,VWS V14.01,2013-02-19 21:13:00,
2013-02-19 15:14:00,3.2,-9.3,30.09,WNW,284,4.0,17.0,55,0.00,,CLR,0.00,VWS V14.01,2013-02-19 21:14:00,
2013-02-19 15:15:00,3.0,-9.1,30.09,West,280,3.0,17.0,56,0.00,,CLR,0.00,VWS V14.01,2013-02-19 21:15:00,
2013-02-19 15:16:00,3.0,-9.1,30.09,West,278,1.0,17.0,56,0.00,,CLR,0.00,VWS V14.01,2013-02-19 21:16:00,
2013-02-19 15:17:00,3.0,-9.1,30.09,WNW,293,7.0,17.0,56,0.00,,CLR,0.00,VWS V14.01,2013-02-19 21:17:00,
2013-02-19 15:18:00,3.0,-9.1,30.09,WNW,298,12.0,17.0,56,0.00,,CLR,0.00,VWS V14.01,2013-02-19 21:18:00,
2013-02-19 15:19:00,3.0,-9.1,30.09,WNW,302,1.0,17.0,56,0.00,,CLR,0.00,VWS V14.01,2013-02-19 21:19:00,
2013-02-19 15:20:00,3.0,-8.8,30.09,NNW,329,0.0,17.0,57,0.00,,CLR,0.00,VWS V14.01,2013-02-19 21:20:00,
2013-02-19 15:21:00,3.2,-8.6,30.09,WNW,283,1.0,17.0,57,0.00,,CLR,0.00,VWS V14.01,2013-02-19 21:21:00,
2013-02-19 15:22:00,3.2,-8.9,30.09,WNW,287,1.0,17.0,56,0.00,,CLR,0.00,VWS V14.01,2013-02-19 21:22:00,
2013-02-19 15:23:00,3.2,-8.9,30.09,NNW,335,6.0,17.0,56,0.00,,CLR,0.00,VWS V14.01,2013-02-19 21:23:00,
2013-02-19 15:24:00,3.5,-8.7,30.09,NW,305,0.0,17.0,56,0.00,,CLR,0.00,VWS V14.01,2013-02-19 21:24:00,
2013-02-19 15:25:00,3.4,-9.1,30.09,WNW,301,10.0,17.0,55,0.00,,CLR,0.00,VWS V14.01,2013-02-19 21:25:00,
2013-02-19 15:26:00,3.2,-9.7,30.09,West,280,17.0,17.0,54,0.00,,CLR,0.00,VWS V14.01,2013-02-19 21:26:00,
2013-02-19 15:27:00,3.2,-9.7,30.09,NW,315,12.0,17.0,54,0.00,,CLR,0.00,VWS V14.01,2013-02-19 21:27:00,
2013-02-19 15:28:00,3.2,-9.3,30.09,West,278,6.0,17.0,55,0.00,,CLR,0.00,VWS V14.01,2013-02-19 21:28:00,
2013-02-19 15:29:00,3.2,-9.7,30.09,West,271,8.0,17.0,54,0.00,,CLR,0.00,VWS V14.01,2013-02-19 21:29:00,
2013-02-19 15:30:00,3.2,-9.3,30.10,West,271,6.0,17.0,55,0.00,,CLR,0.00,VWS V14.01,2013-02-19 21:30:00,
2013-02-19 15:31:00,3.2,-9.3,30.10,West,278,3.0,11.0,55,0.00,,CLR,0.00,VWS V14.01,2013-02-19 21:31:00,
2013-02-19 15:32:00,3.2,-9.3,30.10,WNW,288,6.0,11.0,55,0.00,,CLR,0.00,VWS V14.01,2013-02-19 21:32:00,
2013-02-19 15:33:00,3.2,-9.3,30.10,WNW,301,1.0,11.0,55,0.00,,CLR,0.00,VWS V14.01,2013-02-19 21:33:00,
2013-02-19 15:34:00,3.2,-9.3,30.10,WNW,291,0.0,12.0,55,0.00,,CLR,0.00,VWS V14.01,2013-02-19 21:34:00,
2013-02-19 15:35:00,3.2,-9.3,30.10,WNW,283,10.0,12.0,55,0.00,,CLR,0.00,VWS V14.01,2013-02-19 21:35:00,
2013-02-19 15:36:00,3.0,-9.5,30.10,West,270,8.0,16.0,55,0.00,,CLR,0.00,VWS V14.01,2013-02-19 21:36:00,
2013-02-19 15:37:00,3.0,-9.5,30.10,NW,317,6.0,16.0,55,0.00,,CLR,0.00,VWS V14.01,2013-02-19 21:37:00,
2013-02-19 15:38:00,3.0,-9.1,30.10,West,281,7.0,16.0,56,0.00,,CLR,0.00,VWS V14.01,2013-02-19 21:38:00,
2013-02-19 15:39:00,3.0,-9.5,30.10,West,267,0.0,16.0,55,0.00,,CLR,0.00,VWS V14.01,2013-02-19 21:39:00,
2013-02-19 15:40:00,3.0,-9.5,30.10,NW,322,14.0,16.0,55,0.00,,CLR,0.00,VWS V14.01,2013-02-19 21:40:00,
2013-02-19 15:41:00,3.0,-9.1,30.10,NW,319,15.0,16.0,56,0.00,,CLR,0.00,VWS V14.01,2013-02-19 21:41:00,
2013-02-19 15:42:00,3.0,-9.5,30.10,NNW,334,18.0,19.0,55,0.00,,CLR,0.00,VWS V14.01,2013-02-19 21:42:00,
2013-02-19 15:43:00,3.0,-9.9,30.10,West,278,12.0,19.0,54,0.00,,CLR,0.00,VWS V14.01,2013-02-19 21:43:00,
2013-02-19 15:44:00,2.8,-10.1,30.10,NW,317,20.0,20.0,54,0.00,,CLR,0.00,VWS V14.01,2013-02-19 21:44:00,
2013-02-19 15:45:00,2.8,-9.7,30.11,NW,315,0.0,20.0,55,0.00,,CLR,0.00,VWS V14.01,2013-02-19 21:45:00,
2013-02-19 15:46:00,2.8,-9.7,30.11,NW,314,11.0,20.0,55,0.00,,CLR,0.00,VWS V14.01,2013-02-19 21:46:00,
2013-02-19 15:47:00,3.0,-9.5,30.11,WNW,301,0.0,20.0,55,0.00,,CLR,0.00,VWS V14.01,2013-02-19 21:47:00,
2013-02-19 15:48:00,3.0,-9.5,30.11,WNW,295,2.0,20.0,55,0.00,,CLR,0.00,VWS V14.01,2013-02-19 21:48:00,
2013-02-19 15:49:00,3.2,-9.3,30.11,WNW,297,12.0,20.0,55,0.00,,CLR,0.00,VWS V14.01,2013-02-19 21:49:00,
2013-02-19 15:50:00,3.0,-9.9,30.11,West,278,3.0,20.0,54,0.00,,CLR,0.00,VWS V14.01,2013-02-19 21:50:00,
2013-02-19 15:51:00,3.0,-9.9,30.11,West,280,5.0,20.0,54,0.00,,CLR,0.00,VWS V14.01,2013-02-19 21:51:00,
2013-02-19 15:52:00,3.0,-9.5,30.11,WNW,290,10.0,20.0,55,0.00,,CLR,0.00,VWS V14.01,2013-02-19 21:52:00,
2013-02-19 15:53:00,3.0,-9.5,30.11,WNW,302,8.0,20.0,55,0.00,,CLR,0.00,VWS V14.01,2013-02-19 21:53:00,
2013-02-19 15:54:00,3.0,-9.5,30.11,West,277,5.0,20.0,55,0.00,,CLR,0.00,VWS V14.01,2013-02-19 21:54:00,
2013-02-19 15:55:00,3.0,-9.5,30.11,WNW,288,1.0,20.0,55,0.00,,CLR,0.00,VWS V14.01,2013-02-19 21:55:00,
2013-02-19 15:56:00,3.0,-9.5,30.11,WNW,302,10.0,20.0,55,0.00,,CLR,0.00,VWS V14.01,2013-02-19 21:56:00,
2013-02-19 15:57:00,3.2,-9.3,30.11,WNW,288,4.0,20.0,55,0.00,,CLR,0.00,VWS V14.01,2013-02-19 21:57:00,
2013-02-19 15:58:00,3.2,-9.3,30.11,NW,315,13.0,20.0,55,0.00,,CLR,0.00,VWS V14.01,2013-02-19 21:58:00,
2013-02-19 15:59:00,3.2,-9.3,30.11,West,269,10.0,20.0,55,0.00,,CLR,0.00,VWS V14.01,2013-02-19 21:59:00,
2013-02-19 16:00:00,3.2,-9.7,30.12,WNW,302,0.0,20.0,54,0.00,,CLR,0.00,VWS V14.01,2013-02-19 22:00:00,
2013-02-19 16:01:00,3.2,-9.7,30.12,WNW,290,3.0,16.0,54,0.00,,CLR,0.00,VWS V14.01,2013-02-19 22:01:00,
2013-02-19 16:02:00,3.0,-9.9,30.12,West,269,3.0,16.0,54,0.00,,CLR,0.00,VWS V14.01,2013-02-19 22:02:00,
2013-02-19 16:03:00,3.0,-9.5,30.12,NW,319,14.0,17.0,55,0.00,,CLR,0.00,VWS V14.01,2013-02-19 22:03:00,
2013-02-19 16:04:00,3.4,-9.5,30.12,NW,304,6.0,17.0,54,0.00,,CLR,0.00,VWS V14.01,2013-02-19 22:04:00,
2013-02-19 16:05:00,3.4,-9.5,30.12,NW,314,12.0,17.0,54,0.00,,CLR,0.00,VWS V14.01,2013-02-19 22:05:00,
2013-02-19 16:06:00,3.4,-9.5,30.12,NW,308,3.0,17.0,54,0.00,,CLR,0.00,VWS V14.01,2013-02-19 22:06:00,
2013-02-19 16:07:00,3.4,-9.5,30.12,West,269,0.0,17.0,54,0.00,,CLR,0.00,VWS V14.01,2013-02-19 22:07:00,
2013-02-19 16:08:00,3.4,-9.5,30.12,NW,325,7.0,17.0,54,0.00,,CLR,0.00,VWS V14.01,2013-02-19 22:08:00,
2013-02-19 16:09:00,3.4,-9.1,30.12,WNW,294,2.0,17.0,55,0.00,,CLR,0.00,VWS V14.01,2013-02-19 22:09:00,
2013-02-19 16:10:00,3.4,-9.5,30.12,West,278,8.0,17.0,54,0.00,,CLR,0.00,VWS V14.01,2013-02-19 22:10:00,
2013-02-19 16:11:00,3.4,-9.5,30.12,NW,304,8.0,17.0,54,0.00,,CLR,0.00,VWS V14.01,2013-02-19 22:11:00,
2013-02-19 16:12:00,3.4,-9.5,30.12,NW,310,6.0,17.0,54,0.00,,CLR,0.00,VWS V14.01,2013-02-19 22:12:00,
2013-02-19 16:13:00,3.4,-9.5,30.12,WNW,287,2.0,17.0,54,0.00,,CLR,0.00,VWS V14.01,2013-02-19 22:13:00,
2013-02-19 16:14:00,3.4,-9.5,30.12,WNW,301,7.0,17.0,54,0.00,,CLR,0.00,VWS V14.01,2013-02-19 22:14:00,
2013-02-19 16:15:00,3.2,-9.7,30.12,WNW,295,2.0,17.0,54,0.00,,CLR,0.00,VWS V14.01,2013-02-19 22:15:00,
2013-02-19 16:16:00,3.2,-9.7,30.12,WNW,300,13.0,17.0,54,0.00,,CLR,0.00,VWS V14.01,2013-02-19 22:16:00,
2013-02-19 16:17:00,3.2,-9.7,30.12,WNW,297,0.0,17.0,54,0.00,,CLR,0.00,VWS V14.01,2013-02-19 22:17:00,
2013-02-19 16:18:00,3.2,-9.3,30.12,NW,304,6.0,17.0,55,0.00,,CLR,0.00,VWS V14.01,2013-02-19 22:18:00,
2013-02-19 16:19:00,3.2,-9.3,30.12,WNW,301,1.0,17.0,55,0.00,,CLR,0.00,VWS V14.01,2013-02-19 22:19:00,
2013-02-19 16:20:00,3.4,-9.1,30.12,WNW,290,2.0,17.0,55,0.00,,CLR,0.00,VWS V14.01,2013-02-19 22:20:00,
2013-02-19 16:21:00,3.2,-9.7,30.12,NW,308,11.0,17.0,54,0.00,,CLR,0.00,VWS V14.01,2013-02-19 22:21:00,
2013-02-19 16:22:00,3.2,-9.7,30.12,West,278,7.0,17.0,54,0.00,,CLR,0.00,VWS V14.01,2013-02-19 22:22:00,
2013-02-19 16:23:00,3.2,-9.7,30.12,West,280,6.0,17.0,54,0.00,,CLR,0.00,VWS V14.01,2013-02-19 22:23:00,
2013-02-19 16:24:00,3.0,-9.9,30.12,West,281,1.0,17.0,54,0.00,,CLR,0.00,VWS V14.01,2013-02-19 22:24:00,
2013-02-19 16:25:00,3.0,-9.9,30.12,WNW,300,11.0,17.0,54,0.00,,CLR,0.00,VWS V14.01,2013-02-19 22:25:00,
2013-02-19 16:26:00,2.8,-10.1,30.12,West,277,10.0,17.0,54,0.00,,CLR,0.00,VWS V14.01,2013-02-19 22:26:00,
2013-02-19 16:27:00,2.8,-10.1,30.12,NW,311,5.0,17.0,54,0.00,,CLR,0.00,VWS V14.01,2013-02-19 22:27:00,
2013-02-19 16:28:00,2.8,-9.7,30.12,West,273,2.0,17.0,55,0.00,,CLR,0.00,VWS V14.01,2013-02-19 22:28:00,
2013-02-19 16:29:00,2.8,-10.1,30.12,WNW,293,6.0,17.0,54,0.00,,CLR,0.00,VWS V14.01,2013-02-19 22:29:00,
2013-02-19 16:30:00,2.8,-9.7,30.12,WNW,301,6.0,17.0,55,0.00,,CLR,0.00,VWS V14.01,2013-02-19 22:30:00,
2013-02-19 16:31:00,2.8,-10.1,30.12,NW,307,11.0,13.0,54,0.00,,CLR,0.00,VWS V14.01,2013-02-19 22:31:00,
2013-02-19 16:32:00,2.8,-10.1,30.12,WNW,297,6.0,19.0,54,0.00,,CLR,0.00,VWS V14.01,2013-02-19 22:32:00,
2013-02-19 16:33:00,2.8,-10.1,30.12,WNW,295,11.0,19.0,54,0.00,,CLR,0.00,VWS V14.01,2013-02-19 22:33:00,
2013-02-19 16:34:00,2.6,-9.9,30.12,West,276,0.0,19.0,55,0.00,,CLR,0.00,VWS V14.01,2013-02-19 22:34:00,
2013-02-19 16:35:00,2.6,-9.9,30.12,NW,308,5.0,19.0,55,0.00,,CLR,0.00,VWS V14.01,2013-02-19 22:35:00,
2013-02-19 16:36:00,2.6,-9.9,30.12,NW,324,5.0,19.0,55,0.00,,CLR,0.00,VWS V14.01,2013-02-19 22:36:00,
2013-02-19 16:37:00,2.6,-9.9,30.12,WNW,300,2.0,19.0,55,0.00,,CLR,0.00,VWS V14.01,2013-02-19 22:37:00,
2013-02-19 16:38:00,2.6,-9.9,30.12,NW,310,11.0,19.0,55,0.00,,CLR,0.00,VWS V14.01,2013-02-19 22:38:00,
2013-02-19 16:39:00,2.6,-9.9,30.12,WNW,293,1.0,19.0,55,0.00,,CLR,0.00,VWS V14.01,2013-02-19 22:39:00,
2013-02-19 16:40:00,2.6,-9.9,30.12,WNW,293,8.0,19.0,55,0.00,,CLR,0.00,VWS V14.01,2013-02-19 22:40:00,
2013-02-19 16:41:00,2.4,-10.1,30.12,West,273,2.0,19.0,55,0.00,,CLR,0.00,VWS V14.01,2013-02-19 22:41:00,
2013-02-19 16:42:00,2.4,-10.1,30.12,West,280,1.0,19.0,55,0.00,,CLR,0.00,VWS V14.01,2013-02-19 22:42:00,
2013-02-19 16:43:00,2.4,-10.1,30.12,WNW,302,5.0,19.0,55,0.00,,CLR,0.00,VWS V14.01,2013-02-19 22:43:00,
2013-02-19 16:44:00,2.4,-9.7,30.12,WNW,300,7.0,19.0,56,0.00,,CLR,0.00,VWS V14.01,2013-02-19 22:44:00,
2013-02-19 16:45:00,2.4,-9.7,30.13,WNW,301,3.0,19.0,56,0.00,,CLR,0.00,VWS V14.01,2013-02-19 22:45:00,
2013-02-19 16:46:00,2.4,-9.7,30.13,West,273,0.0,19.0,56,0.00,,CLR,0.00,VWS V14.01,2013-02-19 22:46:00,
2013-02-19 16:47:00,2.4,-9.7,30.13,West,270,2.0,19.0,56,0.00,,CLR,0.00,VWS V14.01,2013-02-19 22:47:00,
2013-02-19 16:48:00,2.2,-9.9,30.13,West,277,6.0,19.0,56,0.00,,CLR,0.00,VWS V14.01,2013-02-19 22:48:00,
2013-02-19 16:49:00,2.2,-9.9,30.13,WNW,295,6.0,19.0,56,0.00,,CLR,0.00,VWS V14.01,2013-02-19 22:49:00,
2013-02-19 16:50:00,2.2,-9.9,30.13,WNW,290,1.0,19.0,56,0.00,,CLR,0.00,VWS V14.01,2013-02-19 22:50:00,
2013-02-19 16:51:00,2.2,-9.9,30.13,WNW,287,4.0,19.0,56,0.00,,CLR,0.00,VWS V14.01,2013-02-19 22:51:00,
2013-02-19 16:52:00,2.0,-10.1,30.13,WNW,287,0.0,19.0,56,0.00,,CLR,0.00,VWS V14.01,2013-02-19 22:52:00,
2013-02-19 16:53:00,2.0,-10.1,30.13,WNW,291,3.0,19.0,56,0.00,,CLR,0.00,VWS V14.01,2013-02-19 22:53:00,
2013-02-19 16:54:00,2.0,-10.1,30.13,WNW,287,1.0,19.0,56,0.00,,CLR,0.00,VWS V14.01,2013-02-19 22:54:00,
2013-02-19 16:55:00,2.0,-10.1,30.13,NW,312,5.0,19.0,56,0.00,,CLR,0.00,VWS V14.01,2013-02-19 22:55:00,
2013-02-19 16:56:00,2.0,-10.1,30.13,WNW,298,6.0,19.0,56,0.00,,CLR,0.00,VWS V14.01,2013-02-19 22:56:00,
2013-02-19 16:57:00,2.0,-10.1,30.13,WNW,302,1.0,19.0,56,0.00,,CLR,0.00,VWS V14.01,2013-02-19 22:57:00,
2013-02-19 16:58:00,2.0,-10.1,30.13,West,280,4.0,19.0,56,0.00,,CLR,0.00,VWS V14.01,2013-02-19 22:58:00,
2013-02-19 16:59:00,2.0,-9.7,30.13,NW,307,10.0,19.0,57,0.00,,CLR,0.00,VWS V14.01,2013-02-19 22:59:00,
2013-02-19 17:00:00,2.0,-9.7,30.14,West,280,5.0,19.0,57,0.00,,CLR,0.00,VWS V14.01,2013-02-19 23:00:00,
2013-02-19 17:01:00,1.8,-9.9,30.14,NW,307,0.0,8.0,57,0.00,,CLR,0.00,VWS V14.01,2013-02-19 23:01:00,
2013-02-19 17:02:00,1.8,-9.9,30.14,WNW,287,1.0,9.0,57,0.00,,CLR,0.00,VWS V14.01,2013-02-19 23:02:00,
2013-02-19 17:03:00,1.8,-9.9,30.14,WNW,294,1.0,9.0,57,0.00,,CLR,0.00,VWS V14.01,2013-02-19 23:03:00,
2013-02-19 17:04:00,1.8,-9.9,30.14,West,277,0.0,9.0,57,0.00,,CLR,0.00,VWS V14.01,2013-02-19 23:04:00,
2013-02-19 17:05:00,1.8,-9.9,30.14,West,277,0.0,9.0,57,0.00,,CLR,0.00,VWS V14.01,2013-02-19 23:05:00,
2013-02-19 17:06:00,1.8,-9.9,30.14,West,281,0.0,9.0,57,0.00,,CLR,0.00,VWS V14.01,2013-02-19 23:06:00,
2013-02-19 17:07:00,1.7,-10.0,30.14,West,280,7.0,9.0,57,0.00,,CLR,0.00,VWS V14.01,2013-02-19 23:07:00,
2013-02-19 17:08:00,1.7,-10.0,30.14,West,271,2.0,9.0,57,0.00,,CLR,0.00,VWS V14.01,2013-02-19 23:08:00,
2013-02-19 17:09:00,1.7,-10.0,30.14,WNW,286,2.0,9.0,57,0.00,,CLR,0.00,VWS V14.01,2013-02-19 23:09:00,
2013-02-19 17:10:00,1.5,-10.2,30.14,WNW,287,3.0,9.0,57,0.00,,CLR,0.00,VWS V14.01,2013-02-19 23:10:00,
2013-02-19 17:11:00,1.5,-10.2,30.14,NW,304,0.0,9.0,57,0.00,,CLR,0.00,VWS V14.01,2013-02-19 23:11:00,
2013-02-19 17:12:00,1.5,-9.8,30.14,West,281,0.0,9.0,58,0.00,,CLR,0.00,VWS V14.01,2013-02-19 23:12:00,
2013-02-19 17:13:00,1.5,-9.8,30.14,West,277,5.0,9.0,58,0.00,,CLR,0.00,VWS V14.01,2013-02-19 23:13:00,
2013-02-19 17:14:00,1.5,-9.8,30.14,West,280,0.0,9.0,58,0.00,,CLR,0.00,VWS V14.01,2013-02-19 23:14:00,
2013-02-19 17:15:00,1.3,-10.0,30.15,West,281,2.0,9.0,58,0.00,,CLR,0.00,VWS V14.01,2013-02-19 23:15:00,
2013-02-19 17:16:00,1.3,-10.0,30.15,West,281,2.0,9.0,58,0.00,,CLR,0.00,VWS V14.01,2013-02-19 23:16:00,
2013-02-19 17:17:00,1.3,-10.0,30.15,WNW,283,1.0,9.0,58,0.00,,CLR,0.00,VWS V14.01,2013-02-19 23:17:00,
2013-02-19 17:18:00,1.3,-10.0,30.15,WNW,283,7.0,9.0,58,0.00,,CLR,0.00,VWS V14.01,2013-02-19 23:18:00,
2013-02-19 17:19:00,1.3,-10.0,30.15,WNW,283,2.0,9.0,58,0.00,,CLR,0.00,VWS V14.01,2013-02-19 23:19:00,
2013-02-19 17:20:00,1.1,-10.2,30.15,West,280,6.0,9.0,58,0.00,,CLR,0.00,VWS V14.01,2013-02-19 23:20:00,
2013-02-19 17:21:00,1.1,-10.2,30.15,WNW,287,0.0,9.0,58,0.00,,CLR,0.00,VWS V14.01,2013-02-19 23:21:00,
2013-02-19 17:22:00,1.1,-9.9,30.15,WNW,288,3.0,9.0,59,0.00,,CLR,0.00,VWS V14.01,2013-02-19 23:22:00,
2013-02-19 17:23:00,1.1,-9.9,30.15,WNW,297,5.0,9.0,59,0.00,,CLR,0.00,VWS V14.01,2013-02-19 23:23:00,
2013-02-19 17:24:00,1.1,-9.9,30.15,West,281,1.0,9.0,59,0.00,,CLR,0.00,VWS V14.01,2013-02-19 23:24:00,
2013-02-19 17:25:00,1.1,-9.9,30.15,West,281,2.0,9.0,59,0.00,,CLR,0.00,VWS V14.01,2013-02-19 23:25:00,
2013-02-19 17:26:00,0.9,-10.1,30.15,West,281,2.0,9.0,59,0.00,,CLR,0.00,VWS V14.01,2013-02-19 23:26:00,
2013-02-19 17:27:00,0.9,-10.1,30.15,WNW,284,2.0,9.0,59,0.00,,CLR,0.00,VWS V14.01,2013-02-19 23:27:00,
2013-02-19 17:28:00,0.9,-10.1,30.15,WNW,286,5.0,9.0,59,0.00,,CLR,0.00,VWS V14.01,2013-02-19 23:28:00,
2013-02-19 17:29:00,0.9,-10.1,30.15,WNW,284,6.0,9.0,59,0.00,,CLR,0.00,VWS V14.01,2013-02-19 23:29:00,
2013-02-19 17:30:00,0.9,-10.1,30.16,WNW,286,3.0,9.0,59,0.00,,CLR,0.00,VWS V14.01,2013-02-19 23:30:00,
2013-02-19 17:31:00,0.9,-10.1,30.16,WNW,283,1.0,5.0,59,0.00,,CLR,0.00,VWS V14.01,2013-02-19 23:31:00,
2013-02-19 17:32:00,0.9,-10.1,30.16,WNW,284,2.0,5.0,59,0.00,,CLR,0.00,VWS V14.01,2013-02-19 23:32:00,
2013-02-19 17:33:00,0.7,-10.2,30.16,WNW,284,0.0,5.0,59,0.00,,CLR,0.00,VWS V14.01,2013-02-19 23:33:00,
2013-02-19 17:34:00,0.7,-10.2,30.16,West,270,6.0,7.0,59,0.00,,CLR,0.00,VWS V14.01,2013-02-19 23:34:00,
2013-02-19 17:35:00,0.7,-10.2,30.16,West,270,0.0,7.0,59,0.00,,CLR,0.00,VWS V14.01,2013-02-19 23:35:00,
2013-02-19 17:36:00,0.7,-9.9,30.16,West,271,1.0,7.0,60,0.00,,CLR,0.00,VWS V14.01,2013-02-19 23:36:00,
2013-02-19 17:37:00,0.7,-9.9,30.16,West,278,3.0,8.0,60,0.00,,CLR,0.00,VWS V14.01,2013-02-19 23:37:00,
2013-02-19 17:38:00,0.7,-9.9,30.16,West,278,2.0,8.0,60,0.00,,CLR,0.00,VWS V14.01,2013-02-19 23:38:00,
2013-02-19 17:39:00,0.7,-9.9,30.16,West,280,3.0,8.0,60,0.00,,CLR,0.00,VWS V14.01,2013-02-19 23:39:00,
2013-02-19 17:40:00,0.5,-10.1,30.16,West,281,2.0,8.0,60,0.00,,CLR,0.00,VWS V14.01,2013-02-19 23:40:00,
2013-02-19 17:41:00,0.5,-10.1,30.16,WNW,283,3.0,8.0,60,0.00,,CLR,0.00,VWS V14.01,2013-02-19 23:41:00,
2013-02-19 17:42:00,0.5,-10.1,30.16,WNW,284,2.0,8.0,60,0.00,,CLR,0.00,VWS V14.01,2013-02-19 23:42:00,
2013-02-19 17:43:00,0.5,-10.1,30.16,WNW,284,0.0,8.0,60,0.00,,CLR,0.00,VWS V14.01,2013-02-19 23:43:00,
2013-02-19 17:44:00,0.5,-10.1,30.16,WNW,283,2.0,8.0,60,0.00,,CLR,0.00,VWS V14.01,2013-02-19 23:44:00,
2013-02-19 17:45:00,0.5,-10.1,30.16,West,280,1.0,8.0,60,0.00,,CLR,0.00,VWS V14.01,2013-02-19 23:45:00,
2013-02-19 17:46:00,0.5,-10.1,30.16,West,281,2.0,8.0,60,0.00,,CLR,0.00,VWS V14.01,2013-02-19 23:46:00,
2013-02-19 17:47:00,0.5,-10.1,30.16,West,281,1.0,8.0,60,0.00,,CLR,0.00,VWS V14.01,2013-02-19 23:47:00,
2013-02-19 17:48:00,0.5,-10.1,30.16,WNW,283,1.0,8.0,60,0.00,,CLR,0.00,VWS V14.01,2013-02-19 23:48:00,
2013-02-19 17:49:00,0.5,-10.1,30.16,WNW,283,0.0,8.0,60,0.00,,CLR,0.00,VWS V14.01,2013-02-19 23:49:00,
2013-02-19 17:50:00,0.3,-10.3,30.16,WNW,283,1.0,8.0,60,0.00,,CLR,0.00,VWS V14.01,2013-02-19 23:50:00,
2013-02-19 17:51:00,0.3,-10.3,30.16,West,281,2.0,8.0,60,0.00,,CLR,0.00,VWS V14.01,2013-02-19 23:51:00,
2013-02-19 17:52:00,0.3,-10.3,30.16,West,281,0.0,8.0,60,0.00,,CLR,0.00,VWS V14.01,2013-02-19 23:52:00,
2013-02-19 17:53:00,0.3,-10.0,30.16,West,281,1.0,8.0,61,0.00,,CLR,0.00,VWS V14.01,2013-02-19 23:53:00,
2013-02-19 17:54:00,0.3,-10.0,30.16,West,278,6.0,8.0,61,0.00,,CLR,0.00,VWS V14.01,2013-02-19 23:54:00,
2013-02-19 17:55:00,0.3,-10.0,30.16,West,281,2.0,8.0,61,0.00,,CLR,0.00,VWS V14.01,2013-02-19 23:55:00,
2013-02-19 17:56:00,0.3,-10.0,30.16,West,281,0.0,8.0,61,0.00,,CLR,0.00,VWS V14.01,2013-02-19 23:56:00,
2013-02-19 17:57:00,0.3,-10.0,30.16,West,280,1.0,8.0,61,0.00,,CLR,0.00,VWS V14.01,2013-02-19 23:57:00,
2013-02-19 17:58:00,0.3,-10.0,30.16,West,270,3.0,8.0,61,0.00,,CLR,0.00,VWS V14.01,2013-02-19 23:58:00,
2013-02-19 17:59:00,0.3,-10.0,30.16,West,270,1.0,8.0,61,0.00,,CLR,0.00,VWS V14.01,2013-02-19 23:59:00,
2013-02-19 18:00:00,0.3,-10.0,30.17,West,270,3.0,8.0,61,0.00,,CLR,0.00,VWS V14.01,2013-02-20 00:00:00,
2013-02-19 18:01:00,0.3,-10.0,30.17,West,270,0.0,6.0,61,0.00,,CLR,0.00,VWS V14.01,2013-02-20 00:01:00,
2013-02-19 18:02:00,0.1,-10.1,30.17,West,273,3.0,6.0,61,0.00,,CLR,0.00,VWS V14.01,2013-02-20 00:02:00,
2013-02-19 18:03:00,0.1,-10.1,30.17,West,271,4.0,6.0,61,0.00,,CLR,0.00,VWS V14.01,2013-02-20 00:03:00,
2013-02-19 18:04:00,0.1,-10.1,30.17,West,271,1.0,6.0,61,0.00,,CLR,0.00,VWS V14.01,2013-02-20 00:04:00,
2013-02-19 18:05:00,0.1,-10.1,30.17,West,271,2.0,6.0,61,0.00,,CLR,0.00,VWS V14.01,2013-02-20 00:05:00,
2013-02-19 18:06:00,0.1,-10.1,30.17,West,273,5.0,6.0,61,0.00,,CLR,0.00,VWS V14.01,2013-02-20 00:06:00,
2013-02-19 18:07:00,0.1,-10.1,30.17,West,274,1.0,6.0,61,0.00,,CLR,0.00,VWS V14.01,2013-02-20 00:07:00,
2013-02-19 18:08:00,0.1,-10.1,30.17,West,281,7.0,7.0,61,0.00,,CLR,0.00,VWS V14.01,2013-02-20 00:08:00,
2013-02-19 18:09:00,0.1,-10.1,30.17,West,281,3.0,7.0,61,0.00,,CLR,0.00,VWS V14.01,2013-02-20 00:09:00,
2013-02-19 18:10:00,0.1,-10.1,30.17,WNW,284,3.0,7.0,61,0.00,,CLR,0.00,VWS V14.01,2013-02-20 00:10:00,
2013-02-19 18:11:00,0.1,-10.2,30.17,WNW,284,2.0,7.0,61,0.00,,CLR,0.00,VWS V14.01,2013-02-20 00:11:00,
2013-02-19 18:12:00,0.1,-10.2,30.17,West,280,8.0,8.0,61,0.00,,CLR,0.00,VWS V14.01,2013-02-20 00:12:00,
2013-02-19 18:13:00,0.1,-10.2,30.17,WNW,286,1.0,8.0,61,0.00,,CLR,0.00,VWS V14.01,2013-02-20 00:13:00,
2013-02-19 18:14:00,0.1,-10.2,30.17,West,270,1.0,8.0,61,0.00,,CLR,0.00,VWS V14.01,2013-02-20 00:14:00,
2013-02-19 18:15:00,0.1,-10.2,30.17,WNW,300,5.0,8.0,61,0.00,,CLR,0.00,VWS V14.01,2013-02-20 00:15:00,
2013-02-19 18:16:00,0.1,-10.2,30.17,WNW,298,1.0,8.0,61,0.00,,CLR,0.00,VWS V14.01,2013-02-20 00:16:00,
2013-02-19 18:17:00,0.1,-10.2,30.17,WNW,290,1.0,8.0,61,0.00,,CLR,0.00,VWS V14.01,2013-02-20 00:17:00,
2013-02-19 18:18:00,0.1,-10.2,30.17,WNW,290,5.0,8.0,61,0.00,,CLR,0.00,VWS V14.01,2013-02-20 00:18:00,
2013-02-19 18:19:00,0.1,-10.2,30.17,WNW,284,0.0,8.0,61,0.00,,CLR,0.00,VWS V14.01,2013-02-20 00:19:00,
2013-02-19 18:20:00,0.1,-10.2,30.17,WNW,290,3.0,8.0,61,0.00,,CLR,0.00,VWS V14.01,2013-02-20 00:20:00,
2013-02-19 18:21:00,0.1,-10.2,30.17,WNW,286,1.0,8.0,61,0.00,,CLR,0.00,VWS V14.01,2013-02-20 00:21:00,
2013-02-19 18:22:00,-0.2,-10.4,30.17,WNW,286,5.0,8.0,61,0.00,,CLR,0.00,VWS V14.01,2013-02-20 00:22:00,
2013-02-19 18:23:00,-0.2,-10.4,30.17,WNW,287,2.0,8.0,61,0.00,,CLR,0.00,VWS V14.01,2013-02-20 00:23:00,
2013-02-19 18:24:00,-0.2,-10.4,30.17,WNW,283,6.0,8.0,61,0.00,,CLR,0.00,VWS V14.01,2013-02-20 00:24:00,
2013-02-19 18:25:00,-0.2,-10.4,30.17,WNW,286,6.0,8.0,61,0.00,,CLR,0.00,VWS V14.01,2013-02-20 00:25:00,
2013-02-19 18:26:00,-0.2,-10.4,30.17,West,281,1.0,8.0,61,0.00,,CLR,0.00,VWS V14.01,2013-02-20 00:26:00,
2013-02-19 18:27:00,-0.2,-10.4,30.17,West,280,1.0,8.0,61,0.00,,CLR,0.00,VWS V14.01,2013-02-20 00:27:00,
2013-02-19 18:28:00,-0.2,-10.1,30.17,West,280,5.0,8.0,62,0.00,,CLR,0.00,VWS V14.01,2013-02-20 00:28:00,
2013-02-19 18:29:00,-0.2,-10.1,30.17,West,278,0.0,8.0,62,0.00,,CLR,0.00,VWS V14.01,2013-02-20 00:29:00,
2013-02-19 18:30:00,-0.2,-10.4,30.19,WNW,284,1.0,8.0,61,0.00,,CLR,0.00,VWS V14.01,2013-02-20 00:30:00,
2013-02-19 18:31:00,-0.4,-10.3,30.19,WNW,284,2.0,3.0,62,0.00,,CLR,0.00,VWS V14.01,2013-02-20 00:31:00,
2013-02-19 18:32:00,-0.4,-10.3,30.19,WNW,286,3.0,5.0,62,0.00,,CLR,0.00,VWS V14.01,2013-02-20 00:32:00,
2013-02-19 18:33:00,-0.4,-10.3,30.19,West,278,2.0,6.0,62,0.00,,CLR,0.00,VWS V14.01,2013-02-20 00:33:00,
2013-02-19 18:34:00,-0.4,-10.3,30.19,West,276,2.0,6.0,62,0.00,,CLR,0.00,VWS V14.01,2013-02-20 00:34:00,
2013-02-19 18:35:00,-0.4,-10.3,30.19,West,277,2.0,6.0,62,0.00,,CLR,0.00,VWS V14.01,2013-02-20 00:35:00,
2013-02-19 18:36:00,-0.4,-10.3,30.19,WNW,286,5.0,7.0,62,0.00,,CLR,0.00,VWS V14.01,2013-02-20 00:36:00,
2013-02-19 18:37:00,-0.4,-10.3,30.19,WNW,287,1.0,7.0,62,0.00,,CLR,0.00,VWS V14.01,2013-02-20 00:37:00,
2013-02-19 18:38:00,-0.4,-10.3,30.19,WNW,283,1.0,7.0,62,0.00,,CLR,0.00,VWS V14.01,2013-02-20 00:38:00,
2013-02-19 18:39:00,-0.4,-10.3,30.19,WNW,283,0.0,7.0,62,0.00,,CLR,0.00,VWS V14.01,2013-02-20 00:39:00,
2013-02-19 18:40:00,-0.4,-10.3,30.19,West,270,6.0,8.0,62,0.00,,CLR,0.00,VWS V14.01,2013-02-20 00:40:00,
2013-02-19 18:41:00,-0.4,-10.3,30.19,West,270,2.0,8.0,62,0.00,,CLR,0.00,VWS V14.01,2013-02-20 00:41:00,
2013-02-19 18:42:00,-0.4,-10.3,30.19,West,270,0.0,8.0,62,0.00,,CLR,0.00,VWS V14.01,2013-02-20 00:42:00,
2013-02-19 18:43:00,-0.4,-10.3,30.19,West,270,2.0,8.0,62,0.00,,CLR,0.00,VWS V14.01,2013-02-20 00:43:00,
2013-02-19 18:44:00,-0.6,-10.5,30.19,West,270,0.0,8.0,62,0.00,,CLR,0.00,VWS V14.01,2013-02-20 00:44:00,
2013-02-19 18:45:00,-0.6,-10.5,30.20,West,277,1.0,8.0,62,0.00,,CLR,0.00,VWS V14.01,2013-02-20 00:45:00,
2013-02-19 18:46:00,-0.6,-10.5,30.20,NW,305,3.0,8.0,62,0.00,,CLR,0.00,VWS V14.01,2013-02-20 00:46:00,
2013-02-19 18:47:00,-0.6,-10.5,30.20,West,276,2.0,8.0,62,0.00,,CLR,0.00,VWS V14.01,2013-02-20 00:47:00,
2013-02-19 18:48:00,-0.6,-10.5,30.20,West,277,0.0,8.0,62,0.00,,CLR,0.00,VWS V14.01,2013-02-20 00:48:00,
2013-02-19 18:49:00,-0.6,-10.5,30.20,West,276,2.0,8.0,62,0.00,,CLR,0.00,VWS V14.01,2013-02-20 00:49:00,
2013-02-19 18:50:00,-0.6,-10.5,30.20,West,274,2.0,8.0,62,0.00,,CLR,0.00,VWS V14.01,2013-02-20 00:50:00,
2013-02-19 18:51:00,-0.6,-10.5,30.20,West,276,4.0,8.0,62,0.00,,CLR,0.00,VWS V14.01,2013-02-20 00:51:00,
2013-02-19 18:52:00,-0.6,-10.5,30.20,WNW,287,5.0,8.0,62,0.00,,CLR,0.00,VWS V14.01,2013-02-20 00:52:00,
2013-02-19 18:53:00,-0.6,-10.5,30.20,West,277,7.0,10.0,62,0.00,,CLR,0.00,VWS V14.01,2013-02-20 00:53:00,
2013-02-19 18:54:00,-0.6,-10.5,30.20,West,277,2.0,10.0,62,0.00,,CLR,0.00,VWS V14.01,2013-02-20 00:54:00,
2013-02-19 18:55:00,-0.6,-10.5,30.20,West,277,1.0,10.0,62,0.00,,CLR,0.00,VWS V14.01,2013-02-20 00:55:00,
2013-02-19 18:56:00,-0.6,-10.5,30.20,NW,318,3.0,10.0,62,0.00,,CLR,0.00,VWS V14.01,2013-02-20 00:56:00,
2013-02-19 18:57:00,-0.6,-10.5,30.20,NW,307,5.0,10.0,62,0.00,,CLR,0.00,VWS V14.01,2013-02-20 00:57:00,
2013-02-19 18:58:00,-0.6,-10.5,30.20,WNW,293,0.0,10.0,62,0.00,,CLR,0.00,VWS V14.01,2013-02-20 00:58:00,
2013-02-19 18:59:00,-0.6,-10.5,30.20,WNW,290,2.0,10.0,62,0.00,,CLR,0.00,VWS V14.01,2013-02-20 00:59:00,
2013-02-19 19:00:00,-0.6,-10.5,30.20,WNW,294,5.0,10.0,62,0.00,,CLR,0.00,VWS V14.01,2013-02-20 01:00:00,
2013-02-19 19:01:00,-0.6,-10.5,30.20,WNW,293,3.0,7.0,62,0.00,,CLR,0.00,VWS V14.01,2013-02-20 01:01:00,
2013-02-19 19:02:00,-0.6,-10.5,30.20,WNW,295,5.0,7.0,62,0.00,,CLR,0.00,VWS V14.01,2013-02-20 01:02:00,
2013-02-19 19:03:00,-0.8,-10.7,30.20,WNW,290,1.0,7.0,62,0.00,,CLR,0.00,VWS V14.01,2013-02-20 01:03:00,
2013-02-19 19:04:00,-0.8,-10.7,30.20,WNW,288,3.0,7.0,62,0.00,,CLR,0.00,VWS V14.01,2013-02-20 01:04:00,
2013-02-19 19:05:00,-0.8,-10.7,30.20,WNW,287,2.0,7.0,62,0.00,,CLR,0.00,VWS V14.01,2013-02-20 01:05:00,
2013-02-19 19:06:00,-0.8,-10.7,30.20,WNW,288,1.0,7.0,62,0.00,,CLR,0.00,VWS V14.01,2013-02-20 01:06:00,
2013-02-19 19:07:00,-0.8,-10.7,30.20,West,270,2.0,7.0,62,0.00,,CLR,0.00,VWS V14.01,2013-02-20 01:07:00,
2013-02-19 19:08:00,-0.8,-10.7,30.20,WNW,283,5.0,8.0,62,0.00,,CLR,0.00,VWS V14.01,2013-02-20 01:08:00,
2013-02-19 19:09:00,-0.8,-10.7,30.20,WNW,283,0.0,8.0,62,0.00,,CLR,0.00,VWS V14.01,2013-02-20 01:09:00,
2013-02-19 19:10:00,-0.8,-10.7,30.20,West,281,6.0,8.0,62,0.00,,CLR,0.00,VWS V14.01,2013-02-20 01:10:00,
2013-02-19 19:11:00,-0.8,-10.7,30.20,West,280,4.0,8.0,62,0.00,,CLR,0.00,VWS V14.01,2013-02-20 01:11:00,
2013-02-19 19:12:00,-1.0,-10.9,30.20,West,280,0.0,8.0,62,0.00,,CLR,0.00,VWS V14.01,2013-02-20 01:12:00,
2013-02-19 19:13:00,-1.0,-10.9,30.20,West,273,6.0,8.0,62,0.00,,CLR,0.00,VWS V14.01,2013-02-20 01:13:00,
2013-02-19 19:14:00,-1.0,-10.9,30.20,West,280,5.0,8.0,62,0.00,,CLR,0.00,VWS V14.01,2013-02-20 01:14:00,
2013-02-19 19:15:00,-1.0,-10.9,30.21,West,280,2.0,8.0,62,0.00,,CLR,0.00,VWS V14.01,2013-02-20 01:15:00,
2013-02-19 19:16:00,-1.0,-10.9,30.21,West,280,3.0,8.0,62,0.00,,CLR,0.00,VWS V14.01,2013-02-20 01:16:00,
2013-02-19 19:17:00,-1.0,-10.9,30.21,WNW,283,4.0,8.0,62,0.00,,CLR,0.00,VWS V14.01,2013-02-20 01:17:00,
2013-02-19 19:18:00,-1.0,-10.9,30.21,WNW,283,5.0,8.0,62,0.00,,CLR,0.00,VWS V14.01,2013-02-20 01:18:00,
2013-02-19 19:19:00,-1.0,-10.9,30.21,WNW,283,2.0,8.0,62,0.00,,CLR,0.00,VWS V14.01,2013-02-20 01:19:00,
2013-02-19 19:20:00,-1.0,-10.9,30.21,WNW,284,2.0,8.0,62,0.00,,CLR,0.00,VWS V14.01,2013-02-20 01:20:00,
2013-02-19 19:21:00,-1.0,-10.9,30.21,WNW,284,2.0,8.0,62,0.00,,CLR,0.00,VWS V14.01,2013-02-20 01:21:00,
2013-02-19 19:22:00,-1.2,-11.1,30.21,West,281,3.0,8.0,62,0.00,,CLR,0.00,VWS V14.01,2013-02-20 01:22:00,
2013-02-19 19:23:00,-1.2,-11.1,30.21,WNW,283,5.0,8.0,62,0.00,,CLR,0.00,VWS V14.01,2013-02-20 01:23:00,
2013-02-19 19:24:00,-1.2,-10.7,30.21,West,281,2.0,8.0,63,0.00,,CLR,0.00,VWS V14.01,2013-02-20 01:24:00,
2013-02-19 19:25:00,-1.2,-10.7,30.21,West,277,2.0,8.0,63,0.00,,CLR,0.00,VWS V14.01,2013-02-20 01:25:00,
2013-02-19 19:26:00,-1.2,-10.7,30.21,West,280,1.0,8.0,63,0.00,,CLR,0.00,VWS V14.01,2013-02-20 01:26:00,
2013-02-19 19:27:00,-1.2,-10.7,30.21,West,276,5.0,8.0,63,0.00,,CLR,0.00,VWS V14.01,2013-02-20 01:27:00,
2013-02-19 19:28:00,-1.2,-10.7,30.21,West,276,0.0,8.0,63,0.00,,CLR,0.00,VWS V14.01,2013-02-20 01:28:00,
2013-02-19 19:29:00,-1.2,-11.1,30.21,West,276,5.0,8.0,62,0.00,,CLR,0.00,VWS V14.01,2013-02-20 01:29:00,
2013-02-19 19:30:00,-1.4,-10.9,30.22,West,276,2.0,8.0,63,0.00,,CLR,0.00,VWS V14.01,2013-02-20 01:30:00,
2013-02-19 19:31:00,-1.4,-10.9,30.22,West,276,0.0,3.0,63,0.00,,CLR,0.00,VWS V14.01,2013-02-20 01:31:00,
2013-02-19 19:32:00,-1.4,-11.2,30.22,West,280,2.0,8.0,62,0.00,,CLR,0.00,VWS V14.01,2013-02-20 01:32:00,
2013-02-19 19:33:00,-1.4,-10.9,30.22,West,280,1.0,8.0,63,0.00,,CLR,0.00,VWS V14.01,2013-02-20 01:33:00,
2013-02-19 19:34:00,-1.4,-10.9,30.22,West,280,2.0,8.0,63,0.00,,CLR,0.00,VWS V14.01,2013-02-20 01:34:00,
2013-02-19 19:35:00,-1.4,-10.9,30.22,West,280,1.0,8.0,63,0.00,,CLR,0.00,VWS V14.01,2013-02-20 01:35:00,
2013-02-19 19:36:00,-1.6,-11.1,30.22,West,278,3.0,8.0,63,0.00,,CLR,0.00,VWS V14.01,2013-02-20 01:36:00,
2013-02-19 19:37:00,-1.6,-11.1,30.22,West,278,0.0,8.0,63,0.00,,CLR,0.00,VWS V14.01,2013-02-20 01:37:00,
2013-02-19 19:38:00,-1.6,-11.1,30.22,West,280,1.0,8.0,63,0.00,,CLR,0.00,VWS V14.01,2013-02-20 01:38:00,
2013-02-19 19:39:00,-1.6,-11.1,30.22,West,280,0.0,8.0,63,0.00,,CLR,0.00,VWS V14.01,2013-02-20 01:39:00,
2013-02-19 19:40:00,-1.6,-11.1,30.22,WNW,283,2.0,8.0,63,0.00,,CLR,0.00,VWS V14.01,2013-02-20 01:40:00,
2013-02-19 19:41:00,-1.6,-11.1,30.22,WNW,283,0.0,8.0,63,0.00,,CLR,0.00,VWS V14.01,2013-02-20 01:41:00,
2013-02-19 19:42:00,-1.6,-11.1,30.22,WNW,288,0.0,8.0,63,0.00,,CLR,0.00,VWS V14.01,2013-02-20 01:42:00,
2013-02-19 19:43:00,-1.6,-11.1,30.22,WNW,287,1.0,8.0,63,0.00,,CLR,0.00,VWS V14.01,2013-02-20 01:43:00,
2013-02-19 19:44:00,-1.6,-11.1,30.22,WNW,287,1.0,8.0,63,0.00,,CLR,0.00,VWS V14.01,2013-02-20 01:44:00,
2013-02-19 19:45:00,-1.6,-11.1,30.22,WNW,287,0.0,8.0,63,0.00,,CLR,0.00,VWS V14.01,2013-02-20 01:45:00,
2013-02-19 19:46:00,-1.8,-11.3,30.22,WNW,287,2.0,8.0,63,0.00,,CLR,0.00,VWS V14.01,2013-02-20 01:46:00,
2013-02-19 19:47:00,-1.8,-11.3,30.22,WNW,287,0.0,8.0,63,0.00,,CLR,0.00,VWS V14.01,2013-02-20 01:47:00,
2013-02-19 19:48:00,-1.8,-11.3,30.22,WNW,287,0.0,8.0,63,0.00,,CLR,0.00,VWS V14.01,2013-02-20 01:48:00,
2013-02-19 19:49:00,-1.8,-11.3,30.22,WNW,288,4.0,8.0,63,0.00,,CLR,0.00,VWS V14.01,2013-02-20 01:49:00,
2013-02-19 19:50:00,-1.8,-11.3,30.22,WNW,288,3.0,8.0,63,0.00,,CLR,0.00,VWS V14.01,2013-02-20 01:50:00,
2013-02-19 19:51:00,-1.8,-11.3,30.22,WNW,287,0.0,8.0,63,0.00,,CLR,0.00,VWS V14.01,2013-02-20 01:51:00,
2013-02-19 19:52:00,-1.8,-11.3,30.22,WNW,288,3.0,8.0,63,0.00,,CLR,0.00,VWS V14.01,2013-02-20 01:52:00,
2013-02-19 19:53:00,-1.8,-11.3,30.22,WNW,288,1.0,8.0,63,0.00,,CLR,0.00,VWS V14.01,2013-02-20 01:53:00,
2013-02-19 19:54:00,-1.8,-11.3,30.22,WNW,288,0.0,8.0,63,0.00,,CLR,0.00,VWS V14.01,2013-02-20 01:54:00,
2013-02-19 19:55:00,-1.8,-11.3,30.22,WNW,287,6.0,8.0,63,0.00,,CLR,0.00,VWS V14.01,2013-02-20 01:55:00,
2013-02-19 19:56:00,-1.8,-11.3,30.22,WNW,286,1.0,8.0,63,0.00,,CLR,0.00,VWS V14.01,2013-02-20 01:56:00,
2013-02-19 19:57:00,-1.8,-11.3,30.22,WNW,286,1.0,8.0,63,0.00,,CLR,0.00,VWS V14.01,2013-02-20 01:57:00,
2013-02-19 19:58:00,-1.8,-11.3,30.22,WNW,286,0.0,8.0,63,0.00,,CLR,0.00,VWS V14.01,2013-02-20 01:58:00,
2013-02-19 19:59:00,-2.0,-11.5,30.22,WNW,287,2.0,8.0,63,0.00,,CLR,0.00,VWS V14.01,2013-02-20 01:59:00,
2013-02-19 20:00:00,-2.0,-11.5,30.22,WNW,286,2.0,8.0,63,0.00,,CLR,0.00,VWS V14.01,2013-02-20 02:00:00,
2013-02-19 20:01:00,-2.0,-11.5,30.22,WNW,286,2.0,2.0,63,0.00,,CLR,0.00,VWS V14.01,2013-02-20 02:01:00,
2013-02-19 20:02:00,-2.0,-11.2,30.22,WNW,286,2.0,4.0,64,0.00,,CLR,0.00,VWS V14.01,2013-02-20 02:02:00,
2013-02-19 20:03:00,-2.0,-11.5,30.22,WNW,286,1.0,4.0,63,0.00,,CLR,0.00,VWS V14.01,2013-02-20 02:03:00,
2013-02-19 20:04:00,-2.0,-11.5,30.22,WNW,286,2.0,4.0,63,0.00,,CLR,0.00,VWS V14.01,2013-02-20 02:04:00,
2013-02-19 20:05:00,-2.2,-11.4,30.22,WNW,287,1.0,4.0,64,0.00,,CLR,0.00,VWS V14.01,2013-02-20 02:05:00,
2013-02-19 20:06:00,-2.2,-11.4,30.22,WNW,287,5.0,5.0,64,0.00,,CLR,0.00,VWS V14.01,2013-02-20 02:06:00,
2013-02-19 20:07:00,-2.2,-11.4,30.22,WNW,287,2.0,5.0,64,0.00,,CLR,0.00,VWS V14.01,2013-02-20 02:07:00,
2013-02-19 20:08:00,-2.2,-11.4,30.22,WNW,288,1.0,5.0,64,0.00,,CLR,0.00,VWS V14.01,2013-02-20 02:08:00,
2013-02-19 20:09:00,-2.2,-11.4,30.22,WNW,287,0.0,5.0,64,0.00,,CLR,0.00,VWS V14.01,2013-02-20 02:09:00,
2013-02-19 20:10:00,-2.2,-11.4,30.22,WNW,287,0.0,5.0,64,0.00,,CLR,0.00,VWS V14.01,2013-02-20 02:10:00,
2013-02-19 20:11:00,-2.2,-11.4,30.22,WNW,287,1.0,5.0,64,0.00,,CLR,0.00,VWS V14.01,2013-02-20 02:11:00,
2013-02-19 20:12:00,-2.2,-11.4,30.22,WNW,287,1.0,5.0,64,0.00,,CLR,0.00,VWS V14.01,2013-02-20 02:12:00,
2013-02-19 20:13:00,-2.2,-11.4,30.22,WNW,287,2.0,5.0,64,0.00,,CLR,0.00,VWS V14.01,2013-02-20 02:13:00,
2013-02-19 20:14:00,-2.4,-11.6,30.22,WNW,287,3.0,5.0,64,0.00,,CLR,0.00,VWS V14.01,2013-02-20 02:14:00,
2013-02-19 20:15:00,-2.4,-11.6,30.22,WNW,288,1.0,5.0,64,0.00,,CLR,0.00,VWS V14.01,2013-02-20 02:15:00,
2013-02-19 20:16:00,-2.4,-11.6,30.22,WNW,288,2.0,5.0,64,0.00,,CLR,0.00,VWS V14.01,2013-02-20 02:16:00,
2013-02-19 20:17:00,-2.4,-11.6,30.22,WNW,288,2.0,5.0,64,0.00,,CLR,0.00,VWS V14.01,2013-02-20 02:17:00,
2013-02-19 20:18:00,-2.4,-11.6,30.22,WNW,288,2.0,5.0,64,0.00,,CLR,0.00,VWS V14.01,2013-02-20 02:18:00,
2013-02-19 20:19:00,-2.4,-11.6,30.22,WNW,288,3.0,5.0,64,0.00,,CLR,0.00,VWS V14.01,2013-02-20 02:19:00,
2013-02-19 20:20:00,-2.4,-11.6,30.22,WNW,288,1.0,5.0,64,0.00,,CLR,0.00,VWS V14.01,2013-02-20 02:20:00,
2013-02-19 20:21:00,-2.4,-11.6,30.22,WNW,288,2.0,5.0,64,0.00,,CLR,0.00,VWS V14.01,2013-02-20 02:21:00,
2013-02-19 20:22:00,-2.4,-11.6,30.22,WNW,290,2.0,6.0,64,0.00,,CLR,0.00,VWS V14.01,2013-02-20 02:22:00,
2013-02-19 20:23:00,-2.4,-11.6,30.22,WNW,288,0.0,6.0,64,0.00,,CLR,0.00,VWS V14.01,2013-02-20 02:23:00,
2013-02-19 20:24:00,-2.4,-11.6,30.22,WNW,288,1.0,6.0,64,0.00,,CLR,0.00,VWS V14.01,2013-02-20 02:24:00,
2013-02-19 20:25:00,-2.4,-11.6,30.22,WNW,290,1.0,6.0,64,0.00,,CLR,0.00,VWS V14.01,2013-02-20 02:25:00,
2013-02-19 20:26:00,-2.4,-11.6,30.22,WNW,290,2.0,6.0,64,0.00,,CLR,0.00,VWS V14.01,2013-02-20 02:26:00,
2013-02-19 20:27:00,-2.6,-11.8,30.22,WNW,290,2.0,6.0,64,0.00,,CLR,0.00,VWS V14.01,2013-02-20 02:27:00,
2013-02-19 20:28:00,-2.6,-11.8,30.22,WNW,290,1.0,6.0,64,0.00,,CLR,0.00,VWS V14.01,2013-02-20 02:28:00,
2013-02-19 20:29:00,-2.6,-11.8,30.22,WNW,290,2.0,6.0,64,0.00,,CLR,0.00,VWS V14.01,2013-02-20 02:29:00,
2013-02-19 20:30:00,-2.6,-11.8,30.23,WNW,290,0.0,6.0,64,0.00,,CLR,0.00,VWS V14.01,2013-02-20 02:30:00,
2013-02-19 20:31:00,-2.6,-11.8,30.23,WNW,290,3.0,3.0,64,0.00,,CLR,0.00,VWS V14.01,2013-02-20 02:31:00,
2013-02-19 20:32:00,-2.6,-11.8,30.23,WNW,290,0.0,3.0,64,0.00,,CLR,0.00,VWS V14.01,2013-02-20 02:32:00,
2013-02-19 20:33:00,-2.8,-11.6,30.23,WNW,290,2.0,3.0,65,0.00,,CLR,0.00,VWS V14.01,2013-02-20 02:33:00,
2013-02-19 20:34:00,-2.8,-11.6,30.23,WNW,290,1.0,3.0,65,0.00,,CLR,0.00,VWS V14.01,2013-02-20 02:34:00,
2013-02-19 20:35:00,-2.8,-11.6,30.23,WNW,290,3.0,3.0,65,0.00,,CLR,0.00,VWS V14.01,2013-02-20 02:35:00,
2013-02-19 20:36:00,-2.8,-11.6,30.23,WNW,290,0.0,3.0,65,0.00,,CLR,0.00,VWS V14.01,2013-02-20 02:36:00,
2013-02-19 20:37:00,-2.6,-11.4,30.23,WNW,287,0.0,3.0,65,0.00,,CLR,0.00,VWS V14.01,2013-02-20 02:37:00,
2013-02-19 20:38:00,-2.6,-11.4,30.23,WNW,287,1.0,4.0,65,0.00,,CLR,0.00,VWS V14.01,2013-02-20 02:38:00,
2013-02-19 20:39:00,-2.6,-11.4,30.23,WNW,287,1.0,4.0,65,0.00,,CLR,0.00,VWS V14.01,2013-02-20 02:39:00,
2013-02-19 20:40:00,-2.6,-11.8,30.23,WNW,288,1.0,4.0,64,0.00,,CLR,0.00,VWS V14.01,2013-02-20 02:40:00,
2013-02-19 20:41:00,-2.8,-11.9,30.23,WNW,287,0.0,4.0,64,0.00,,CLR,0.00,VWS V14.01,2013-02-20 02:41:00,
2013-02-19 20:42:00,-2.8,-11.9,30.23,WNW,287,3.0,6.0,64,0.00,,CLR,0.00,VWS V14.01,2013-02-20 02:42:00,
2013-02-19 20:43:00,-2.8,-11.6,30.23,WNW,287,0.0,6.0,65,0.00,,CLR,0.00,VWS V14.01,2013-02-20 02:43:00,
2013-02-19 20:44:00,-2.8,-11.9,30.23,WNW,287,2.0,6.0,64,0.00,,CLR,0.00,VWS V14.01,2013-02-20 02:44:00,
2013-02-19 20:45:00,-2.8,-11.9,30.24,WNW,287,5.0,6.0,64,0.00,,CLR,0.00,VWS V14.01,2013-02-20 02:45:00,
2013-02-19 20:46:00,-2.8,-11.6,30.24,WNW,287,0.0,6.0,65,0.00,,CLR,0.00,VWS V14.01,2013-02-20 02:46:00,
2013-02-19 20:47:00,-2.8,-11.9,30.24,WNW,288,2.0,6.0,64,0.00,,CLR,0.00,VWS V14.01,2013-02-20 02:47:00,
2013-02-19 20:48:00,-2.8,-11.6,30.24,WNW,287,0.0,6.0,65,0.00,,CLR,0.00,VWS V14.01,2013-02-20 02:48:00,
2013-02-19 20:49:00,-2.8,-11.6,30.24,WNW,287,5.0,6.0,65,0.00,,CLR,0.00,VWS V14.01,2013-02-20 02:49:00,
2013-02-19 20:50:00,-2.8,-11.6,30.24,WNW,288,2.0,6.0,65,0.00,,CLR,0.00,VWS V14.01,2013-02-20 02:50:00,
2013-02-19 20:51:00,-2.8,-11.6,30.24,WNW,288,3.0,6.0,65,0.00,,CLR,0.00,VWS V14.01,2013-02-20 02:51:00,
2013-02-19 20:52:00,-2.8,-11.6,30.24,WNW,288,3.0,6.0,65,0.00,,CLR,0.00,VWS V14.01,2013-02-20 02:52:00,
2013-02-19 20:53:00,-2.8,-11.9,30.24,WNW,288,2.0,6.0,64,0.00,,CLR,0.00,VWS V14.01,2013-02-20 02:53:00,
2013-02-19 20:54:00,-2.8,-11.9,30.24,WNW,288,6.0,6.0,64,0.00,,CLR,0.00,VWS V14.01,2013-02-20 02:54:00,
2013-02-19 20:55:00,-2.8,-11.9,30.24,WNW,284,0.0,6.0,64,0.00,,CLR,0.00,VWS V14.01,2013-02-20 02:55:00,
2013-02-19 20:56:00,-2.8,-11.9,30.24,WNW,287,0.0,6.0,64,0.00,,CLR,0.00,VWS V14.01,2013-02-20 02:56:00,
2013-02-19 20:57:00,-2.8,-11.9,30.24,WNW,287,1.0,6.0,64,0.00,,CLR,0.00,VWS V14.01,2013-02-20 02:57:00,
2013-02-19 20:58:00,-2.8,-11.9,30.24,WNW,287,3.0,6.0,64,0.00,,CLR,0.00,VWS V14.01,2013-02-20 02:58:00,
2013-02-19 20:59:00,-2.8,-11.9,30.24,WNW,287,4.0,6.0,64,0.00,,CLR,0.00,VWS V14.01,2013-02-20 02:59:00,
2013-02-19 21:00:00,-2.8,-11.9,30.24,WNW,287,2.0,6.0,64,0.00,,CLR,0.00,VWS V14.01,2013-02-20 03:00:00,
2013-02-19 21:01:00,-2.8,-11.9,30.24,WNW,287,3.0,4.0,64,0.00,,CLR,0.00,VWS V14.01,2013-02-20 03:01:00,
2013-02-19 21:02:00,-2.8,-11.9,30.24,WNW,288,5.0,5.0,64,0.00,,CLR,0.00,VWS V14.01,2013-02-20 03:02:00,
2013-02-19 21:03:00,-3.1,-12.2,30.24,WNW,290,2.0,6.0,64,0.00,,CLR,0.00,VWS V14.01,2013-02-20 03:03:00,
2013-02-19 21:04:00,-2.8,-11.9,30.24,WNW,290,2.0,6.0,64,0.00,,CLR,0.00,VWS V14.01,2013-02-20 03:04:00,
2013-02-19 21:05:00,-3.1,-12.2,30.24,WNW,290,0.0,6.0,64,0.00,,CLR,0.00,VWS V14.01,2013-02-20 03:05:00,
2013-02-19 21:06:00,-3.1,-12.2,30.24,WNW,290,2.0,6.0,64,0.00,,CLR,0.00,VWS V14.01,2013-02-20 03:06:00,
2013-02-19 21:07:00,-3.1,-12.2,30.24,WNW,290,0.0,6.0,64,0.00,,CLR,0.00,VWS V14.01,2013-02-20 03:07:00,
2013-02-19 21:08:00,-3.1,-12.2,30.24,WNW,290,1.0,6.0,64,0.00,,CLR,0.00,VWS V14.01,2013-02-20 03:08:00,
2013-02-19 21:09:00,-3.1,-11.9,30.24,WNW,290,2.0,6.0,65,0.00,,CLR,0.00,VWS V14.01,2013-02-20 03:09:00,
2013-02-19 21:10:00,-3.1,-12.2,30.24,WNW,290,0.0,6.0,64,0.00,,CLR,0.00,VWS V14.01,2013-02-20 03:10:00,
2013-02-19 21:11:00,-3.1,-12.2,30.24,WNW,290,2.0,6.0,64,0.00,,CLR,0.00,VWS V14.01,2013-02-20 03:11:00,
2013-02-19 21:12:00,-3.1,-12.2,30.24,WNW,290,2.0,6.0,64,0.00,,CLR,0.00,VWS V14.01,2013-02-20 03:12:00,
2013-02-19 21:13:00,-3.1,-12.2,30.24,WNW,290,1.0,6.0,64,0.00,,CLR,0.00,VWS V14.01,2013-02-20 03:13:00,
2013-02-19 21:14:00,-3.1,-12.2,30.24,WNW,290,2.0,6.0,64,0.00,,CLR,0.00,VWS V14.01,2013-02-20 03:14:00,
2013-02-19 21:15:00,-3.1,-12.2,30.24,WNW,290,2.0,6.0,64,0.00,,CLR,0.00,VWS V14.01,2013-02-20 03:15:00,
2013-02-19 21:16:00,-3.3,-12.4,30.24,WNW,288,3.0,6.0,64,0.00,,CLR,0.00,VWS V14.01,2013-02-20 03:16:00,
2013-02-19 21:17:00,-3.3,-12.4,30.24,WNW,288,0.0,6.0,64,0.00,,CLR,0.00,VWS V14.01,2013-02-20 03:17:00,
2013-02-19 21:18:00,-3.3,-12.1,30.24,WNW,288,0.0,6.0,65,0.00,,CLR,0.00,VWS V14.01,2013-02-20 03:18:00,
2013-02-19 21:19:00,-3.3,-12.4,30.24,WNW,288,0.0,6.0,64,0.00,,CLR,0.00,VWS V14.01,2013-02-20 03:19:00,
2013-02-19 21:20:00,-3.3,-12.4,30.24,WNW,288,2.0,6.0,64,0.00,,CLR,0.00,VWS V14.01,2013-02-20 03:20:00,
2013-02-19 21:21:00,-3.3,-12.4,30.24,WNW,288,3.0,6.0,64,0.00,,CLR,0.00,VWS V14.01,2013-02-20 03:21:00,
2013-02-19 21:22:00,-3.3,-12.4,30.24,WNW,288,2.0,6.0,64,0.00,,CLR,0.00,VWS V14.01,2013-02-20 03:22:00,
2013-02-19 21:23:00,-3.3,-12.1,30.24,WNW,288,1.0,6.0,65,0.00,,CLR,0.00,VWS V14.01,2013-02-20 03:23:00,
2013-02-19 21:24:00,-3.5,-12.6,30.24,WNW,288,1.0,6.0,64,0.00,,CLR,0.00,VWS V14.01,2013-02-20 03:24:00,
2013-02-19 21:25:00,-3.5,-12.6,30.24,WNW,288,4.0,6.0,64,0.00,,CLR,0.00,VWS V14.01,2013-02-20 03:25:00,
2013-02-19 21:26:00,-3.5,-12.3,30.24,WNW,288,2.0,6.0,65,0.00,,CLR,0.00,VWS V14.01,2013-02-20 03:26:00,
2013-02-19 21:27:00,-3.5,-12.3,30.24,WNW,288,1.0,6.0,65,0.00,,CLR,0.00,VWS V14.01,2013-02-20 03:27:00,
2013-02-19 21:28:00,-3.5,-12.3,30.24,WNW,288,2.0,6.0,65,0.00,,CLR,0.00,VWS V14.01,2013-02-20 03:28:00,
2013-02-19 21:29:00,-3.5,-12.3,30.24,WNW,288,1.0,6.0,65,0.00,,CLR,0.00,VWS V14.01,2013-02-20 03:29:00,
2013-02-19 21:30:00,-3.7,-12.5,30.25,WNW,287,1.0,6.0,65,0.00,,CLR,0.00,VWS V14.01,2013-02-20 03:30:00,
2013-02-19 21:31:00,-3.7,-12.5,30.25,WNW,287,0.0,3.0,65,0.00,,CLR,0.00,VWS V14.01,2013-02-20 03:31:00,
2013-02-19 21:32:00,-3.7,-12.5,30.25,WNW,287,0.0,3.0,65,0.00,,CLR,0.00,VWS V14.01,2013-02-20 03:32:00,
2013-02-19 21:33:00,-3.7,-12.5,30.25,WNW,287,3.0,3.0,65,0.00,,CLR,0.00,VWS V14.01,2013-02-20 03:33:00,
2013-02-19 21:34:00,-3.7,-12.5,30.25,WNW,287,0.0,4.0,65,0.00,,CLR,0.00,VWS V14.01,2013-02-20 03:34:00,
2013-02-19 21:35:00,-3.7,-12.5,30.25,WNW,287,3.0,4.0,65,0.00,,CLR,0.00,VWS V14.01,2013-02-20 03:35:00,
2013-02-19 21:36:00,-3.7,-12.5,30.25,WNW,287,2.0,4.0,65,0.00,,CLR,0.00,VWS V14.01,2013-02-20 03:36:00,
2013-02-19 21:37:00,-3.7,-12.5,30.25,WNW,287,1.0,4.0,65,0.00,,CLR,0.00,VWS V14.01,2013-02-20 03:37:00,
2013-02-19 21:38:00,-3.7,-12.5,30.25,WNW,287,2.0,4.0,65,0.00,,CLR,0.00,VWS V14.01,2013-02-20 03:38:00,
2013-02-19 21:39:00,-3.7,-12.5,30.25,WNW,287,0.0,4.0,65,0.00,,CLR,0.00,VWS V14.01,2013-02-20 03:39:00,
2013-02-19 21:40:00,-3.7,-12.5,30.25,WNW,287,0.0,4.0,65,0.00,,CLR,0.00,VWS V14.01,2013-02-20 03:40:00,
2013-02-19 21:41:00,-3.9,-12.7,30.25,WNW,287,1.0,4.0,65,0.00,,CLR,0.00,VWS V14.01,2013-02-20 03:41:00,
2013-02-19 21:42:00,-3.9,-12.7,30.25,WNW,287,1.0,4.0,65,0.00,,CLR,0.00,VWS V14.01,2013-02-20 03:42:00,
2013-02-19 21:43:00,-3.9,-12.7,30.25,WNW,287,0.0,4.0,65,0.00,,CLR,0.00,VWS V14.01,2013-02-20 03:43:00,
2013-02-19 21:44:00,-3.9,-12.7,30.25,WNW,287,0.0,4.0,65,0.00,,CLR,0.00,VWS V14.01,2013-02-20 03:44:00,
2013-02-19 21:45:00,-3.9,-12.7,30.25,WNW,287,2.0,4.0,65,0.00,,CLR,0.00,VWS V14.01,2013-02-20 03:45:00,
2013-02-19 21:46:00,-3.9,-12.7,30.25,WNW,287,2.0,4.0,65,0.00,,CLR,0.00,VWS V14.01,2013-02-20 03:46:00,
2013-02-19 21:47:00,-3.9,-12.7,30.25,WNW,287,0.0,4.0,65,0.00,,CLR,0.00,VWS V14.01,2013-02-20 03:47:00,
2013-02-19 21:48:00,-3.9,-12.7,30.25,WNW,287,2.0,4.0,65,0.00,,CLR,0.00,VWS V14.01,2013-02-20 03:48:00,
2013-02-19 21:49:00,-3.9,-12.7,30.25,WNW,287,0.0,4.0,65,0.00,,CLR,0.00,VWS V14.01,2013-02-20 03:49:00,
2013-02-19 21:50:00,-4.1,-12.9,30.25,WNW,287,3.0,4.0,65,0.00,,CLR,0.00,VWS V14.01,2013-02-20 03:50:00,
2013-02-19 21:51:00,-4.1,-12.9,30.25,WNW,287,2.0,4.0,65,0.00,,CLR,0.00,VWS V14.01,2013-02-20 03:51:00,
2013-02-19 21:52:00,-4.1,-12.9,30.25,WNW,287,0.0,4.0,65,0.00,,CLR,0.00,VWS V14.01,2013-02-20 03:52:00,
2013-02-19 21:53:00,-4.1,-12.9,30.25,WNW,287,1.0,4.0,65,0.00,,CLR,0.00,VWS V14.01,2013-02-20 03:53:00,
2013-02-19 21:54:00,-4.1,-12.9,30.25,WNW,287,0.0,4.0,65,0.00,,CLR,0.00,VWS V14.01,2013-02-20 03:54:00,
2013-02-19 21:55:00,-4.1,-12.6,30.25,WNW,287,1.0,4.0,66,0.00,,CLR,0.00,VWS V14.01,2013-02-20 03:55:00,
2013-02-19 21:56:00,-4.1,-12.6,30.25,WNW,286,0.0,4.0,66,0.00,,CLR,0.00,VWS V14.01,2013-02-20 03:56:00,
2013-02-19 21:57:00,-4.1,-12.9,30.25,WNW,286,0.0,4.0,65,0.00,,CLR,0.00,VWS V14.01,2013-02-20 03:57:00,
2013-02-19 21:58:00,-4.1,-12.6,30.25,WNW,286,3.0,4.0,66,0.00,,CLR,0.00,VWS V14.01,2013-02-20 03:58:00,
2013-02-19 21:59:00,-4.1,-12.6,30.25,WNW,284,2.0,4.0,66,0.00,,CLR,0.00,VWS V14.01,2013-02-20 03:59:00,
2013-02-19 22:00:00,-4.1,-12.9,30.26,WNW,284,0.0,6.0,65,0.00,,CLR,0.00,VWS V14.01,2013-02-20 04:00:00,
2013-02-19 22:01:00,-4.1,-12.6,30.26,WNW,283,0.0,5.0,66,0.00,,CLR,0.00,VWS V14.01,2013-02-20 04:01:00,
2013-02-19 22:02:00,-4.1,-12.6,30.26,WNW,283,2.0,5.0,66,0.00,,CLR,0.00,VWS V14.01,2013-02-20 04:02:00,
2013-02-19 22:03:00,-4.1,-12.9,30.26,WNW,283,1.0,5.0,65,0.00,,CLR,0.00,VWS V14.01,2013-02-20 04:03:00,
2013-02-19 22:04:00,-4.1,-12.9,30.26,WNW,283,0.0,5.0,65,0.00,,CLR,0.00,VWS V14.01,2013-02-20 04:04:00,
2013-02-19 22:05:00,-4.1,-12.9,30.26,WNW,283,3.0,5.0,65,0.00,,CLR,0.00,VWS V14.01,2013-02-20 04:05:00,
2013-02-19 22:06:00,-4.1,-12.9,30.26,West,278,2.0,6.0,65,0.00,,CLR,0.00,VWS V14.01,2013-02-20 04:06:00,
2013-02-19 22:07:00,-4.1,-12.9,30.26,West,276,1.0,6.0,65,0.00,,CLR,0.00,VWS V14.01,2013-02-20 04:07:00,
2013-02-19 22:08:00,-4.1,-12.9,30.26,West,276,1.0,6.0,65,0.00,,CLR,0.00,VWS V14.01,2013-02-20 04:08:00,
2013-02-19 22:09:00,-4.1,-12.9,30.26,West,276,3.0,6.0,65,0.00,,CLR,0.00,VWS V14.01,2013-02-20 04:09:00,
2013-02-19 22:10:00,-4.1,-12.9,30.26,West,277,0.0,6.0,65,0.00,,CLR,0.00,VWS V14.01,2013-02-20 04:10:00,
2013-02-19 22:11:00,-4.1,-12.9,30.26,West,277,4.0,6.0,65,0.00,,CLR,0.00,VWS V14.01,2013-02-20 04:11:00,
2013-02-19 22:12:00,-4.1,-12.9,30.26,West,277,0.0,6.0,65,0.00,,CLR,0.00,VWS V14.01,2013-02-20 04:12:00,
2013-02-19 22:13:00,-4.1,-12.9,30.26,West,277,2.0,6.0,65,0.00,,CLR,0.00,VWS V14.01,2013-02-20 04:13:00,
2013-02-19 22:14:00,-4.1,-12.9,30.26,West,277,0.0,6.0,65,0.00,,CLR,0.00,VWS V14.01,2013-02-20 04:14:00,
2013-02-19 22:15:00,-4.1,-12.9,30.26,West,277,3.0,6.0,65,0.00,,CLR,0.00,VWS V14.01,2013-02-20 04:15:00,
2013-02-19 22:16:00,-4.1,-12.9,30.26,West,277,1.0,6.0,65,0.00,,CLR,0.00,VWS V14.01,2013-02-20 04:16:00,
2013-02-19 22:17:00,-4.1,-12.9,30.26,West,277,1.0,6.0,65,0.00,,CLR,0.00,VWS V14.01,2013-02-20 04:17:00,
2013-02-19 22:18:00,-4.1,-12.9,30.26,West,277,0.0,6.0,65,0.00,,CLR,0.00,VWS V14.01,2013-02-20 04:18:00,
2013-02-19 22:19:00,-4.1,-12.9,30.26,West,277,6.0,6.0,65,0.00,,CLR,0.00,VWS V14.01,2013-02-20 04:19:00,
2013-02-19 22:20:00,-4.3,-13.1,30.26,West,277,2.0,6.0,65,0.00,,CLR,0.00,VWS V14.01,2013-02-20 04:20:00,
2013-02-19 22:21:00,-4.3,-13.1,30.26,West,277,1.0,6.0,65,0.00,,CLR,0.00,VWS V14.01,2013-02-20 04:21:00,
2013-02-19 22:22:00,-4.3,-13.1,30.26,West,277,1.0,6.0,65,0.00,,CLR,0.00,VWS V14.01,2013-02-20 04:22:00,
2013-02-19 22:23:00,-4.3,-13.1,30.26,West,277,0.0,6.0,65,0.00,,CLR,0.00,VWS V14.01,2013-02-20 04:23:00,
2013-02-19 22:24:00,-4.3,-13.1,30.26,West,277,1.0,6.0,65,0.00,,CLR,0.00,VWS V14.01,2013-02-20 04:24:00,
2013-02-19 22:25:00,-4.3,-13.1,30.26,West,277,3.0,6.0,65,0.00,,CLR,0.00,VWS V14.01,2013-02-20 04:25:00,
2013-02-19 22:26:00,-4.3,-13.1,30.26,West,277,1.0,6.0,65,0.00,,CLR,0.00,VWS V14.01,2013-02-20 04:26:00,
2013-02-19 22:27:00,-4.3,-13.1,30.26,West,277,2.0,6.0,65,0.00,,CLR,0.00,VWS V14.01,2013-02-20 04:27:00,
2013-02-19 22:28:00,-4.3,-13.1,30.26,West,277,0.0,6.0,65,0.00,,CLR,0.00,VWS V14.01,2013-02-20 04:28:00,
2013-02-19 22:29:00,-4.3,-13.1,30.26,West,277,0.0,6.0,65,0.00,,CLR,0.00,VWS V14.01,2013-02-20 04:29:00,
2013-02-19 22:30:00,-4.6,-13.4,30.26,West,277,0.0,6.0,65,0.00,,CLR,0.00,VWS V14.01,2013-02-20 04:30:00,
2013-02-19 22:31:00,-4.6,-13.4,30.26,West,277,1.0,3.0,65,0.00,,CLR,0.00,VWS V14.01,2013-02-20 04:31:00,
2013-02-19 22:32:00,-4.6,-13.1,30.26,West,277,0.0,3.0,66,0.00,,CLR,0.00,VWS V14.01,2013-02-20 04:32:00,
2013-02-19 22:33:00,-4.6,-13.1,30.26,West,277,0.0,3.0,66,0.00,,CLR,0.00,VWS V14.01,2013-02-20 04:33:00,
2013-02-19 22:34:00,-4.3,-12.8,30.26,West,277,0.0,3.0,66,0.00,,CLR,0.00,VWS V14.01,2013-02-20 04:34:00,
2013-02-19 22:35:00,-4.3,-12.8,30.26,West,277,0.0,3.0,66,0.00,,CLR,0.00,VWS V14.01,2013-02-20 04:35:00,
2013-02-19 22:36:00,-4.3,-12.8,30.26,West,277,1.0,3.0,66,0.00,,CLR,0.00,VWS V14.01,2013-02-20 04:36:00,
2013-02-19 22:37:00,-4.3,-12.8,30.26,West,277,0.0,3.0,66,0.00,,CLR,0.00,VWS V14.01,2013-02-20 04:37:00,
2013-02-19 22:38:00,-4.3,-12.8,30.26,West,277,0.0,3.0,66,0.00,,CLR,0.00,VWS V14.01,2013-02-20 04:38:00,
2013-02-19 22:39:00,-4.3,-12.8,30.26,West,277,0.0,3.0,66,0.00,,CLR,0.00,VWS V14.01,2013-02-20 04:39:00,
2013-02-19 22:40:00,-4.3,-12.8,30.26,West,277,0.0,3.0,66,0.00,,CLR,0.00,VWS V14.01,2013-02-20 04:40:00,
2013-02-19 22:41:00,-4.3,-12.8,30.26,West,277,2.0,3.0,66,0.00,,CLR,0.00,VWS V14.01,2013-02-20 04:41:00,
2013-02-19 22:42:00,-4.3,-12.8,30.26,West,277,1.0,3.0,66,0.00,,CLR,0.00,VWS V14.01,2013-02-20 04:42:00,
2013-02-19 22:43:00,-4.3,-12.8,30.26,West,277,2.0,3.0,66,0.00,,CLR,0.00,VWS V14.01,2013-02-20 04:43:00,
2013-02-19 22:44:00,-4.3,-12.8,30.26,West,277,1.0,5.0,66,0.00,,CLR,0.00,VWS V14.01,2013-02-20 04:44:00,
2013-02-19 22:45:00,-4.3,-13.1,30.27,West,277,2.0,5.0,65,0.00,,CLR,0.00,VWS V14.01,2013-02-20 04:45:00,
2013-02-19 22:46:00,-4.3,-13.1,30.27,West,277,3.0,5.0,65,0.00,,CLR,0.00,VWS V14.01,2013-02-20 04:46:00,
2013-02-19 22:47:00,-4.3,-13.1,30.27,West,277,3.0,5.0,65,0.00,,CLR,0.00,VWS V14.01,2013-02-20 04:47:00,
2013-02-19 22:48:00,-4.3,-13.1,30.27,West,276,0.0,5.0,65,0.00,,CLR,0.00,VWS V14.01,2013-02-20 04:48:00,
2013-02-19 22:49:00,-4.3,-13.1,30.27,West,276,3.0,5.0,65,0.00,,CLR,0.00,VWS V14.01,2013-02-20 04:49:00,
2013-02-19 22:50:00,-4.6,-13.4,30.27,West,276,0.0,5.0,65,0.00,,CLR,0.00,VWS V14.01,2013-02-20 04:50:00,
2013-02-19 22:51:00,-4.6,-13.4,30.27,West,276,1.0,5.0,65,0.00,,CLR,0.00,VWS V14.01,2013-02-20 04:51:00,
2013-02-19 22:52:00,-4.6,-13.4,30.27,West,276,2.0,5.0,65,0.00,,CLR,0.00,VWS V14.01,2013-02-20 04:52:00,
2013-02-19 22:53:00,-4.6,-13.4,30.27,West,276,2.0,5.0,65,0.00,,CLR,0.00,VWS V14.01,2013-02-20 04:53:00,
2013-02-19 22:54:00,-4.6,-13.4,30.27,West,276,3.0,5.0,65,0.00,,CLR,0.00,VWS V14.01,2013-02-20 04:54:00,
2013-02-19 22:55:00,-4.6,-13.4,30.27,West,276,6.0,7.0,65,0.00,,CLR,0.00,VWS V14.01,2013-02-20 04:55:00,
2013-02-19 22:56:00,-4.6,-13.1,30.27,West,276,0.0,7.0,66,0.00,,CLR,0.00,VWS V14.01,2013-02-20 04:56:00,
2013-02-19 22:57:00,-4.6,-13.4,30.27,West,276,3.0,7.0,65,0.00,,CLR,0.00,VWS V14.01,2013-02-20 04:57:00,
2013-02-19 22:58:00,-4.6,-13.4,30.27,West,277,7.0,7.0,65,0.00,,CLR,0.00,VWS V14.01,2013-02-20 04:58:00,
2013-02-19 22:59:00,-4.6,-13.1,30.27,West,277,1.0,7.0,66,0.00,,CLR,0.00,VWS V14.01,2013-02-20 04:59:00,
2013-02-19 23:00:00,-4.6,-13.4,30.28,WNW,286,6.0,8.0,65,0.00,,CLR,0.00,VWS V14.01,2013-02-20 05:00:00,
2013-02-19 23:01:00,-4.6,-13.4,30.28,WNW,284,2.0,6.0,65,0.00,,CLR,0.00,VWS V14.01,2013-02-20 05:01:00,
2013-02-19 23:02:00,-4.6,-13.4,30.28,WNW,284,1.0,6.0,65,0.00,,CLR,0.00,VWS V14.01,2013-02-20 05:02:00,
2013-02-19 23:03:00,-4.6,-13.4,30.28,WNW,284,3.0,6.0,65,0.00,,CLR,0.00,VWS V14.01,2013-02-20 05:03:00,
2013-02-19 23:04:00,-4.6,-13.4,30.28,WNW,284,2.0,6.0,65,0.00,,CLR,0.00,VWS V14.01,2013-02-20 05:04:00,
2013-02-19 23:05:00,-4.6,-13.4,30.28,WNW,284,2.0,6.0,65,0.00,,CLR,0.00,VWS V14.01,2013-02-20 05:05:00,
2013-02-19 23:06:00,-4.6,-13.4,30.28,WNW,284,0.0,6.0,65,0.00,,CLR,0.00,VWS V14.01,2013-02-20 05:06:00,
2013-02-19 23:07:00,-4.8,-13.6,30.28,WNW,284,2.0,6.0,65,0.00,,CLR,0.00,VWS V14.01,2013-02-20 05:07:00,
2013-02-19 23:08:00,-4.8,-13.6,30.28,WNW,284,3.0,6.0,65,0.00,,CLR,0.00,VWS V14.01,2013-02-20 05:08:00,
2013-02-19 23:09:00,-4.8,-13.2,30.28,WNW,284,1.0,6.0,66,0.00,,CLR,0.00,VWS V14.01,2013-02-20 05:09:00,
2013-02-19 23:10:00,-4.8,-13.6,30.28,WNW,284,0.0,6.0,65,0.00,,CLR,0.00,VWS V14.01,2013-02-20 05:10:00,
2013-02-19 23:11:00,-4.8,-13.6,30.28,WNW,284,1.0,6.0,65,0.00,,CLR,0.00,VWS V14.01,2013-02-20 05:11:00,
2013-02-19 23:12:00,-4.8,-13.6,30.28,WNW,284,2.0,6.0,65,0.00,,CLR,0.00,VWS V14.01,2013-02-20 05:12:00,
2013-02-19 23:13:00,-5.0,-13.7,30.28,WNW,284,1.0,6.0,65,0.00,,CLR,0.00,VWS V14.01,2013-02-20 05:13:00,
2013-02-19 23:14:00,-5.0,-13.4,30.28,WNW,284,0.0,6.0,66,0.00,,CLR,0.00,VWS V14.01,2013-02-20 05:14:00,
2013-02-19 23:15:00,-5.0,-13.4,30.28,WNW,284,2.0,6.0,66,0.00,,CLR,0.00,VWS V14.01,2013-02-20 05:15:00,
2013-02-19 23:16:00,-5.0,-13.4,30.28,WNW,284,0.0,6.0,66,0.00,,CLR,0.00,VWS V14.01,2013-02-20 05:16:00,
2013-02-19 23:17:00,-5.0,-13.4,30.28,WNW,284,0.0,6.0,66,0.00,,CLR,0.00,VWS V14.01,2013-02-20 05:17:00,
2013-02-19 23:18:00,-5.0,-13.4,30.28,WNW,284,0.0,6.0,66,0.00,,CLR,0.00,VWS V14.01,2013-02-20 05:18:00,
2013-02-19 23:19:00,-5.0,-13.4,30.28,WNW,284,2.0,6.0,66,0.00,,CLR,0.00,VWS V14.01,2013-02-20 05:19:00,
2013-02-19 23:20:00,-5.0,-13.4,30.28,WNW,284,0.0,6.0,66,0.00,,CLR,0.00,VWS V14.01,2013-02-20 05:20:00,
2013-02-19 23:21:00,-5.0,-13.4,30.28,WNW,284,0.0,6.0,66,0.00,,CLR,0.00,VWS V14.01,2013-02-20 05:21:00,
2013-02-19 23:22:00,-5.0,-13.4,30.28,WNW,284,2.0,6.0,66,0.00,,CLR,0.00,VWS V14.01,2013-02-20 05:22:00,
2013-02-19 23:23:00,-5.0,-13.4,30.28,WNW,284,1.0,6.0,66,0.00,,CLR,0.00,VWS V14.01,2013-02-20 05:23:00,
2013-02-19 23:24:00,-5.0,-13.4,30.28,WNW,284,1.0,6.0,66,0.00,,CLR,0.00,VWS V14.01,2013-02-20 05:24:00,
2013-02-19 23:25:00,-5.0,-13.4,30.28,WNW,284,0.0,6.0,66,0.00,,CLR,0.00,VWS V14.01,2013-02-20 05:25:00,
2013-02-19 23:26:00,-5.0,-13.4,30.28,WNW,284,0.0,6.0,66,0.00,,CLR,0.00,VWS V14.01,2013-02-20 05:26:00,
2013-02-19 23:27:00,-5.0,-13.4,30.28,WNW,284,0.0,6.0,66,0.00,,CLR,0.00,VWS V14.01,2013-02-20 05:27:00,
2013-02-19 23:28:00,-5.0,-13.4,30.28,WNW,284,2.0,6.0,66,0.00,,CLR,0.00,VWS V14.01,2013-02-20 05:28:00,
2013-02-19 23:29:00,-5.0,-13.4,30.28,WNW,284,1.0,6.0,66,0.00,,CLR,0.00,VWS V14.01,2013-02-20 05:29:00,
2013-02-19 23:30:00,-5.0,-13.4,30.28,WNW,284,0.0,6.0,66,0.00,,CLR,0.00,VWS V14.01,2013-02-20 05:30:00,
2013-02-19 23:31:00,-5.0,-13.4,30.28,WNW,284,0.0,0.0,66,0.00,,CLR,0.00,VWS V14.01,2013-02-20 05:31:00,
2013-02-19 23:32:00,-5.0,-13.4,30.28,WNW,284,1.0,1.0,66,0.00,,CLR,0.00,VWS V14.01,2013-02-20 05:32:00,
2013-02-19 23:33:00,-5.2,-13.6,30.28,WNW,284,0.0,2.0,66,0.00,,CLR,0.00,VWS V14.01,2013-02-20 05:33:00,
2013-02-19 23:34:00,-5.2,-13.6,30.28,WNW,284,0.0,3.0,66,0.00,,CLR,0.00,VWS V14.01,2013-02-20 05:34:00,
2013-02-19 23:35:00,-5.2,-13.6,30.28,WNW,284,1.0,3.0,66,0.00,,CLR,0.00,VWS V14.01,2013-02-20 05:35:00,
2013-02-19 23:36:00,-5.2,-13.6,30.28,WNW,284,0.0,3.0,66,0.00,,CLR,0.00,VWS V14.01,2013-02-20 05:36:00,
2013-02-19 23:37:00,-5.0,-13.4,30.28,WNW,284,2.0,3.0,66,0.00,,CLR,0.00,VWS V14.01,2013-02-20 05:37:00,
2013-02-19 23:38:00,-5.0,-13.4,30.28,WNW,284,0.0,3.0,66,0.00,,CLR,0.00,VWS V14.01,2013-02-20 05:38:00,
2013-02-19 23:39:00,-5.2,-13.6,30.28,WNW,284,0.0,3.0,66,0.00,,CLR,0.00,VWS V14.01,2013-02-20 05:39:00,
2013-02-19 23:40:00,-5.2,-13.6,30.28,WNW,284,1.0,3.0,66,0.00,,CLR,0.00,VWS V14.01,2013-02-20 05:40:00,
2013-02-19 23:41:00,-5.2,-13.6,30.28,WNW,284,2.0,3.0,66,0.00,,CLR,0.00,VWS V14.01,2013-02-20 05:41:00,
2013-02-19 23:42:00,-5.2,-13.6,30.28,WNW,284,1.0,3.0,66,0.00,,CLR,0.00,VWS V14.01,2013-02-20 05:42:00,
2013-02-19 23:43:00,-5.2,-13.6,30.28,WNW,284,0.0,3.0,66,0.00,,CLR,0.00,VWS V14.01,2013-02-20 05:43:00,
2013-02-19 23:44:00,-5.2,-13.6,30.28,WNW,284,1.0,3.0,66,0.00,,CLR,0.00,VWS V14.01,2013-02-20 05:44:00,
2013-02-19 23:45:00,-5.2,-13.6,30.29,WNW,284,0.0,3.0,66,0.00,,CLR,0.00,VWS V14.01,2013-02-20 05:45:00,
2013-02-19 23:46:00,-5.2,-13.6,30.29,WNW,284,1.0,3.0,66,0.00,,CLR,0.00,VWS V14.01,2013-02-20 05:46:00,
2013-02-19 23:47:00,-5.2,-13.6,30.29,WNW,284,2.0,3.0,66,0.00,,CLR,0.00,VWS V14.01,2013-02-20 05:47:00,
2013-02-19 23:48:00,-5.2,-13.6,30.29,WNW,284,0.0,3.0,66,0.00,,CLR,0.00,VWS V14.01,2013-02-20 05:48:00,
2013-02-19 23:49:00,-5.2,-13.6,30.29,WNW,284,1.0,3.0,66,0.00,,CLR,0.00,VWS V14.01,2013-02-20 05:49:00,
2013-02-19 23:50:00,-5.2,-13.6,30.29,WNW,284,1.0,3.0,66,0.00,,CLR,0.00,VWS V14.01,2013-02-20 05:50:00,
2013-02-19 23:51:00,-5.2,-13.6,30.29,WNW,284,0.0,3.0,66,0.00,,CLR,0.00,VWS V14.01,2013-02-20 05:51:00,
2013-02-19 23:52:00,-5.4,-13.8,30.29,WNW,284,0.0,3.0,66,0.00,,CLR,0.00,VWS V14.01,2013-02-20 05:52:00,
2013-02-19 23:53:00,-5.4,-13.8,30.29,WNW,284,0.0,3.0,66,0.00,,CLR,0.00,VWS V14.01,2013-02-20 05:53:00,
2013-02-19 23:54:00,-5.4,-13.8,30.29,WNW,284,1.0,3.0,66,0.00,,CLR,0.00,VWS V14.01,2013-02-20 05:54:00,
2013-02-19 23:55:00,-5.4,-13.8,30.29,WNW,284,0.0,3.0,66,0.00,,CLR,0.00,VWS V14.01,2013-02-20 05:55:00,
2013-02-19 23:56:00,-5.4,-13.8,30.29,WNW,284,0.0,3.0,66,0.00,,CLR,0.00,VWS V14.01,2013-02-20 05:56:00,
2013-02-19 23:57:00,-5.4,-13.8,30.29,WNW,284,0.0,3.0,66,0.00,,CLR,0.00,VWS V14.01,2013-02-20 05:57:00,
2013-02-19 23:58:00,-5.4,-13.8,30.29,WNW,284,0.0,3.0,66,0.00,,CLR,0.00,VWS V14.01,2013-02-20 05:58:00,
2013-02-19 23:59:00,-5.4,-13.8,30.29,WNW,284,0.0,3.0,66,0.00,,CLR,0.00,VWS V14.01,2013-02-20 05:59:00,